GFSWCAN_sfc_30mbdewp_000.txt.gz
Dewpoint
36 36 36 36 36 35 35 35 35 33 34 35 36 40 42 44 46 47 47 49 46 42 41 40 40 40 40 39 36 39 40 40 41 37 35 36 32 34 34 34 34 33 32 31 31 30 26 33 28 24 28 32 33 33
36 37 37 37 37 35 34 36 36 33 34 35 36 39 41 42 46 47 46 49 49 44 43 45 43 42 42 42 41 42 41 41 41 39 38 39 33 36 34 31 35 32 34 32 33 31 34 33 32 35 33 33 33 33
37 38 38 37 37 36 35 35 36 35 35 35 35 39 40 41 45 47 46 48 47 44 43 43 41 44 46 46 47 40 42 44 44 43 39 37 31 35 34 34 34 36 37 34 34 33 33 33 35 35 34 34 33 34
38 37 37 35 36 36 35 35 36 36 36 35 36 39 40 41 44 46 45 48 47 43 39 41 45 43 46 47 47 47 45 46 45 46 40 35 34 35 32 31 34 36 36 33 32 32 32 33 34 34 33 33 33 33
38 36 36 38 37 34 36 36 36 36 36 35 37 38 39 41 43 46 47 48 48 45 40 41 43 45 47 47 46 46 45 45 44 44 42 38 40 37 36 35 32 31 35 34 33 32 32 31 34 33 33 33 33 32
38 38 38 38 38 36 37 37 36 37 36 35 37 38 40 40 42 44 44 48 48 47 41 39 44 43 45 46 46 45 45 44 44 43 42 42 42 40 37 34 35 33 32 35 33 33 32 33 33 33 33 33 33 32
38 39 38 37 38 37 36 36 37 37 34 36 37 39 40 40 41 40 42 46 49 47 41 39 39 43 44 45 45 45 46 45 44 43 42 40 40 40 36 33 35 35 33 33 33 33 32 32 32 32 32 32 32 31
39 38 37 36 35 36 37 36 35 34 36 37 38 40 39 40 42 43 47 48 48 44 44 38 37 40 44 43 41 46 42 44 43 42 40 39 37 37 34 36 35 33 33 33 33 33 33 32 31 30 30 29 29 28
38 37 37 36 36 35 35 33 33 35 36 38 39 41 41 42 42 46 50 48 48 44 39 38 35 34 42 42 42 42 44 40 42 40 39 38 36 33 33 34 33 32 32 33 32 31 31 30 28 27 27 26 25 26
37 37 37 36 35 35 34 33 32 32 34 38 41 39 37 42 50 49 46 43 43 43 41 38 39 37 41 40 38 39 39 38 36 38 38 37 36 37 38 37 34 33 33 32 31 29 29 28 27 25 25 25 25 26
37 37 36 36 35 34 34 32 31 33 36 37 32 32 34 38 45 43 38 38 39 37 39 39 39 37 40 36 37 37 36 35 32 33 35 32 33 35 37 38 35 33 33 33 32 31 30 28 25 24 24 26 27 28
37 37 36 36 35 35 33 31 35 35 35 36 37 38 34 35 37 33 32 37 36 34 38 38 38 38 38 38 35 35 33 34 30 35 33 30 33 34 34 36 34 34 33 32 32 30 27 24 24 25 25 26 27 28
37 36 36 36 36 33 32 33 34 35 38 37 33 29 29 33 30 30 29 32 33 37 38 37 36 35 35 35 34 33 32 31 31 29 28 30 31 32 33 33 33 33 31 29 26 24 25 25 26 25 26 28 29 29
37 36 36 36 34 30 34 34 34 36 37 29 27 25 28 28 30 31 30 32 34 37 37 36 33 33 33 31 32 30 30 29 26 25 24 26 28 32 33 32 31 30 27 25 25 25 25 25 26 27 27 27 27 27
36 36 38 34 30 35 34 34 36 38 34 28 29 25 29 33 32 32 31 32 35 38 36 33 32 31 31 30 28 28 26 25 25 23 24 26 29 31 31 29 27 26 25 25 25 25 25 26 25 25 25 25 25 24
36 36 30 32 35 34 33 37 37 36 31 29 29 28 32 32 31 32 32 33 37 37 34 32 29 28 28 27 26 25 24 23 23 25 27 28 30 28 27 26 26 26 25 24 24 24 24 24 24 23 21 20 19 18
35 33 32 36 34 33 35 35 33 30 29 30 30 32 31 32 31 32 33 35 38 35 32 29 27 26 26 24 24 23 22 21 23 29 28 29 29 25 25 25 25 24 24 24 23 23 21 20 19 18 17 15 14 14
34 34 36 34 33 34 34 33 30 29 28 30 27 29 31 33 32 32 34 37 37 34 30 27 28 27 25 24 22 23 25 29 26 27 29 29 26 25 25 24 24 24 23 23 21 20 19 18 17 15 14 13 12 12
35 35 33 33 33 30 27 28 31 24 27 29 29 29 31 32 34 35 35 38 35 34 31 30 26 25 25 24 23 26 26 27 27 29 27 25 25 24 24 24 24 24 24 22 21 19 18 17 15 14 12 12 11 11
34 33 34 32 33 27 25 25 29 26 24 26 29 28 29 30 32 32 35 33 32 31 30 27 26 26 27 28 28 29 27 27 28 27 24 24 24 24 24 24 24 24 23 22 21 19 16 15 14 13 13 12 12 12
32 32 32 30 29 28 26 25 23 26 26 24 27 28 28 31 31 31 32 33 33 33 33 31 28 26 27 27 29 28 27 29 29 27 25 23 23 23 23 24 23 22 22 20 19 19 17 15 15 16 15 14 13 10
30 32 28 25 21 20 25 27 23 25 25 24 25 26 25 25 27 28 30 30 28 25 26 28 27 26 27 27 27 26 28 28 27 26 25 24 22 23 23 23 22 21 21 20 18 16 15 15 13 13 13 13 10 9
30 23 18 16 14 12 14 19 21 21 21 21 23 22 23 23 26 29 23 22 22 25 25 25 25 25 26 27 27 28 28 27 26 25 24 23 24 23 23 22 22 20 18 16 16 16 15 16 14 11 10 8 8 8
22 16 12 11 13 7 14 13 15 19 20 20 19 18 20 22 25 22 18 18 23 25 24 24 25 25 25 24 24 25 27 27 26 25 24 22 21 20 20 18 18 18 17 17 18 17 15 13 13 8 7 6 3 2
13 7 11 3 9 10 8 11 13 15 16 17 18 17 20 23 20 18 16 15 16 17 17 23 25 24 22 21 21 22 24 24 23 21 22 20 18 17 16 16 15 16 17 16 16 15 13 9 8 6 5 4 2 1
9 7 8 6 8 9 10 9 12 13 15 17 18 20 22 20 17 14 11 10 11 14 13 14 16 22 21 22 21 21 22 22 21 20 22 24 21 19 17 16 15 14 15 15 14 12 9 7 5 4 5 7 8 2
8 6 16 19 17 16 14 14 13 13 14 14 15 15 17 15 13 11 11 11 10 12 13 16 20 19 17 17 19 19 20 21 21 19 20 20 20 20 19 17 15 14 14 13 11 9 7 7 7 8 8 5 2 1
15 13 10 14 15 13 11 10 11 11 13 14 13 13 11 11 10 7 9 12 12 13 16 17 17 17 17 17 18 18 17 18 18 17 16 17 18 18 18 17 16 15 13 12 11 10 9 8 6 4 1 1 1 1
17 17 15 12 12 12 12 10 11 13 13 11 11 11 9 7 7 6 8 10 11 16 15 14 15 17 17 16 17 18 20 21 20 18 15 13 13 13 16 15 14 14 13 13 12 9 6 5 4 4 3 2 2 3
15 18 14 10 9 5 10 10 11 13 13 11 11 9 8 8 8 9 9 10 12 13 15 16 17 17 16 17 16 16 16 18 21 19 16 14 12 14 13 13 12 12 11 11 11 12 12 10 7 4 2 2 -0 -3
16 14 12 10 10 9 9 10 11 13 8 9 9 9 9 8 10 10 9 9 12 16 16 16 16 17 17 16 16 15 13 13 13 13 13 13 13 13 13 13 13 13 13 12 10 8 6 1 -1 -2 -1 -0 0 -3
15 14 12 11 10 8 9 9 8 9 6 8 9 8 10 10 10 9 8 9 14 14 17 16 16 14 16 15 16 15 14 13 13 13 12 12 13 12 12 10 10 9 7 5 4 2 1 -1 -2 -3 -3 -4 -4 -4
13 11 6 7 8 9 8 8 7 8 5 7 6 5 8 9 11 8 9 10 10 11 12 13 14 14 14 14 14 13 12 12 12 13 13 13 13 11 8 7 6 5 4 4 3 1 -1 -1 -2 -2 -3 -4 -5 -5

GFSWCAN_sfc_30mbdewp_003.txt.gz
Dewpoint
38 39 38 37 37 36 36 36 36 36 36 34 36 36 39 42 44 46 44 47 47 41 41 41 41 40 40 37 35 39 39 40 39 35 35 34 32 33 32 32 33 31 29 31 31 29 24 33 29 26 28 32 31 32
39 38 36 37 37 35 35 36 35 36 36 35 36 36 38 40 43 46 43 48 50 44 42 45 43 42 42 42 40 42 40 41 41 38 37 37 34 35 33 30 35 32 33 30 30 29 33 33 33 34 33 33 33 33
39 36 35 36 37 37 34 36 36 36 36 36 36 36 37 39 42 44 44 47 48 44 43 43 42 44 46 45 45 40 42 43 43 44 40 38 33 36 32 33 34 35 37 34 34 33 35 33 35 34 34 33 34 35
38 38 38 38 37 38 37 36 37 37 36 36 36 36 37 40 42 42 42 44 45 44 39 39 45 44 47 47 46 46 45 46 45 45 42 36 33 35 33 33 34 36 36 34 33 32 32 32 34 33 33 34 34 33
39 37 38 38 38 37 37 36 37 37 37 37 35 36 37 39 41 42 42 44 47 45 40 41 43 45 47 46 46 46 45 44 44 43 42 38 39 37 36 35 33 34 35 34 33 34 32 32 34 33 33 32 32 31
38 39 37 37 36 35 36 37 37 37 36 33 35 36 37 39 40 40 40 48 49 49 42 39 44 44 45 46 45 45 45 44 44 43 42 43 42 40 35 34 36 34 34 36 35 33 33 33 33 33 33 32 32 31
38 39 37 36 35 36 35 35 35 33 33 34 35 36 38 39 40 36 39 43 45 47 42 38 38 44 45 45 45 45 46 45 44 44 43 42 42 42 37 34 35 36 34 33 33 33 32 32 32 33 33 33 32 31
38 38 37 36 36 35 34 33 33 33 31 31 33 35 37 39 40 39 41 43 45 46 44 38 37 40 44 42 41 46 42 44 43 42 41 40 39 38 36 36 36 34 33 33 33 33 33 32 32 31 31 30 29 29
38 38 37 37 36 35 34 34 33 31 32 34 36 39 41 39 39 42 49 49 48 44 39 38 35 34 43 42 42 43 43 40 43 40 40 39 37 34 35 35 36 33 33 32 31 31 31 30 29 29 29 28 28 27
37 37 37 37 36 36 35 34 32 30 34 35 37 35 36 38 38 46 46 43 43 43 42 38 38 36 41 40 39 39 39 38 36 38 38 37 37 38 38 36 36 34 32 31 30 29 28 28 28 27 27 27 26 25
36 37 37 36 36 36 36 32 32 33 35 34 33 30 36 38 37 43 36 38 39 37 40 39 38 36 40 37 38 38 36 35 32 33 36 33 33 35 37 38 36 33 32 32 31 30 30 29 26 25 25 25 25 24
36 36 37 36 36 36 34 31 33 34 34 35 35 37 34 31 35 33 32 35 36 33 38 38 38 37 38 38 36 36 34 33 30 34 33 30 32 34 34 37 35 33 32 32 30 29 27 26 25 25 25 25 26 26
35 36 36 36 36 36 30 34 34 33 35 36 33 29 28 30 28 29 28 32 33 36 38 37 36 35 35 36 34 33 32 31 31 30 29 30 31 31 33 34 33 33 31 29 27 26 25 25 25 25 26 27 27 26
35 36 36 36 33 32 35 34 33 35 37 29 26 23 25 27 29 31 31 32 34 37 37 35 34 34 33 32 32 32 31 30 27 26 25 26 27 30 33 32 32 30 28 26 25 25 25 25 25 26 27 27 26 26
36 36 36 33 33 35 34 33 37 38 34 28 28 23 28 32 32 32 32 32 34 38 35 33 32 32 31 31 28 29 27 26 26 25 25 25 27 31 32 31 29 27 26 26 26 25 25 25 25 25 26 27 26 25
37 36 29 33 36 34 33 36 37 36 31 28 28 27 31 31 31 32 31 31 36 37 34 33 30 29 29 29 26 26 25 23 24 26 26 27 30 30 29 28 27 26 25 25 25 25 25 24 24 24 24 24 23 21
36 33 34 36 35 33 35 34 33 30 29 27 29 32 30 30 30 32 33 33 38 36 33 30 29 28 26 25 25 24 24 25 24 26 28 27 29 27 26 26 25 25 24 24 24 24 23 22 21 21 20 17 16 15
34 34 36 35 33 32 31 32 30 27 25 28 26 28 29 31 31 33 34 35 37 36 31 28 28 27 25 24 24 24 25 28 27 26 28 28 26 26 25 25 24 24 24 23 22 22 21 20 18 16 15 14 13 12
36 36 34 33 32 29 26 27 31 24 23 27 28 28 29 29 32 34 34 35 37 36 32 29 27 26 26 25 24 23 25 27 27 28 26 26 26 25 24 24 24 23 22 22 21 20 18 17 16 14 13 12 11 10
36 34 34 32 33 26 23 24 26 25 22 24 26 27 28 27 30 32 32 33 34 34 32 29 27 25 26 28 26 29 27 26 27 27 25 24 24 24 24 24 23 23 21 20 18 17 15 14 13 12 12 11 10 10
32 32 32 28 28 27 25 24 23 24 25 24 24 25 25 27 30 31 31 32 32 32 32 31 29 27 27 27 28 29 28 28 28 27 25 23 24 24 24 24 23 22 20 19 17 18 15 14 13 15 14 12 10 8
30 31 26 22 20 18 22 26 22 22 22 23 22 22 23 23 25 26 28 28 27 24 25 26 28 27 26 27 27 27 28 29 27 27 26 25 23 23 23 23 22 21 20 20 18 15 15 15 15 14 12 12 10 9
29 22 17 15 13 10 12 16 20 19 19 19 19 20 20 22 25 27 24 22 22 25 26 25 25 25 26 27 28 28 28 27 26 25 24 23 24 24 23 23 23 21 19 18 17 16 15 16 15 12 12 9 9 9
21 15 12 10 11 3 12 12 13 16 18 18 18 16 17 21 23 22 20 19 20 21 19 20 25 25 25 25 25 27 27 25 24 24 23 23 22 22 22 21 20 20 18 17 17 17 15 13 14 10 9 9 7 3
15 8 10 4 8 8 4 8 10 13 14 15 17 15 18 22 19 19 17 14 14 15 15 16 19 24 23 22 23 25 27 26 25 23 22 21 18 18 17 17 18 19 19 17 16 15 14 11 10 9 8 6 3 2
10 6 7 1 4 4 5 1 9 11 12 14 15 17 19 19 17 15 12 10 11 13 12 12 12 14 21 22 21 22 23 25 24 21 21 21 20 19 17 17 17 17 18 17 15 12 11 10 8 7 5 7 7 1
9 7 13 17 15 15 11 13 12 12 12 13 13 13 15 13 14 12 11 11 10 12 12 13 14 16 19 19 19 20 22 23 22 20 22 23 23 22 20 19 17 16 16 15 14 12 9 8 7 8 8 7 3 2
15 11 9 14 14 11 9 9 9 9 11 13 12 12 12 12 12 8 8 10 11 11 11 16 17 18 18 18 18 18 18 19 19 20 19 19 19 19 19 18 17 17 16 15 13 11 9 9 8 7 3 1 1 0
17 16 13 12 12 11 11 8 8 11 13 11 11 11 10 9 7 6 6 8 10 11 14 14 15 17 17 17 18 19 20 21 20 18 16 14 14 15 19 18 18 19 18 16 13 10 8 7 5 4 3 1 1 2
16 17 13 10 9 5 8 9 10 12 12 11 11 9 8 7 7 9 8 9 10 11 15 16 17 17 17 17 16 16 16 20 22 19 17 14 13 15 17 17 16 14 13 12 12 12 12 10 8 4 3 2 -0 -3
15 13 11 10 10 7 7 8 9 12 8 9 8 9 8 8 8 10 9 9 11 15 16 16 16 17 17 18 17 17 16 15 17 17 16 15 16 15 14 13 13 13 13 12 10 9 5 2 1 -0 -2 -2 0 -3
14 13 12 11 10 6 6 8 7 8 5 8 9 6 8 9 10 10 9 10 14 14 17 16 15 14 15 16 17 18 16 16 16 16 15 14 13 13 13 12 12 11 9 7 4 2 -0 -1 -2 -3 -3 -4 -4 -5
11 8 5 7 8 8 7 7 7 8 6 7 7 5 7 9 10 9 11 11 11 12 12 13 13 14 14 14 14 15 13 13 14 14 14 13 12 12 10 9 7 6 4 3 1 -0 -2 -3 -3 -4 -4 -5 -5 -6

GFSWCAN_sfc_30mbdewp_006.txt.gz
Dewpoint
37 38 39 37 37 38 37 34 36 36 36 36 36 37 36 39 42 44 43 47 46 42 41 41 40 39 39 37 34 39 38 40 38 35 34 35 33 33 32 30 33 31 29 29 31 29 25 33 36 32 31 31 32 36
37 39 38 37 38 37 38 38 37 37 36 37 36 36 35 37 41 44 40 45 47 45 42 45 43 42 41 40 39 41 39 40 40 39 37 37 35 33 32 28 34 32 32 30 31 28 32 33 32 34 33 32 33 33
38 39 38 38 38 37 37 36 36 36 37 37 37 37 35 36 39 42 41 43 45 44 42 42 41 44 45 44 44 39 41 42 43 45 40 37 35 35 32 31 33 35 36 34 34 32 34 33 35 34 33 33 34 34
39 39 37 38 37 36 35 36 37 37 37 37 37 34 35 37 39 40 40 41 41 44 39 38 45 43 46 46 45 45 45 46 46 45 42 38 35 36 33 34 34 35 36 34 34 34 32 32 34 33 34 34 34 34
39 38 39 37 36 36 36 35 35 35 34 33 33 34 35 37 38 40 41 42 43 42 39 41 43 45 47 46 45 46 45 44 43 41 40 39 37 35 36 34 32 35 35 34 33 35 33 32 34 33 33 33 32 32
39 38 39 37 36 36 35 34 34 33 33 33 32 32 33 36 37 39 38 47 48 48 43 37 44 44 45 46 45 45 45 44 43 42 42 43 42 38 35 33 35 34 35 37 36 33 33 33 33 33 32 32 31 31
39 37 37 37 37 36 35 34 34 33 32 32 34 33 34 35 37 35 36 42 43 43 43 38 37 44 45 44 44 45 46 44 43 41 42 42 42 41 39 35 36 36 36 33 34 33 32 33 32 33 32 32 31 30
39 36 37 37 37 36 35 35 34 33 31 32 33 35 36 38 38 37 40 42 42 41 44 38 37 39 44 41 41 45 43 44 44 42 42 40 40 40 37 37 37 35 34 33 33 33 33 33 32 32 31 30 29 28
37 34 37 36 36 36 36 36 35 32 33 36 35 38 41 38 36 40 41 42 44 45 38 38 34 32 43 42 42 43 43 39 43 40 40 40 38 36 37 37 36 35 34 32 32 32 32 32 31 30 29 28 27 28
39 33 37 36 36 37 36 36 33 32 34 34 37 34 34 35 39 40 43 42 42 44 43 38 38 35 40 40 39 39 39 38 35 38 39 37 37 38 38 37 36 35 33 31 30 30 30 30 30 29 28 28 28 28
38 34 34 35 36 37 36 35 32 34 34 34 31 31 36 38 38 40 37 37 38 37 40 39 37 36 41 37 37 38 36 35 32 33 35 34 33 36 36 38 38 34 32 32 32 31 31 31 29 28 27 27 26 26
38 36 35 36 37 37 34 33 34 34 33 34 34 36 36 32 32 32 32 35 35 32 37 37 37 36 38 39 37 36 34 33 29 33 33 30 32 33 33 37 35 33 32 32 31 31 30 29 27 26 26 25 24 24
38 37 36 37 37 34 35 35 34 34 36 35 32 30 29 29 27 29 27 31 33 36 38 37 36 36 36 36 34 34 33 30 31 30 29 30 31 31 32 34 34 33 32 30 29 28 27 26 26 26 25 25 23 22
37 37 37 37 35 35 36 34 33 37 36 28 26 23 25 26 29 30 29 31 32 33 37 35 34 34 34 33 32 32 32 31 28 26 25 27 27 28 32 33 32 31 30 28 26 26 26 26 26 26 26 25 23 22
37 37 37 34 34 36 35 33 37 39 33 27 27 23 26 31 32 32 33 32 34 36 35 33 33 32 31 31 28 30 28 26 27 25 25 26 26 30 32 31 30 28 26 26 26 26 26 26 26 26 26 25 24 23
37 36 30 34 36 35 33 36 37 36 32 28 27 26 29 28 28 31 32 32 34 37 35 34 31 30 30 29 28 27 26 24 24 27 26 26 28 30 30 29 27 26 26 26 26 25 25 26 25 25 25 24 22 21
36 33 34 37 36 34 35 35 33 30 28 26 28 31 28 27 29 30 32 34 36 36 34 31 29 28 27 26 26 25 25 25 26 25 28 27 28 28 27 27 26 26 25 25 25 24 24 25 24 23 22 19 17 16
32 34 36 37 34 32 28 32 29 26 23 26 26 26 28 28 28 29 33 36 35 35 34 32 28 27 26 26 25 25 26 27 28 27 27 28 27 26 26 26 25 25 24 24 23 23 24 23 22 19 18 16 15 14
35 36 36 34 32 29 25 26 30 22 23 25 26 26 27 28 29 30 31 34 35 36 34 31 28 26 27 25 25 23 23 27 27 28 26 25 26 25 25 24 24 23 23 23 22 22 21 20 18 17 15 14 12 11
36 35 34 32 32 25 22 23 26 24 22 23 25 24 25 26 27 28 30 32 32 32 31 30 30 26 26 27 26 27 28 26 27 26 25 24 24 24 24 23 23 23 21 19 19 17 16 15 14 13 13 12 11 11
31 31 31 28 27 26 24 23 22 22 23 22 23 22 23 23 26 29 31 31 30 31 31 30 29 28 28 27 27 28 28 27 27 27 26 24 24 24 23 23 22 21 19 19 17 17 15 14 13 15 13 11 9 8
30 30 24 21 21 19 22 25 22 21 20 21 22 19 21 21 22 25 27 26 26 23 24 24 25 25 26 26 27 27 28 28 28 27 26 25 24 23 23 22 21 20 19 19 17 15 14 15 14 11 10 10 9 10
27 22 16 14 13 10 11 15 19 18 16 17 17 18 18 20 21 23 23 22 22 22 21 22 21 25 26 27 28 28 28 27 26 25 25 24 24 24 23 23 22 20 19 18 17 16 15 16 14 11 11 9 10 10
20 16 13 10 10 2 10 10 12 14 16 17 17 15 14 18 20 21 20 18 17 19 17 16 18 20 25 27 25 26 26 25 24 24 24 24 23 23 23 22 22 21 18 17 17 17 16 14 14 10 10 10 7 3
17 11 10 4 7 7 4 7 10 12 11 13 13 13 16 19 18 17 17 14 11 15 14 14 15 15 15 22 24 25 27 25 24 23 23 22 20 20 19 19 18 18 19 18 17 16 15 13 12 11 10 7 5 3
13 8 5 4 3 4 1 -3 6 8 10 9 12 13 13 17 16 14 14 11 11 11 12 11 11 11 13 17 20 22 23 26 23 22 21 20 20 20 19 18 18 18 19 18 18 15 13 12 11 10 9 9 7 1
10 8 9 13 12 11 10 12 12 10 8 9 12 13 12 12 12 13 13 11 10 10 10 12 12 11 13 14 20 21 22 23 23 22 24 25 24 22 21 20 18 18 18 18 17 15 12 11 10 9 9 7 3 1
16 12 8 14 14 10 6 8 8 6 9 12 13 10 11 11 11 10 7 8 8 8 9 11 13 16 16 17 19 19 19 20 20 20 20 20 21 22 22 21 21 21 19 17 14 12 11 11 10 8 4 2 2 1
18 15 12 12 11 11 10 5 3 9 12 11 11 10 11 10 7 6 6 7 8 8 10 13 15 17 17 17 19 19 19 20 19 18 15 14 15 17 21 21 20 20 19 18 18 15 12 10 6 3 2 1 1 0
16 15 12 10 9 6 6 9 10 11 12 10 10 10 9 8 7 6 7 7 8 9 10 14 17 17 16 16 15 16 17 20 23 17 15 14 14 17 19 19 18 19 19 18 17 16 14 10 7 4 2 2 0 -2
16 13 11 10 9 7 6 6 8 11 7 8 6 9 8 8 8 8 8 8 9 10 13 15 15 16 17 17 17 16 15 16 19 18 17 17 17 17 18 18 19 19 17 15 11 9 6 3 2 1 -2 -3 -0 -3
13 13 12 11 9 5 5 6 6 8 5 7 8 3 7 8 9 9 9 9 13 13 15 14 13 13 14 16 18 19 18 17 17 17 17 16 16 16 16 16 16 13 9 7 5 4 2 1 -0 -1 -1 -3 -4 -5
8 6 3 7 7 7 6 6 6 8 5 7 6 5 5 8 9 9 9 11 11 12 12 12 13 14 14 15 15 16 17 17 19 19 19 18 17 15 12 10 9 7 4 3 3 1 0 -1 -2 -3 -4 -5 -5 -5

GFSWCAN_sfc_30mbdewp_009.txt.gz
Dewpoint
36 37 38 37 37 37 36 36 36 37 37 37 37 37 38 36 38 42 41 46 41 42 41 41 41 39 39 38 35 37 38 39 38 33 33 33 31 32 31 30 32 30 30 29 30 28 25 33 37 34 31 32 32 37
36 38 38 37 37 36 35 35 36 37 37 37 37 37 36 35 37 40 39 42 42 43 42 45 43 42 40 40 39 40 38 39 39 36 37 37 33 33 32 28 34 31 31 30 31 28 31 34 33 33 34 33 33 35
38 39 38 36 38 36 35 35 35 34 34 34 34 34 34 34 36 38 40 41 40 44 41 42 41 44 45 43 44 39 41 42 42 45 41 38 36 35 31 31 32 34 35 34 33 32 34 35 34 34 34 33 34 34
38 40 39 38 38 36 36 35 34 34 33 33 33 33 34 34 34 37 38 40 40 39 39 37 44 43 46 46 45 44 44 45 45 45 40 38 36 36 34 33 34 35 36 34 34 34 34 34 33 33 34 34 33 32
38 40 39 37 37 36 36 35 35 34 33 33 33 32 33 34 34 37 38 39 42 38 38 40 43 45 46 46 45 45 44 43 42 40 39 37 38 35 35 34 33 35 35 33 32 35 34 32 33 34 33 33 32 31
38 40 38 35 36 36 36 36 35 35 34 34 32 31 33 34 34 36 35 44 44 44 41 37 44 43 44 45 45 44 44 44 43 41 39 40 41 36 34 33 35 35 35 36 36 34 33 33 33 33 32 32 32 31
38 40 35 34 37 36 36 36 36 35 35 33 33 33 34 35 36 34 34 40 41 41 41 38 37 44 45 44 44 44 45 44 43 41 39 41 42 42 39 35 36 37 37 35 34 33 33 33 32 32 32 31 30 29
38 40 37 33 37 36 35 35 35 35 35 33 34 35 36 38 37 36 40 42 43 40 43 37 35 38 44 41 40 45 43 44 43 41 42 41 40 40 37 38 38 36 35 34 33 33 33 33 32 31 31 30 29 28
38 40 38 33 35 35 35 36 36 35 33 35 35 37 41 38 35 37 40 41 44 41 39 37 33 31 44 42 41 43 44 38 42 39 40 40 38 36 37 38 37 36 35 34 32 32 33 32 31 30 29 29 28 27
39 40 38 35 33 34 37 36 35 33 34 34 35 33 34 34 39 40 42 39 40 42 42 37 37 35 39 40 40 39 40 38 35 38 39 36 37 39 39 39 37 36 34 32 31 31 31 31 31 29 29 28 27 27
38 40 38 36 36 35 36 34 35 35 34 32 30 30 36 38 39 36 34 37 38 36 40 39 36 36 41 37 38 38 36 35 32 33 35 34 33 35 35 36 38 36 33 32 32 32 32 32 30 28 28 28 28 27
38 40 38 37 37 37 36 35 35 34 32 34 34 36 37 33 32 30 32 35 35 32 38 37 37 36 38 39 37 36 34 34 29 31 32 30 32 33 32 34 37 34 33 32 31 31 32 31 29 28 27 26 26 25
38 40 38 37 37 37 35 36 35 33 37 35 32 28 28 30 28 28 27 31 33 35 37 37 36 36 36 36 34 34 32 30 31 30 29 30 31 30 31 33 34 33 32 30 30 30 29 28 27 26 25 24 23 22
39 40 38 38 37 35 36 34 34 37 35 26 26 23 26 27 27 29 29 30 33 34 35 36 34 34 34 33 32 32 32 31 27 26 25 27 27 27 30 32 33 31 30 28 27 27 27 27 26 25 24 23 21 21
39 39 37 36 35 36 35 34 37 38 32 26 26 24 27 30 31 32 32 32 34 35 36 34 33 32 31 31 29 30 28 26 27 26 26 26 26 28 31 31 31 29 27 27 27 27 26 26 25 24 23 22 21 20
40 37 32 34 37 36 33 35 36 36 31 28 26 25 27 25 25 28 30 31 36 37 36 35 32 30 31 30 29 28 26 24 24 28 27 26 28 30 30 30 29 27 27 26 26 26 26 25 24 24 23 22 21 19
38 33 35 36 38 34 34 33 32 28 27 25 26 30 28 26 27 27 29 32 36 35 34 33 31 30 27 27 27 27 26 26 27 27 26 28 28 28 28 27 27 26 26 26 26 26 25 25 23 22 20 19 18 17
35 33 35 38 34 31 27 30 27 25 23 25 25 26 27 27 26 27 29 32 32 32 32 31 29 28 27 27 27 27 27 26 28 28 27 27 27 27 27 26 26 26 25 25 25 25 25 23 22 20 19 17 16 15
36 36 37 35 32 28 24 26 27 21 22 23 24 25 25 26 27 28 29 30 33 35 32 31 28 28 26 25 24 25 24 25 27 27 26 25 26 26 26 25 24 24 24 24 25 24 24 22 20 19 17 16 14 13
37 35 34 32 32 25 21 22 26 23 20 22 23 23 23 23 25 26 27 29 31 30 29 29 30 29 27 26 26 26 27 26 26 26 26 25 24 24 24 24 24 23 22 21 21 19 18 18 17 16 15 14 13 12
30 32 30 28 26 25 23 22 21 22 22 20 21 21 21 23 22 25 25 29 28 29 30 27 25 24 26 28 29 27 28 27 27 26 26 25 24 23 23 23 22 21 20 19 18 19 18 16 14 16 15 12 10 9
30 29 23 21 21 20 21 24 21 20 19 18 20 18 18 19 20 22 24 24 25 22 22 21 21 20 21 23 26 27 28 28 28 28 26 26 24 23 22 22 21 20 20 19 19 16 15 15 14 11 10 11 10 11
27 21 16 15 14 11 11 14 16 17 15 16 15 17 17 18 18 18 22 21 21 20 20 20 19 20 21 23 27 28 29 28 27 26 26 25 24 24 23 22 22 20 19 18 17 16 15 15 13 11 12 10 11 11
20 17 14 11 10 3 9 10 12 13 15 16 15 13 12 15 17 19 19 18 17 18 16 15 15 16 17 20 22 24 26 27 26 25 25 24 24 23 23 22 21 21 19 18 17 16 15 13 13 11 11 11 7 3
18 13 10 6 6 6 3 6 9 12 10 12 14 6 14 16 16 16 16 16 11 14 13 12 11 12 13 14 18 20 24 26 25 24 24 24 22 21 20 20 19 19 19 18 17 16 15 13 12 12 10 8 5 5
13 9 5 4 4 4 0 -4 4 7 10 7 8 11 11 15 14 13 14 12 12 11 10 9 9 10 11 13 15 16 19 22 24 23 23 23 22 21 20 19 18 19 20 19 17 15 14 14 12 11 10 9 8 4
13 10 8 10 8 8 8 10 11 9 4 -1 9 13 12 12 11 12 12 12 11 9 9 8 9 9 10 11 14 17 20 22 21 23 24 25 24 22 21 20 19 19 20 21 20 18 15 13 12 11 11 10 8 5
17 11 7 12 14 9 5 8 7 2 4 9 12 11 7 9 10 11 11 8 9 7 7 7 9 10 11 13 15 17 19 20 20 21 21 21 22 23 22 21 22 23 22 21 19 18 16 13 12 10 8 6 4 4
17 13 12 11 10 10 8 3 1 6 11 12 10 8 9 10 9 8 6 6 5 6 7 8 10 11 15 16 18 19 19 19 18 17 17 15 16 18 23 24 23 22 23 21 20 16 14 12 11 10 8 3 2 2
16 13 11 10 9 6 6 8 9 9 11 10 9 10 10 9 7 5 6 7 8 9 8 8 9 12 14 15 15 16 17 19 19 20 16 15 15 19 20 20 20 20 21 20 19 19 18 14 11 6 2 1 0 -1
14 12 11 10 9 6 5 4 7 10 7 8 5 9 9 8 7 6 7 7 8 8 10 12 13 14 13 15 16 15 15 17 20 21 19 18 19 19 19 20 21 21 20 17 14 13 11 8 5 2 0 -1 1 -1
13 13 12 10 9 4 3 6 6 8 5 7 7 2 5 7 9 8 8 8 10 11 12 12 11 11 14 15 17 19 19 18 18 19 19 18 18 19 18 18 18 17 16 14 12 10 6 4 3 2 1 -0 -1 -1
7 5 3 7 7 7 5 6 6 7 4 7 6 4 4 7 9 8 7 10 10 11 11 12 13 15 16 16 16 17 17 18 19 20 19 19 18 17 17 16 15 14 11 6 4 4 2 1 0 -1 -2 -3 -4 -2

GFSWCAN_sfc_30mbdewp_012.txt.gz
Dewpoint
36 36 37 40 37 38 36 36 35 35 34 35 36 36 35 35 36 39 39 44 39 37 41 41 39 39 39 38 34 37 38 39 39 34 33 33 32 31 31 31 31 29 30 30 30 27 26 33 35 31 33 34 33 36
37 37 38 39 36 38 36 36 35 34 34 33 33 33 33 34 35 37 37 40 42 38 42 45 44 43 41 40 39 40 39 39 38 36 36 37 33 34 31 28 32 30 32 29 31 30 32 34 35 35 35 34 34 36
36 37 39 40 38 38 37 36 36 35 34 33 33 33 33 33 34 35 37 40 37 38 43 42 41 44 45 43 44 39 41 42 42 43 40 38 34 37 31 32 32 34 35 34 34 33 34 35 35 35 34 34 35 37
35 37 39 40 38 36 37 36 36 35 35 34 34 33 33 33 34 34 36 38 38 36 36 38 44 43 46 46 45 44 44 45 45 44 39 37 36 37 35 34 34 35 36 35 35 35 35 35 34 34 34 34 33 33
35 37 39 40 36 36 37 36 35 35 35 35 35 34 32 33 34 36 37 38 39 36 35 40 43 45 46 46 45 45 44 44 43 40 39 36 39 37 36 35 34 36 35 33 30 35 35 34 34 34 34 32 32 30
36 37 39 40 35 33 36 37 34 34 33 35 35 34 34 34 35 36 35 42 40 39 35 37 44 43 44 45 45 44 44 44 43 41 39 39 41 38 36 34 35 35 36 37 35 34 33 34 34 34 33 32 31 30
36 37 39 40 37 34 35 36 36 34 34 34 34 33 34 35 36 32 33 39 40 41 36 37 37 44 45 44 44 43 45 44 43 41 39 39 40 41 38 34 35 37 37 36 36 34 33 33 33 33 32 32 30 28
36 37 39 40 38 34 33 34 36 35 35 34 34 34 35 39 37 35 38 41 43 39 40 37 36 38 44 41 40 44 42 43 43 41 41 40 41 41 37 39 39 38 36 35 35 34 34 34 32 32 31 29 28 26
35 37 39 40 39 36 34 35 34 34 35 34 34 37 40 36 34 37 39 42 43 39 37 38 34 32 44 42 41 43 44 39 42 39 40 40 38 35 38 39 39 39 37 36 34 33 33 33 32 31 30 30 28 27
36 37 38 40 38 36 36 36 36 34 35 33 34 34 33 34 38 40 39 37 38 39 40 37 37 35 40 40 40 39 40 38 35 38 39 36 36 39 40 40 40 38 37 34 33 32 32 32 31 31 30 30 29 27
35 36 38 40 38 37 37 37 35 35 34 34 30 31 36 38 39 36 32 33 37 36 40 39 37 35 41 36 38 38 36 36 33 34 35 35 34 36 36 34 36 38 36 34 33 33 33 33 31 30 29 28 27 25
36 36 38 40 38 38 37 36 35 34 33 33 35 37 37 33 32 31 31 35 34 33 38 38 37 37 39 39 38 37 34 34 30 32 32 31 33 34 32 32 35 36 34 33 32 32 33 32 30 29 28 27 26 24
36 36 38 40 37 37 36 36 34 35 38 34 32 28 30 31 28 27 25 30 32 33 35 37 36 37 37 37 35 35 32 31 32 30 29 31 33 30 28 32 34 33 33 32 31 32 31 30 29 28 27 26 24 22
35 37 39 39 38 36 36 34 36 38 33 27 26 24 27 27 28 28 28 29 33 33 34 36 35 35 35 35 33 32 32 31 28 27 27 30 29 27 30 32 33 32 31 30 30 29 29 29 27 27 26 25 23 21
36 38 40 38 36 37 36 34 37 38 31 27 26 24 26 28 31 31 32 32 34 35 35 35 34 33 32 32 31 31 29 27 28 27 29 29 27 28 31 32 32 30 29 29 29 28 28 27 26 25 25 24 22 20
37 39 35 34 37 37 34 35 36 36 30 28 27 26 27 26 25 27 28 30 35 35 36 35 33 32 32 31 30 29 28 26 26 30 31 27 28 29 31 30 30 28 27 27 27 27 26 25 24 23 22 21 20 18
38 36 34 36 38 34 34 32 31 27 25 26 26 30 29 26 25 27 26 29 32 34 33 33 31 32 29 28 28 29 28 28 28 29 28 29 29 29 29 28 28 27 27 27 27 26 25 24 22 21 20 19 18 16
37 33 35 37 34 30 27 29 26 24 23 25 24 26 27 27 26 26 28 30 28 30 31 31 30 28 28 28 28 26 27 27 28 28 28 28 28 27 28 28 27 27 26 27 26 26 25 23 22 20 20 19 17 16
38 35 37 35 32 26 23 27 26 20 22 24 24 25 25 25 26 27 27 29 30 32 31 30 29 28 28 27 26 27 27 27 27 27 27 26 26 26 27 27 26 26 26 26 26 25 24 22 20 19 18 17 16 14
39 37 34 33 31 24 20 22 26 22 20 22 23 22 22 22 23 24 25 27 30 30 28 28 29 28 26 26 27 26 27 28 27 26 27 26 25 25 25 26 25 25 25 25 24 22 20 19 18 18 17 16 15 14
32 33 30 29 26 24 22 22 21 22 22 20 21 20 20 21 21 22 25 28 25 25 26 26 24 23 23 23 24 27 27 27 27 27 27 27 26 24 24 24 24 23 23 23 21 21 19 18 17 18 19 15 13 11
30 30 23 22 21 21 21 24 22 21 19 18 19 18 17 18 20 21 22 23 24 24 22 21 22 21 20 20 22 24 26 28 29 28 29 28 26 24 23 24 23 23 22 22 21 19 17 17 17 14 12 12 11 13
27 22 17 17 13 11 12 15 16 18 13 15 14 15 16 17 19 17 20 22 21 20 20 19 18 16 16 17 21 25 27 26 26 27 27 27 26 25 24 24 24 23 22 21 20 19 17 17 15 12 13 12 12 12
20 18 15 12 11 5 10 11 12 14 14 15 14 9 13 14 17 18 19 19 18 19 17 14 12 12 13 15 15 16 21 22 24 25 27 26 25 24 24 23 22 23 22 19 19 17 17 14 15 12 11 12 10 5
18 15 11 7 8 7 4 6 9 12 9 12 13 7 13 15 16 15 15 16 15 15 15 13 11 10 10 11 12 14 16 19 21 20 23 26 25 23 22 22 21 20 20 19 18 17 16 15 13 13 12 10 7 6
17 11 9 7 7 3 2 -3 5 8 10 10 9 9 10 15 13 9 13 15 14 14 13 11 10 9 9 10 11 12 13 16 18 18 20 25 25 24 22 21 19 19 20 20 18 17 15 15 14 13 11 11 10 7
17 13 9 9 7 6 7 9 9 8 6 -2 6 12 13 11 10 11 13 12 13 12 11 10 9 9 9 9 10 11 13 16 18 19 21 23 25 27 25 22 20 20 21 19 18 16 16 16 15 13 12 12 8 8
18 11 7 11 12 8 4 7 6 2 2 7 11 10 7 7 2 10 13 11 11 8 8 8 8 8 9 9 11 12 14 16 19 20 21 22 23 25 26 26 25 22 21 19 20 21 19 18 16 13 11 9 11 12
17 12 13 10 10 10 7 3 -0 6 9 11 7 6 7 10 10 10 8 7 5 7 8 9 10 9 9 11 12 14 16 17 16 15 16 17 18 20 23 24 25 25 24 24 24 22 21 19 16 12 10 10 11 10
17 13 10 10 8 6 7 8 7 8 10 10 9 11 10 10 9 5 6 6 7 8 9 8 8 8 9 11 12 14 15 17 18 17 17 17 18 21 23 23 22 23 23 23 22 22 21 17 14 9 8 8 7 5
13 11 11 10 9 6 4 3 6 9 7 8 5 10 10 8 8 6 6 7 8 8 8 10 11 10 11 12 12 13 14 16 18 19 21 21 20 21 21 22 22 22 22 21 18 15 14 10 9 9 8 5 4 0
13 13 12 11 9 3 3 5 5 8 5 7 7 2 6 7 9 8 7 8 9 10 11 12 10 10 11 13 14 15 17 19 19 20 21 20 20 21 21 22 22 21 18 17 15 14 13 12 10 7 6 4 2 3
7 6 4 6 7 7 5 6 6 7 5 7 6 4 4 7 9 8 6 8 9 10 10 11 14 15 16 17 16 17 18 18 20 21 21 21 20 19 19 18 18 17 16 15 14 13 12 9 7 5 3 2 3 5

GFSWCAN_sfc_30mbdewp_015.txt.gz
Dewpoint
38 36 36 38 40 38 37 37 36 36 35 35 34 33 33 34 35 36 38 41 37 35 37 40 35 36 36 35 33 38 38 38 38 34 32 32 31 30 30 28 29 29 29 29 29 29 26 33 33 32 34 35 34 34
37 36 36 38 40 40 37 38 36 36 36 35 35 34 33 33 33 35 35 39 40 36 37 44 44 42 40 38 38 39 39 38 38 36 37 37 34 32 30 28 31 30 29 30 30 29 32 34 34 35 36 34 34 35
38 36 36 38 40 39 37 37 38 36 36 35 35 35 34 33 33 34 34 37 37 36 39 44 41 43 44 43 44 37 41 41 40 42 39 38 35 37 33 30 31 32 33 32 33 32 34 35 35 35 35 34 35 36
37 36 36 37 39 39 35 35 37 37 37 36 35 33 34 35 32 34 34 37 36 34 33 39 44 43 46 46 45 45 43 45 45 44 40 37 35 38 34 34 34 35 36 34 34 34 35 35 34 34 34 34 35 36
37 36 37 38 39 40 36 34 37 37 35 36 34 34 35 35 34 35 35 38 38 34 33 39 43 45 46 45 44 44 43 43 43 41 39 37 37 37 35 36 33 34 34 34 30 35 35 34 34 34 34 33 33 31
37 37 36 37 39 40 37 35 34 36 37 37 35 35 36 34 34 34 33 40 41 39 34 36 44 43 44 45 44 44 44 44 43 41 39 39 40 38 36 32 32 33 34 34 34 35 34 34 34 34 33 32 31 30
38 37 36 37 39 40 38 35 34 34 37 35 34 34 35 35 36 32 30 39 41 41 35 37 38 44 45 44 44 44 44 44 43 41 39 39 38 41 37 33 33 34 36 36 37 35 35 34 34 33 32 31 30 29
38 37 37 37 39 40 39 36 35 35 36 34 35 34 36 38 38 34 35 41 40 38 38 36 37 39 44 41 40 43 42 43 43 41 41 39 41 40 35 37 37 37 37 37 37 35 35 34 33 33 31 29 28 27
38 38 37 38 39 40 37 36 37 36 35 35 34 36 39 35 31 36 40 42 43 38 34 38 34 33 44 41 41 42 43 39 42 39 39 40 38 36 36 38 39 39 38 38 36 34 34 33 32 32 30 29 27 27
38 38 37 37 38 40 38 37 36 35 36 34 35 34 32 34 39 41 38 36 37 38 38 37 37 36 40 39 39 40 41 38 35 38 39 37 36 38 38 38 39 40 38 36 35 34 34 33 32 31 31 30 28 27
38 38 37 37 38 40 38 36 36 36 33 33 31 31 35 39 38 36 31 31 35 35 39 38 36 35 41 36 37 39 37 36 33 35 34 35 34 36 35 33 34 36 38 37 36 35 35 34 32 32 31 30 28 25
39 38 37 36 38 40 36 37 36 34 32 33 34 37 36 32 32 31 31 33 34 34 38 37 37 37 40 41 39 38 35 35 30 33 32 31 34 35 32 30 32 35 37 36 34 33 34 34 32 32 30 28 26 24
40 39 37 37 39 39 37 37 34 37 38 35 33 30 31 33 29 28 26 30 31 33 34 36 36 38 38 39 37 36 32 32 33 31 30 32 35 32 28 30 33 34 34 33 33 33 33 33 32 30 28 26 24 22
40 40 37 37 40 37 37 36 35 38 34 29 27 26 27 28 27 28 28 29 33 33 34 35 36 36 35 36 35 32 33 32 29 27 29 34 32 29 29 33 34 32 32 31 31 32 31 31 30 29 27 25 22 21
40 39 37 38 39 37 37 34 36 39 31 28 27 25 26 28 31 31 32 32 34 35 35 35 35 34 34 34 33 32 29 27 29 29 34 33 30 29 31 32 32 31 30 30 31 31 30 29 28 27 26 24 22 21
40 37 37 39 36 38 34 36 36 36 31 30 28 26 28 28 29 29 29 30 34 33 35 35 34 33 33 34 30 29 28 28 32 31 32 31 30 30 30 30 30 30 29 29 29 29 28 27 26 25 24 22 21 20
38 37 35 35 37 33 34 33 33 27 27 25 26 30 29 28 27 28 26 27 30 32 32 32 31 32 32 31 29 32 31 31 29 30 30 30 29 28 28 29 29 29 28 28 28 27 26 25 24 22 21 20 18 17
35 37 36 36 36 30 30 32 28 25 24 26 25 27 27 27 26 26 28 29 29 30 31 30 30 29 29 28 31 30 29 30 30 29 28 28 28 27 28 28 28 28 28 28 27 27 25 24 23 22 20 19 18 16
36 38 37 37 32 27 25 28 29 22 23 25 25 26 25 25 26 26 26 28 29 29 31 30 28 29 30 29 27 28 27 27 27 28 28 28 27 26 27 28 27 27 27 28 27 26 25 24 22 21 19 17 16 15
37 39 37 35 30 25 21 24 27 24 21 24 23 23 23 23 23 23 25 27 29 28 27 26 29 27 26 25 27 26 27 27 27 27 28 29 28 27 27 27 27 27 27 27 26 24 21 20 20 19 18 16 15 15
35 35 33 30 28 27 24 23 22 22 22 21 23 22 21 21 22 22 24 28 27 24 24 28 27 25 24 24 24 25 25 25 26 27 27 27 29 29 27 26 26 26 25 25 24 22 21 19 19 19 19 17 16 14
33 30 25 25 23 22 23 24 23 22 21 20 20 19 19 20 21 21 23 23 24 25 26 24 23 21 17 16 17 18 20 23 25 26 27 28 28 29 28 26 26 25 25 25 24 23 20 18 19 19 16 14 13 14
29 24 22 22 17 16 15 20 20 20 17 17 17 17 17 19 21 21 20 22 23 24 22 21 20 17 15 16 18 19 21 22 22 23 24 25 26 28 28 27 26 26 26 25 25 21 19 19 18 15 15 14 14 15
22 22 19 17 16 10 13 15 15 17 17 15 14 9 14 17 19 20 18 21 23 22 21 18 14 13 13 15 14 13 15 18 18 19 22 22 24 25 28 28 26 26 26 24 22 21 19 17 17 15 13 14 14 10
23 20 16 11 12 8 9 10 12 13 11 13 12 9 13 17 15 16 16 19 20 20 20 17 14 13 12 11 12 13 14 15 15 17 18 20 21 24 25 26 27 26 24 23 20 20 19 17 15 15 16 14 10 9
20 18 12 12 9 8 6 3 7 10 12 10 11 12 14 16 12 5 13 19 19 19 19 17 15 13 11 11 11 12 12 13 14 14 16 18 21 22 23 23 23 23 25 23 21 20 18 17 16 17 15 14 12 9
19 17 11 9 8 7 6 8 9 10 7 3 7 11 13 6 6 11 15 16 17 18 18 17 14 13 12 12 12 12 13 13 14 15 16 17 19 20 22 23 23 26 26 26 22 20 18 17 16 18 17 16 13 10
20 14 8 9 10 10 5 6 6 3 4 8 12 6 5 5 0 13 17 17 18 14 13 13 12 12 12 12 13 12 13 14 15 17 18 19 20 21 23 26 28 28 26 27 24 20 18 17 19 20 18 15 14 14
18 14 13 10 11 9 7 3 2 7 8 11 9 8 9 12 14 14 13 12 11 10 10 11 12 13 12 12 12 13 13 14 14 13 13 13 16 20 24 25 26 27 26 26 25 21 21 22 22 19 17 16 15 15
18 16 12 10 8 6 10 10 10 10 11 12 11 12 12 13 14 12 10 9 9 10 12 12 11 10 11 11 11 12 14 16 16 16 14 14 16 22 23 24 25 25 25 25 24 25 25 23 20 16 14 13 13 12
15 14 12 11 11 9 6 5 8 9 10 11 9 11 12 11 11 11 9 9 10 10 10 11 12 13 12 11 12 11 11 13 17 18 19 19 20 22 23 24 25 25 24 24 23 20 17 15 14 12 10 10 11 8
15 14 13 12 11 5 6 8 9 10 9 8 10 6 8 9 9 13 9 9 10 11 12 13 11 11 13 14 14 14 14 15 16 17 19 20 21 22 23 23 24 23 21 18 17 15 15 14 13 12 12 11 9 7
9 9 8 8 8 7 6 7 8 8 7 8 8 6 7 8 8 11 8 9 11 11 11 12 13 14 16 18 18 18 18 18 18 19 21 22 22 22 22 22 21 20 18 17 16 16 15 14 13 12 10 8 8 8

GFSWCAN_sfc_30mbdewp_018.txt.gz
Dewpoint
39 39 39 37 37 39 41 39 38 38 37 36 36 36 34 34 34 36 36 40 36 34 35 38 39 37 34 34 32 38 38 38 37 35 32 32 32 31 30 30 31 30 29 29 30 28 25 33 33 32 35 36 35 35
40 38 39 38 37 39 41 39 35 38 38 36 37 35 35 34 33 34 32 38 39 35 35 39 39 40 43 42 39 39 39 37 39 35 36 36 33 35 32 28 33 28 30 31 30 30 32 35 35 36 36 35 35 35
40 38 38 38 37 38 40 37 34 35 37 36 36 36 34 33 35 32 34 36 37 35 36 39 42 44 44 44 45 38 41 41 40 43 39 38 34 37 33 31 33 31 32 33 32 33 34 35 36 35 35 34 35 37
40 40 39 39 38 38 39 41 37 34 37 36 35 35 33 33 36 33 34 35 36 33 28 39 44 43 46 46 44 45 43 45 45 43 39 36 35 38 36 35 35 35 36 34 34 35 35 35 34 34 34 35 36 33
41 41 39 39 37 38 39 41 38 36 34 36 37 37 36 36 37 35 36 36 37 32 30 35 42 45 46 45 44 44 44 43 43 41 39 37 38 37 37 36 33 34 34 34 33 35 35 34 34 35 33 33 32 31
41 40 39 39 37 38 39 41 40 37 36 36 36 36 34 34 34 35 29 40 41 37 31 32 44 43 44 45 44 43 43 44 43 41 39 40 40 38 35 33 34 33 34 35 34 35 35 35 34 34 32 32 31 30
40 40 40 39 38 37 39 41 38 35 36 37 36 36 36 35 36 32 28 37 40 40 32 32 39 44 44 44 44 44 45 44 43 42 40 39 39 40 38 34 34 34 34 36 37 36 35 34 34 33 32 31 30 28
40 39 40 40 38 37 39 41 37 37 37 36 36 36 38 39 38 35 36 38 39 35 36 33 37 40 44 41 40 44 42 43 43 41 41 39 40 40 35 37 37 37 37 37 37 36 35 34 33 32 30 29 28 27
40 39 40 39 39 37 38 41 38 36 36 36 35 37 39 36 31 36 41 40 40 36 31 37 33 34 43 42 42 42 43 38 43 39 39 40 38 35 38 38 38 39 39 38 36 35 34 33 33 31 29 28 27 26
40 40 39 39 40 37 39 40 37 37 36 35 36 33 30 34 39 40 37 33 33 35 36 35 38 36 41 40 39 40 41 38 35 38 40 37 35 38 39 39 36 37 40 37 36 34 34 33 32 31 30 29 27 26
40 40 39 40 40 37 39 39 37 36 34 34 31 30 35 39 38 35 31 30 32 33 38 39 38 36 41 36 37 39 37 37 33 34 33 34 34 36 34 31 31 33 35 37 37 37 36 34 33 32 31 29 27 25
40 40 40 41 40 37 40 38 37 35 33 34 33 37 36 33 32 30 30 32 33 33 37 37 37 38 40 41 37 37 35 35 30 34 32 31 35 32 28 29 32 34 34 36 37 35 35 34 33 32 31 28 26 24
40 40 40 41 39 38 40 37 37 35 38 36 33 30 30 32 27 27 27 31 31 33 34 36 36 38 39 39 37 35 32 31 33 31 29 32 32 29 29 32 33 34 33 33 33 33 34 35 33 32 29 26 23 21
40 40 41 41 38 38 38 37 35 37 36 28 26 25 27 26 26 28 29 30 32 33 34 36 36 36 36 36 36 31 33 32 28 27 28 33 31 30 31 31 32 32 31 31 32 32 33 33 31 29 28 27 22 19
41 41 41 41 37 39 37 37 35 37 29 27 26 24 26 29 31 31 32 32 34 35 35 36 35 35 34 34 33 32 29 26 27 29 32 31 31 30 29 29 30 30 29 30 31 31 31 31 30 29 26 23 21 20
41 41 39 38 38 37 36 35 36 35 29 27 27 26 28 28 28 28 30 31 33 32 35 35 34 33 33 33 30 28 28 27 31 28 30 31 29 29 28 28 29 29 28 29 29 30 29 28 27 26 23 22 21 20
40 37 38 37 37 35 34 34 33 28 26 25 24 28 30 28 28 28 27 28 29 33 31 32 31 31 33 30 28 32 29 30 28 29 30 29 28 28 27 28 29 28 28 28 28 28 27 27 25 22 21 21 19 18
38 38 38 35 37 31 31 33 29 25 24 25 24 26 27 27 27 26 28 28 29 31 31 29 30 29 29 29 29 28 28 29 29 28 28 28 29 27 27 27 28 28 28 28 27 26 25 24 23 22 20 19 18 16
38 37 37 38 33 29 27 29 29 23 24 24 25 25 26 26 26 26 26 28 29 29 29 30 28 28 29 28 27 27 27 27 27 27 27 28 28 27 27 27 28 27 27 28 27 26 25 25 22 21 19 17 16 15
38 38 39 38 31 25 22 25 28 25 22 24 24 23 23 24 23 24 24 26 28 27 26 25 27 29 27 27 27 27 26 26 25 25 25 27 28 28 29 28 26 27 27 27 27 24 22 21 21 20 19 17 16 16
38 38 37 34 28 27 25 24 23 24 24 22 23 22 22 22 22 22 23 26 25 24 21 25 27 26 25 24 24 23 23 23 22 23 23 24 27 27 28 28 26 26 26 26 25 23 22 20 20 19 19 17 16 15
34 34 30 30 26 24 24 25 24 23 22 22 21 20 19 19 20 21 23 22 23 24 26 26 24 23 20 17 17 17 18 19 22 24 24 23 24 25 25 27 27 26 25 25 25 23 22 20 19 19 17 16 15 16
33 31 28 24 22 19 17 22 20 21 18 18 17 16 17 18 20 21 18 21 22 25 24 23 21 17 14 15 16 17 18 20 19 20 21 21 22 23 24 26 27 27 26 26 26 24 20 20 21 16 16 15 17 18
30 28 24 22 21 15 16 17 17 18 18 15 15 9 15 17 19 18 16 20 23 23 22 19 15 13 14 15 14 14 15 15 16 18 18 19 21 21 22 23 25 27 27 27 25 22 20 20 18 16 15 16 17 15
25 22 22 18 16 11 10 12 14 15 11 15 12 9 12 16 13 14 13 16 21 20 22 20 16 14 13 13 12 12 15 14 13 14 16 17 17 18 19 21 24 26 28 27 25 23 20 19 18 16 16 17 15 11
21 20 18 17 10 9 8 7 9 9 12 9 12 12 14 15 9 2 10 16 18 20 21 20 18 15 15 15 13 12 13 14 14 13 13 14 15 17 19 19 19 21 27 27 26 24 23 20 17 17 17 17 15 12
20 18 16 13 11 9 7 8 11 10 8 5 10 10 11 0 -2 5 15 17 18 20 21 21 19 17 15 14 14 14 13 13 13 13 14 15 15 16 16 16 16 18 24 26 27 26 23 22 19 18 17 17 17 14
21 14 11 9 9 11 5 5 4 2 6 11 10 5 3 -0 -3 10 16 18 18 17 16 15 14 13 12 11 12 13 13 13 13 13 14 15 16 17 17 18 20 21 24 27 27 27 25 23 22 20 19 19 18 16
18 16 13 10 10 7 6 2 2 8 9 11 5 3 7 13 15 13 12 12 12 12 10 10 10 12 12 12 12 12 12 12 11 10 10 10 11 12 18 21 23 24 27 27 28 27 25 24 23 22 21 19 18 17
19 16 12 9 7 6 9 11 11 10 11 13 12 11 12 12 13 14 12 10 9 8 9 10 11 11 10 10 10 10 12 13 14 13 11 11 12 15 21 22 23 24 26 26 26 26 27 25 25 21 18 17 17 16
18 16 13 11 10 10 7 6 9 10 11 10 10 10 11 10 9 12 10 10 10 10 9 9 10 11 11 11 11 10 10 10 12 14 16 17 18 18 19 20 22 25 25 25 24 24 24 19 16 15 15 15 14 11
16 15 13 12 10 6 7 8 10 10 10 8 9 7 7 9 7 10 9 8 9 9 12 12 11 10 11 13 14 14 16 16 15 15 14 15 16 18 20 22 24 25 24 23 20 17 16 15 15 14 14 12 11 11
11 10 10 9 8 8 7 8 8 7 7 7 8 7 7 8 6 9 8 9 10 11 11 11 11 12 14 15 17 18 19 20 20 20 20 21 21 21 22 23 22 21 19 17 17 16 16 15 14 13 12 12 12 12

GFSWCAN_sfc_30mbdewp_021.txt.gz
Dewpoint
40 40 40 40 39 38 38 40 40 36 37 38 36 37 36 36 35 34 33 39 32 33 34 35 37 38 41 35 32 38 37 38 37 35 33 32 31 31 31 32 32 31 30 29 31 28 23 30 34 33 33 36 35 36
40 41 40 39 39 39 38 39 41 36 34 36 38 36 36 34 35 35 31 36 38 34 31 37 35 35 37 40 41 39 38 37 37 35 34 34 31 34 32 28 32 30 30 30 30 28 29 34 34 36 35 35 35 36
41 41 40 39 39 40 38 39 40 39 36 36 38 35 36 35 35 35 33 34 35 32 31 35 34 40 40 40 44 39 40 41 41 41 37 36 34 34 30 32 33 33 33 32 32 32 33 35 35 35 34 34 35 37
41 40 42 40 40 40 38 38 40 42 38 36 34 36 37 37 36 35 34 34 34 32 26 31 41 43 46 45 44 45 43 45 43 42 38 37 34 37 32 35 35 35 35 34 34 35 35 34 34 34 34 36 33 34
41 41 41 41 42 40 38 38 39 41 40 36 37 36 37 37 36 35 36 35 36 30 27 30 35 43 46 44 43 44 43 42 42 39 39 35 37 37 36 35 34 34 32 32 32 35 35 35 34 34 33 33 32 32
42 41 41 42 42 41 38 38 39 41 38 35 36 38 36 37 39 38 30 40 41 36 29 27 41 43 45 44 43 43 44 44 43 40 40 40 41 38 35 33 34 34 34 34 33 35 35 35 34 34 32 32 31 30
42 40 40 41 42 41 40 38 39 41 38 36 37 36 36 37 37 33 27 37 40 38 30 28 35 44 44 44 44 44 44 43 42 41 40 39 39 39 37 32 34 35 37 37 37 36 35 34 34 32 31 31 30 28
42 41 39 40 41 41 40 38 39 40 36 37 36 36 37 39 37 35 36 40 38 33 31 28 35 40 44 42 40 44 42 43 43 41 41 39 39 39 34 37 38 39 39 38 38 37 36 35 33 31 30 28 27 26
42 40 40 40 40 41 40 38 39 38 37 36 36 38 38 36 31 36 40 39 38 33 28 31 33 33 44 41 42 42 42 37 41 38 38 39 37 35 37 38 38 35 36 38 36 35 34 33 32 30 29 28 27 25
42 40 40 40 40 42 39 38 40 38 35 35 36 32 31 34 39 40 37 32 32 32 32 31 39 35 40 40 39 39 41 38 35 38 40 36 36 38 31 29 29 30 32 35 36 36 34 33 32 30 29 28 27 25
42 41 40 40 40 42 39 39 39 37 35 33 31 29 34 38 38 35 30 29 32 31 36 38 37 36 40 37 37 39 36 37 32 34 34 34 34 30 30 29 31 33 34 34 35 36 37 35 34 32 30 28 27 27
43 41 40 39 41 41 38 39 38 35 33 33 35 36 36 33 32 29 29 32 32 32 37 37 37 39 38 40 37 38 34 35 30 34 32 28 33 30 30 30 31 33 33 33 34 36 36 35 34 32 30 28 26 24
43 41 40 40 41 41 38 40 38 35 37 37 34 29 30 32 27 26 26 30 31 32 34 36 35 37 38 38 36 34 32 31 33 31 29 31 30 30 30 30 30 31 31 32 33 34 34 35 34 32 29 26 24 23
42 40 41 40 41 39 38 39 37 35 35 28 26 24 26 25 25 27 29 30 32 33 33 35 36 36 36 35 35 30 32 32 27 26 27 30 29 30 29 29 29 30 30 31 32 32 34 34 33 31 28 25 24 26
42 41 41 41 41 38 39 38 34 36 30 26 26 22 25 29 31 31 32 32 34 35 34 35 35 35 34 33 33 33 29 26 26 27 29 29 29 29 28 28 28 29 29 29 31 30 32 33 32 31 30 29 28 21
42 42 41 40 39 39 37 35 35 35 29 27 27 25 27 27 28 29 29 31 33 32 35 34 34 32 32 31 30 27 26 25 29 27 29 29 28 28 27 27 28 29 28 28 28 29 29 29 30 28 24 22 20 19
43 39 38 39 38 36 34 33 33 28 25 24 24 27 28 29 28 27 27 29 30 33 32 32 30 30 33 30 28 29 28 28 28 29 28 27 28 28 27 27 28 28 28 28 28 28 28 27 24 22 21 21 20 19
39 39 39 37 36 32 32 32 29 26 24 25 24 26 28 28 27 26 28 28 29 31 31 30 30 29 29 29 28 28 28 28 28 28 27 27 27 28 27 28 28 27 27 27 27 26 26 25 23 22 21 20 19 17
39 39 39 38 35 29 25 28 28 23 23 25 25 25 26 26 27 26 26 27 28 29 29 29 28 27 28 29 28 28 27 27 26 25 25 26 27 27 27 28 28 27 26 27 27 26 25 25 23 21 19 18 17 16
40 39 39 39 32 24 20 24 27 24 21 22 25 24 24 24 24 23 23 24 27 25 24 24 26 29 29 27 28 27 26 26 25 22 20 25 25 25 26 27 27 26 26 26 26 26 23 22 21 20 19 17 16 16
39 39 37 35 30 27 24 23 22 24 24 21 24 23 21 21 21 21 21 24 23 23 17 22 25 26 25 25 24 23 22 23 19 20 19 19 23 24 25 25 26 26 26 26 25 25 25 22 21 20 20 18 17 17
35 35 31 32 26 23 22 25 23 24 21 21 21 21 19 18 19 19 22 21 21 21 23 25 25 25 24 19 17 19 16 17 18 21 23 23 21 21 21 22 24 24 25 25 26 25 25 23 21 20 19 17 17 17
34 32 29 27 23 23 19 22 19 21 16 17 17 14 15 18 19 21 17 19 19 21 24 23 22 19 18 16 15 14 16 16 15 15 16 18 18 19 21 22 23 23 23 25 25 26 25 23 22 19 18 17 17 19
32 29 25 24 24 19 18 17 19 19 19 16 14 9 14 17 19 17 14 17 20 22 22 21 18 15 14 15 14 12 13 17 15 15 16 16 15 16 19 19 19 20 21 24 26 26 25 21 22 18 16 16 18 19
26 23 23 19 19 12 8 13 15 16 11 13 12 9 13 15 12 12 11 12 19 21 21 19 17 15 14 13 13 13 14 14 11 11 13 15 16 16 15 16 17 18 22 24 24 25 24 21 21 18 17 18 19 16
22 21 20 17 13 9 8 9 11 12 12 12 12 12 13 13 7 -4 6 11 16 19 20 20 19 18 16 15 14 13 13 14 14 12 12 13 14 13 13 15 16 16 19 21 24 24 24 24 23 20 19 19 19 14
20 18 20 19 12 12 11 10 12 11 9 6 10 10 11 -0 -5 -1 11 16 17 18 19 20 20 18 15 14 15 15 14 12 12 12 12 13 14 15 14 13 13 13 15 17 19 24 24 23 23 22 22 23 21 15
20 15 16 12 9 11 4 5 5 2 5 11 9 5 0 -4 -6 4 11 16 17 16 16 15 15 16 15 13 11 11 11 11 11 11 12 13 13 14 14 15 16 17 18 19 20 21 25 25 24 23 22 22 21 19
16 14 11 9 11 10 6 2 2 7 11 12 2 -1 3 10 13 12 13 13 12 13 13 13 11 8 10 10 10 11 11 11 11 10 10 9 10 10 11 14 16 17 19 21 22 24 26 25 24 24 23 22 20 19
17 15 11 11 15 16 10 11 11 10 11 12 12 11 11 10 11 12 12 10 9 8 8 7 7 9 9 9 9 9 9 10 11 11 9 9 10 10 11 14 16 17 20 22 23 25 27 29 27 25 20 19 18 18
18 15 11 10 10 10 8 6 8 10 9 9 8 9 8 9 8 9 11 9 8 7 9 9 8 7 9 10 9 10 10 10 10 11 12 13 14 15 15 16 16 18 19 21 23 25 26 24 20 18 17 17 17 16
16 14 13 12 10 7 7 8 8 8 9 7 7 6 6 7 6 7 8 8 8 8 10 9 10 11 9 10 10 11 15 16 16 16 15 15 14 14 14 15 17 19 20 22 24 23 19 17 17 17 16 16 14 13
11 10 10 10 9 8 7 7 7 7 6 6 6 6 6 6 5 7 8 6 8 9 9 10 10 10 11 13 14 15 16 16 17 21 21 21 21 19 17 18 20 21 21 20 19 18 17 16 15 15 14 13 14 14

GFSWCAN_sfc_30mbdewp_024.txt.gz
Dewpoint
41 40 40 40 39 41 41 40 40 43 38 35 35 38 37 37 35 34 32 37 33 30 30 31 36 36 39 37 34 37 36 38 37 33 32 31 29 31 31 32 32 31 30 29 31 28 23 31 36 33 33 35 36 35
43 41 41 40 40 40 41 39 40 40 42 37 36 38 35 36 36 36 31 34 38 33 28 34 32 32 32 38 41 40 35 37 36 34 34 34 31 33 32 27 33 31 31 29 31 28 30 31 34 35 35 35 34 35
42 41 42 41 41 40 41 39 39 39 41 40 38 35 34 36 38 37 34 34 34 30 27 28 26 28 31 30 33 40 41 40 40 39 36 36 32 33 29 30 32 34 33 33 33 33 33 34 35 34 34 33 35 36
43 43 42 42 41 41 42 41 38 39 40 42 38 35 36 36 37 38 35 35 34 29 25 24 35 34 37 41 39 42 44 44 42 40 36 36 32 37 31 33 35 35 35 34 33 34 35 35 34 34 34 35 34 35
43 44 42 42 42 43 43 42 38 39 40 41 38 36 37 38 37 38 36 36 35 27 24 25 26 26 34 42 43 45 44 42 41 39 37 35 36 36 36 35 33 34 33 31 29 33 35 36 35 35 34 34 32 33
43 43 42 42 43 42 43 42 39 39 39 41 37 38 36 36 38 37 31 39 38 35 27 23 34 35 44 45 44 43 43 43 42 39 39 40 41 36 35 33 33 35 35 35 34 35 36 36 35 34 33 32 32 31
43 43 42 42 42 43 42 41 40 39 40 40 36 37 36 37 39 34 26 36 40 37 30 26 28 38 44 44 44 44 44 43 42 40 39 39 39 39 37 33 33 38 41 41 39 38 36 35 35 33 32 32 31 29
44 43 42 42 42 41 41 42 39 39 41 38 37 36 37 39 38 35 37 39 38 33 30 26 28 40 44 41 40 44 42 42 42 40 41 39 39 39 35 36 37 35 31 36 34 36 37 35 33 32 31 29 28 27
43 42 43 42 41 40 40 41 39 40 39 36 37 38 38 35 31 36 40 40 38 33 27 29 29 32 43 41 42 42 42 37 41 38 38 39 36 34 32 28 28 29 30 31 33 35 34 34 33 31 29 28 27 25
43 43 43 42 41 39 41 41 39 40 37 36 34 32 32 35 39 40 37 32 31 31 30 27 36 36 41 39 39 38 40 37 34 38 40 37 35 33 30 30 30 31 33 33 33 32 34 33 32 31 29 28 27 26
44 44 42 40 40 40 42 39 40 38 34 32 30 29 34 38 37 34 30 28 30 28 31 33 38 37 41 37 37 40 36 36 32 34 35 33 34 29 30 29 30 31 32 33 33 34 35 36 36 33 30 29 27 26
45 44 42 42 40 41 41 38 40 35 32 31 33 37 36 33 31 28 28 31 30 31 36 36 37 38 39 40 37 37 34 34 30 34 32 29 32 30 30 29 29 29 30 32 33 33 34 37 36 34 31 29 27 27
45 44 43 41 40 42 40 38 39 37 37 37 34 29 29 31 25 26 25 29 31 32 33 35 35 37 38 38 36 34 31 31 33 31 28 30 29 29 29 29 29 29 30 31 33 33 34 35 34 33 31 28 27 23
45 44 42 41 41 41 39 39 38 35 34 28 26 24 25 26 27 27 28 30 32 33 33 35 35 35 35 34 34 29 32 31 28 26 26 29 29 28 28 28 28 28 29 30 33 32 33 35 33 31 28 25 24 23
45 44 42 42 42 41 39 39 35 36 30 26 27 21 25 28 30 31 32 31 34 34 34 35 35 35 33 32 33 32 29 26 26 25 29 28 28 28 28 27 27 28 28 28 29 32 30 33 33 33 32 30 28 28
45 43 42 42 41 40 39 35 35 35 29 26 27 24 26 26 27 29 29 29 34 33 34 34 33 32 32 31 30 28 25 24 27 28 28 28 27 28 28 27 28 28 28 28 28 28 29 29 31 33 32 32 30 27
44 39 42 40 39 36 35 32 33 28 26 25 24 27 27 28 28 27 28 29 30 32 31 32 30 28 32 30 29 29 28 29 29 29 28 27 27 27 27 28 28 28 27 27 27 27 26 27 25 25 25 24 26 26
39 40 40 38 35 32 32 32 28 26 24 24 23 24 28 29 28 27 27 28 29 31 31 30 30 29 29 28 28 29 29 29 28 28 27 26 26 27 27 27 28 28 27 26 27 27 26 25 24 23 22 21 20 19
39 40 40 38 35 29 24 27 28 21 22 24 26 27 26 27 27 26 26 26 28 29 29 29 28 27 28 30 29 28 29 28 25 25 24 24 26 25 25 26 27 26 26 26 26 26 26 25 24 23 21 19 18 17
41 41 41 39 32 25 20 23 27 23 19 22 25 24 24 25 24 23 23 24 26 24 23 24 27 29 29 28 27 27 27 26 23 17 15 21 22 23 23 24 24 25 25 25 26 27 24 23 23 21 20 19 17 17
39 40 39 36 32 26 22 22 21 22 23 21 23 23 21 22 21 20 20 23 23 21 16 20 22 26 26 26 25 24 24 23 18 14 11 13 20 22 22 22 21 23 24 24 25 25 26 25 24 22 20 20 18 17
35 37 32 32 28 24 21 24 21 23 20 20 21 21 18 17 19 19 20 21 20 19 21 21 23 25 24 23 21 20 17 19 18 18 21 22 18 17 17 18 19 21 22 23 24 24 24 25 25 22 20 19 19 17
34 33 30 28 25 23 21 22 17 19 16 16 17 15 14 16 19 21 17 19 19 20 22 24 23 21 23 18 18 17 16 14 13 15 15 16 17 17 17 17 19 19 18 18 20 21 23 25 26 24 20 19 17 17
34 30 27 25 25 20 19 15 20 19 19 17 14 9 12 16 19 16 12 14 18 21 22 22 20 19 16 14 11 9 11 15 13 14 15 13 10 11 14 15 16 17 17 18 19 21 23 24 26 23 19 18 17 18
27 24 25 20 18 15 9 13 15 16 13 14 16 15 13 16 13 11 10 12 15 21 21 20 19 19 19 15 13 13 15 14 12 10 11 12 12 13 14 14 14 15 16 17 20 21 22 23 23 22 18 18 19 20
22 22 20 18 15 13 8 7 11 12 14 15 16 13 13 12 7 -3 3 11 14 19 21 21 21 19 18 16 15 14 13 15 14 12 12 13 13 12 11 11 12 13 16 18 17 17 18 21 23 22 20 20 23 22
21 18 20 18 14 12 11 12 13 13 14 16 13 10 10 0 -4 -0 7 12 15 17 18 20 20 18 14 14 16 16 14 13 13 12 11 12 13 13 13 12 12 13 14 14 14 15 16 18 20 22 22 22 23 23
23 18 17 15 10 12 6 8 9 10 14 14 11 6 1 -2 -5 1 7 15 15 15 15 15 16 17 17 16 14 13 11 10 10 10 10 11 12 12 13 14 14 15 16 16 17 17 17 17 19 22 22 22 22 23
17 14 12 9 7 6 5 9 13 10 11 12 6 1 2 8 9 11 13 14 11 14 14 14 13 9 9 9 9 9 10 10 11 11 11 10 9 9 9 10 11 13 14 16 18 21 23 22 22 23 23 23 23 21
14 14 11 11 12 11 14 10 9 12 13 13 12 11 11 10 11 10 11 10 11 9 9 9 8 9 8 8 8 9 8 8 9 10 10 10 9 9 9 10 11 12 13 16 17 18 19 23 25 28 25 21 20 19
16 13 12 13 15 12 9 8 9 10 9 9 8 9 7 7 7 8 10 10 9 6 7 8 7 6 8 8 9 9 10 9 8 9 10 11 12 12 13 13 13 14 14 15 16 18 19 21 24 20 18 18 18 18
15 13 11 11 9 8 8 8 8 7 8 7 7 6 6 7 6 7 6 7 8 9 10 9 7 9 8 8 8 9 14 14 14 14 15 15 15 15 15 15 14 14 14 15 17 19 21 20 18 18 17 17 17 16
12 11 10 9 9 9 8 8 7 7 6 6 6 6 5 6 7 7 6 5 7 8 7 8 9 9 9 10 12 13 15 13 13 17 18 20 21 23 18 16 15 15 16 17 19 20 19 18 17 17 17 15 15 14

GFSWCAN_sfc_30mbdewp_027.txt.gz
Dewpoint
43 43 42 41 41 40 39 40 40 39 41 43 39 37 39 37 36 35 32 36 30 27 27 28 34 32 35 38 33 35 36 37 36 32 30 30 29 31 30 32 31 31 29 29 30 28 23 33 37 33 33 35 36 35
44 44 42 41 42 40 38 41 41 40 40 41 42 39 36 35 36 37 32 36 37 32 25 30 28 28 30 34 34 37 35 36 36 33 33 33 32 33 30 28 33 31 31 30 30 29 30 33 33 35 35 35 34 34
45 45 43 44 42 41 41 41 43 39 39 40 42 41 36 35 36 37 35 35 34 32 28 28 25 26 29 29 28 33 40 40 38 37 34 34 31 32 29 30 31 33 34 32 33 34 33 34 35 35 34 34 34 36
44 44 44 43 43 42 42 43 43 42 38 40 41 41 37 35 36 38 37 36 36 33 24 21 27 29 34 30 32 29 33 43 42 39 35 34 31 35 31 31 33 34 35 34 33 33 34 35 35 35 34 35 34 35
45 43 44 43 43 43 42 43 43 42 40 39 40 41 37 38 37 38 38 37 37 33 23 23 26 23 23 22 32 39 35 39 41 38 37 35 36 35 36 35 32 34 32 31 30 33 34 34 36 35 34 34 33 33
46 45 44 44 42 42 42 43 43 42 39 39 41 40 37 37 37 36 32 37 37 36 30 21 26 30 35 31 40 41 41 43 41 38 37 39 40 35 33 33 34 35 35 37 37 39 39 37 36 35 34 33 32 33
46 45 43 43 43 43 42 42 42 42 39 40 40 38 37 37 39 33 27 32 39 36 29 24 26 33 33 41 43 44 45 43 41 40 39 38 39 38 36 32 33 39 38 36 37 35 37 37 36 35 33 32 33 31
45 44 44 43 43 42 42 42 41 40 40 41 39 37 38 38 38 35 38 38 38 34 31 24 25 32 41 39 40 44 42 41 41 40 40 38 40 39 34 35 30 29 30 30 32 33 33 35 35 33 32 30 29 29
45 44 43 43 43 43 41 40 42 40 41 39 37 39 38 35 31 34 40 39 38 33 26 28 26 31 44 41 42 41 41 37 41 38 38 38 36 34 32 28 29 30 30 31 33 33 34 34 34 32 30 29 28 27
45 44 42 43 43 42 41 41 41 40 39 35 35 33 30 33 39 41 36 32 31 31 29 25 31 33 41 39 38 38 38 36 32 36 40 35 36 31 29 29 30 30 31 31 31 31 32 33 33 33 31 30 28 27
45 44 43 44 43 42 40 41 39 39 32 31 30 29 33 37 36 33 30 27 29 27 30 30 34 37 41 36 37 39 36 36 32 34 35 34 33 29 30 29 29 29 30 30 31 32 33 33 34 34 34 31 29 27
46 45 45 44 42 42 40 41 40 37 34 31 32 36 36 33 31 28 28 30 29 30 35 33 36 38 40 40 36 37 33 33 29 35 32 29 31 29 28 28 29 29 29 30 32 33 33 34 35 36 35 33 29 27
46 45 44 44 43 41 41 40 40 38 37 36 34 30 29 29 24 24 24 29 30 32 33 33 35 37 38 37 35 34 31 31 33 31 29 29 29 28 28 28 28 28 29 29 32 34 33 35 33 34 33 30 28 28
45 45 45 44 42 42 41 39 39 34 33 27 25 22 24 24 26 27 28 28 32 33 33 33 35 35 35 34 34 29 32 32 29 26 26 29 28 28 28 28 27 27 28 28 29 32 32 34 34 31 28 27 25 24
46 45 45 43 42 42 41 40 35 35 31 25 26 20 23 27 29 31 31 30 33 34 33 33 35 35 33 32 32 32 29 26 26 25 29 28 28 28 28 27 28 27 27 27 28 28 28 30 33 34 32 30 28 24
46 45 44 43 42 42 40 36 34 34 30 26 26 23 25 26 26 29 29 29 33 33 34 33 32 32 32 31 30 28 25 24 25 28 29 27 27 27 27 27 28 28 27 27 27 27 26 27 27 31 33 33 31 30
45 40 43 43 42 39 35 31 32 29 26 24 23 27 27 26 26 28 28 30 30 32 31 31 30 28 32 30 29 30 28 28 28 29 28 27 26 27 27 26 27 28 27 27 26 27 27 26 25 25 28 29 31 31
39 40 43 41 35 33 32 31 27 26 22 24 22 24 27 29 28 28 27 28 29 30 30 30 30 29 28 27 27 29 29 29 29 28 27 26 25 26 25 25 26 26 26 26 26 26 26 26 25 24 23 22 24 26
39 42 42 38 36 29 25 26 28 19 20 23 25 27 27 28 28 27 27 26 27 29 28 28 27 27 28 29 30 28 28 29 28 27 25 23 25 25 23 24 24 23 24 24 25 26 26 25 24 24 23 21 20 19
41 42 41 38 33 26 22 22 26 22 16 21 24 24 25 25 25 24 24 25 26 24 23 24 26 29 29 28 28 28 28 26 24 20 15 20 23 22 21 22 20 20 23 23 24 26 26 25 25 24 22 20 19 18
39 41 39 36 33 28 21 18 19 19 21 21 22 23 22 22 22 21 21 23 25 22 19 19 21 25 27 26 26 27 26 24 20 11 5 7 16 20 21 20 18 18 21 22 22 21 23 23 23 25 23 21 21 19
36 37 33 33 29 27 25 21 19 22 20 18 20 21 19 18 18 19 19 21 20 20 20 18 17 20 25 25 24 22 22 21 18 17 20 21 15 12 13 15 15 14 17 18 18 18 20 20 21 26 25 22 21 19
35 34 31 29 26 24 22 22 19 18 13 15 16 15 14 14 17 21 17 18 18 21 21 21 22 21 24 21 20 19 18 16 12 12 14 15 15 16 15 14 14 14 14 15 16 17 17 21 23 25 25 22 20 18
34 31 27 26 26 22 19 17 18 18 18 17 15 9 11 14 18 15 12 12 15 19 20 21 21 21 18 17 17 16 14 15 12 13 14 12 10 10 12 13 14 15 15 16 16 16 19 21 23 23 24 21 18 18
27 25 25 21 18 17 15 13 14 15 12 14 16 17 15 15 13 11 9 11 16 17 20 21 20 20 22 20 16 13 13 13 10 7 11 14 12 11 10 11 11 12 14 13 13 15 19 20 19 21 23 21 19 18
22 24 22 19 16 16 13 8 10 11 13 13 16 15 13 12 7 1 3 10 12 15 20 21 22 21 20 18 18 15 14 15 14 10 10 12 12 11 9 9 9 11 14 14 14 15 15 15 16 17 19 21 23 22
20 21 21 19 16 13 10 12 13 13 14 15 16 14 11 3 -1 1 7 10 12 16 19 21 22 22 19 19 17 17 14 14 14 12 12 12 13 13 12 11 11 12 13 13 14 14 13 13 14 16 17 20 21 22
22 20 18 17 12 11 7 9 9 10 14 19 13 7 7 6 -3 4 6 13 15 14 14 15 17 18 17 15 14 15 13 10 11 10 10 10 10 11 12 13 14 15 16 16 16 15 15 15 15 16 16 18 20 22
21 18 16 15 9 9 6 5 6 11 15 15 10 5 5 9 10 10 13 14 12 15 16 16 15 9 11 9 8 8 8 10 10 8 8 9 9 9 8 9 9 9 10 12 16 18 19 18 18 18 18 19 20 22
17 15 14 11 10 8 7 10 12 14 14 14 12 11 11 11 12 11 11 10 12 13 13 12 10 11 10 10 8 8 7 8 10 11 11 10 9 9 8 9 10 10 10 11 12 13 16 18 19 19 21 22 21 20
15 12 11 12 13 12 10 9 10 10 9 9 8 9 8 8 7 9 9 10 10 7 7 7 6 5 7 6 7 8 10 8 7 8 8 9 10 11 12 12 12 12 12 12 12 13 14 14 16 18 20 20 19 19
14 12 12 12 11 8 8 9 8 7 7 7 7 6 7 7 6 8 6 7 7 8 10 10 8 8 6 6 7 8 13 13 13 12 12 13 13 13 14 15 16 15 14 13 13 13 14 15 16 17 18 18 18 17
13 11 10 9 8 9 8 11 10 11 6 7 6 6 6 6 8 8 4 4 7 8 7 8 8 8 9 9 10 11 14 12 11 16 18 20 20 19 20 23 17 15 14 14 14 14 15 16 17 17 17 17 16 16

GFSWCAN_sfc_30mbdewp_030.txt.gz
Dewpoint
44 43 44 43 42 42 42 39 41 41 40 39 40 43 39 38 36 37 33 35 29 25 25 25 29 29 29 35 33 35 36 36 35 31 30 29 28 30 30 31 31 29 28 28 28 26 22 32 35 33 33 34 35 35
45 44 44 45 43 43 41 40 41 42 42 40 41 41 44 38 36 38 34 36 37 30 27 29 28 28 27 27 28 34 36 34 34 31 32 31 31 31 30 28 32 29 30 29 28 27 30 32 34 35 35 35 34 34
45 44 44 45 44 43 42 42 41 43 43 39 38 39 44 38 37 36 36 36 35 32 30 30 28 29 30 28 27 27 37 40 37 37 34 33 30 32 29 30 30 33 34 33 33 33 33 34 34 35 35 34 34 35
44 44 44 44 44 43 42 42 43 44 43 42 39 38 40 40 38 38 38 37 36 33 25 23 26 24 29 30 29 27 27 32 36 40 35 34 30 33 30 30 32 32 35 33 33 34 33 35 36 35 35 34 35 34
45 45 45 44 44 44 43 43 43 42 43 43 38 39 41 40 38 38 38 38 37 33 25 25 29 28 27 27 26 29 28 27 35 39 36 33 35 35 35 34 32 34 31 31 29 33 35 35 37 36 36 36 34 33
45 46 46 45 44 44 43 43 43 42 43 43 39 41 41 38 38 36 31 36 37 38 30 23 25 24 27 27 24 22 28 34 37 40 36 37 37 34 32 30 33 35 35 36 37 39 37 37 38 38 36 35 34 33
46 46 46 46 44 44 43 43 42 43 43 39 41 40 37 38 38 33 28 30 39 37 29 22 23 33 34 31 25 28 36 40 39 40 38 38 39 37 35 31 34 36 31 31 34 35 37 36 35 34 35 33 33 32
46 45 46 45 44 44 43 42 43 43 41 40 39 37 39 39 39 35 37 38 38 34 31 23 23 29 36 33 32 38 36 40 42 39 40 38 39 37 33 34 30 30 30 31 32 33 33 33 34 34 33 32 31 30
47 45 44 44 43 43 43 41 41 43 40 40 36 40 38 35 31 32 40 39 38 33 26 26 24 26 39 34 39 41 42 35 41 36 38 38 35 32 34 33 29 29 29 30 31 31 32 32 33 34 32 31 30 29
46 46 44 43 43 43 42 41 41 40 39 35 34 33 29 33 38 40 37 32 31 31 30 24 30 27 39 38 37 37 38 35 32 34 40 36 33 32 29 29 29 29 30 30 30 30 31 31 32 32 33 32 30 30
46 46 44 43 44 43 42 41 41 40 34 30 28 29 33 36 35 34 29 27 29 26 29 29 30 33 41 36 36 38 34 35 30 33 35 32 31 31 29 29 29 29 29 29 30 31 32 33 32 33 33 34 33 30
46 45 45 45 44 42 42 41 40 38 35 33 32 35 36 33 31 27 26 30 28 28 34 32 34 37 39 40 35 37 33 33 29 37 33 29 31 28 28 28 28 28 28 29 30 33 34 33 35 34 35 35 35 31
46 46 46 45 44 42 42 41 40 38 36 36 34 30 28 29 24 23 23 28 30 31 32 32 32 37 39 38 35 34 32 30 34 32 29 29 28 27 27 28 27 28 28 29 29 31 33 33 35 33 31 32 31 28
46 47 45 44 43 42 42 40 39 35 32 27 25 22 24 23 25 26 27 27 31 32 32 33 33 34 35 34 34 30 32 32 29 26 25 28 27 28 28 28 28 27 27 28 28 30 31 32 34 35 30 28 28 28
44 46 45 45 44 43 41 40 36 34 30 24 25 16 22 25 27 29 31 30 31 34 33 32 34 35 33 32 32 32 29 27 27 25 28 27 28 27 27 27 28 28 27 27 27 28 27 27 28 32 33 31 25 23
44 46 44 43 43 43 40 36 34 33 29 26 25 20 24 25 24 27 28 28 33 32 33 32 31 31 32 31 30 27 25 23 25 28 28 27 27 27 26 26 26 28 27 27 27 27 27 26 25 26 33 33 31 29
45 42 44 44 43 40 36 31 31 28 25 24 21 25 26 25 25 25 28 29 30 31 29 31 28 27 32 29 28 30 28 28 28 28 28 27 26 27 26 24 25 26 26 25 26 26 26 26 26 24 24 24 31 32
40 40 44 43 36 35 32 30 25 24 19 22 20 22 27 28 28 28 28 28 30 29 29 28 28 28 28 27 28 29 29 29 30 28 27 25 24 26 24 23 24 23 22 24 25 26 26 25 24 24 24 22 23 27
39 42 43 38 36 33 29 26 26 18 17 20 23 25 27 27 29 29 27 27 28 30 28 27 25 26 27 28 29 27 27 28 28 27 26 24 24 24 22 23 20 19 22 23 23 25 26 25 24 24 23 22 21 20
42 43 40 37 35 28 24 22 26 21 13 17 22 23 24 25 25 25 25 25 26 26 24 24 24 28 29 29 28 29 28 28 26 25 20 21 23 21 20 21 19 17 20 21 20 22 22 20 21 21 25 25 23 21
40 41 38 37 33 30 26 18 18 18 18 19 20 22 21 22 22 22 22 25 24 24 22 22 22 27 28 27 27 28 27 25 23 21 15 12 17 19 19 19 17 16 18 17 17 16 17 17 19 20 24 25 23 21
37 38 34 34 31 28 26 22 18 20 19 16 17 19 18 18 18 19 20 20 21 22 23 21 18 18 20 25 26 26 26 24 18 16 17 18 13 13 12 14 14 11 12 13 15 14 15 16 19 22 23 25 25 21
36 34 32 30 27 25 21 22 20 17 16 13 14 14 13 14 16 20 17 18 19 21 23 22 20 20 21 22 22 20 21 20 15 13 15 15 13 14 15 14 13 10 10 11 14 15 15 17 21 21 22 23 23 20
34 32 28 25 26 22 20 18 17 17 16 15 15 10 8 11 17 15 12 13 14 20 19 19 20 20 20 20 22 21 18 18 13 12 13 11 7 7 10 10 11 13 13 14 14 15 15 16 21 20 21 22 22 20
27 26 26 22 19 18 17 15 13 14 12 11 14 15 15 14 12 11 10 12 15 15 16 18 20 21 21 21 20 19 16 15 11 7 10 13 10 11 11 12 11 11 12 11 11 12 13 16 18 17 18 18 20 21
21 22 22 20 17 17 16 13 11 10 11 12 13 13 12 11 7 7 5 8 10 12 15 18 19 20 21 20 21 19 17 15 13 9 9 12 13 11 9 10 10 10 12 12 12 12 13 14 14 14 13 14 16 21
18 20 22 20 17 14 11 10 12 12 11 11 14 14 12 12 6 3 7 10 9 15 16 19 21 21 21 21 19 17 14 15 13 12 12 12 13 13 12 11 10 11 13 13 13 13 13 13 13 13 13 14 15 17
22 19 18 18 16 12 9 10 10 9 10 14 15 13 14 13 12 6 5 11 15 14 14 14 16 19 19 16 15 16 14 12 11 11 10 10 9 10 11 12 12 14 16 15 15 15 15 15 14 14 14 14 15 16
21 19 17 16 11 12 11 9 8 9 15 17 15 10 9 10 11 8 11 14 13 15 16 17 17 12 12 11 11 11 11 14 15 14 10 8 7 9 8 9 9 9 9 9 12 15 17 16 15 15 15 15 15 17
19 17 17 14 15 14 15 10 7 12 15 16 14 11 9 9 11 13 12 10 10 9 12 14 14 14 15 15 12 10 8 8 10 10 8 8 10 8 8 9 9 9 9 9 10 10 14 15 15 15 15 17 18 18
17 14 14 13 13 12 10 9 10 10 9 9 8 9 9 9 8 10 9 11 11 10 9 8 9 9 10 8 7 6 7 7 7 8 9 9 9 9 10 11 11 11 11 11 11 11 11 12 12 12 13 15 17 19
14 15 14 13 12 7 7 9 8 7 6 6 6 6 7 7 8 11 8 7 7 7 9 10 8 8 6 6 5 7 13 10 9 9 10 11 11 12 13 13 13 13 13 12 12 12 11 11 11 12 13 14 16 17
15 14 12 11 10 9 8 8 8 10 8 7 7 6 6 7 10 11 6 5 8 9 8 8 9 7 6 6 7 9 13 11 11 15 16 17 19 20 23 19 17 18 15 13 12 12 12 12 13 13 14 16 16 16

GFSWCAN_sfc_30mbdewp_033.txt.gz
Dewpoint
46 45 44 44 45 45 43 42 40 41 42 43 42 40 42 44 38 37 36 35 30 25 25 23 26 31 29 31 33 34 36 36 34 31 30 30 28 28 28 29 28 27 27 27 26 24 21 31 33 32 35 34 35 35
46 44 44 44 44 45 44 43 42 42 42 44 41 39 39 42 40 39 36 36 36 31 28 28 27 25 24 23 20 26 33 34 34 31 30 30 30 30 29 27 32 28 28 27 27 25 28 33 35 36 35 34 35 34
45 44 44 44 43 44 44 43 43 42 44 44 42 39 36 40 43 38 36 37 37 32 32 31 30 31 30 29 28 22 32 40 37 37 32 32 30 31 28 29 30 32 34 32 31 32 32 33 35 36 35 35 34 34
45 45 44 44 44 44 44 43 43 42 42 43 43 41 38 39 42 39 38 38 36 33 26 24 27 26 26 29 29 28 25 29 30 35 35 33 30 33 30 30 30 32 34 32 32 33 34 34 35 35 35 35 35 35
46 46 45 45 46 46 45 44 43 43 42 42 43 37 39 42 41 39 38 38 37 32 25 26 28 28 27 28 28 28 26 25 26 31 37 33 33 33 33 33 31 34 33 33 32 33 34 34 37 38 37 37 37 36
46 46 46 46 46 46 45 44 43 43 42 44 40 39 42 38 37 37 31 34 38 37 29 23 26 26 26 28 29 29 30 29 31 34 36 37 36 32 31 30 32 34 34 34 35 37 38 39 38 37 34 33 34 34
46 45 46 46 47 45 44 44 42 43 42 42 41 41 37 38 38 32 28 29 39 37 28 22 19 28 36 30 26 25 24 31 32 33 36 37 38 35 33 30 32 35 35 33 33 34 34 36 35 33 33 34 34 33
46 46 45 45 45 45 44 43 43 42 42 41 41 38 39 39 38 34 35 39 38 34 30 22 21 27 32 29 28 30 26 28 33 36 39 37 39 36 31 33 33 31 31 31 32 32 32 32 33 33 34 33 32 31
47 47 46 44 44 43 43 43 41 42 41 40 36 39 38 35 31 32 39 41 38 33 25 25 22 23 37 34 34 34 32 29 37 34 37 37 36 32 33 34 31 30 30 30 30 30 31 32 32 32 33 32 31 31
48 47 46 44 43 42 42 42 41 41 40 34 34 32 30 33 37 39 37 32 31 31 30 24 29 26 34 33 34 33 37 33 31 36 38 36 34 32 30 30 29 29 29 29 29 30 30 31 32 32 32 33 33 32
46 45 45 44 43 43 43 42 41 40 37 31 26 29 32 37 35 33 29 27 28 26 29 29 29 29 40 35 34 38 34 34 29 33 33 32 32 31 29 29 29 28 28 29 29 30 31 32 33 33 33 34 34 34
46 45 45 45 45 43 43 41 40 38 37 36 35 35 36 33 31 27 25 29 28 27 33 31 33 34 37 40 35 35 32 33 28 37 32 29 30 28 27 27 28 28 28 29 30 30 33 33 34 35 33 33 35 35
46 45 46 46 45 43 42 40 40 38 36 36 33 31 28 28 24 23 21 26 28 30 32 32 30 35 37 38 34 34 30 30 35 32 29 29 27 27 27 27 27 28 28 28 29 31 32 33 34 35 33 32 30 30
46 45 46 45 44 43 42 41 39 36 31 27 24 17 23 23 26 26 27 27 29 30 30 31 32 33 34 33 34 31 32 32 28 25 24 27 26 27 28 28 28 27 27 27 28 28 28 29 30 31 34 32 27 28
42 46 45 44 44 43 42 40 37 33 29 23 24 12 20 25 27 27 29 30 30 31 30 30 32 33 32 32 33 32 29 27 27 23 27 27 27 27 26 26 27 27 27 27 27 27 27 27 26 26 31 33 30 24
42 44 44 44 44 43 40 36 34 32 27 25 24 19 23 24 23 24 26 27 32 30 31 31 30 30 31 31 30 28 26 24 24 27 27 28 27 27 25 25 26 27 26 26 26 26 26 26 25 25 26 28 32 30
43 42 44 44 44 40 36 31 28 24 24 22 18 23 24 24 23 24 27 28 30 30 28 29 28 28 31 29 27 29 26 27 27 28 28 28 26 26 25 24 25 25 23 23 25 26 26 26 25 24 24 23 23 29
39 39 45 43 37 35 32 29 24 23 19 19 19 20 25 26 26 27 28 28 29 29 28 27 26 26 28 26 28 30 29 27 28 28 28 27 26 26 24 23 22 20 21 22 24 26 25 25 24 24 24 23 22 22
38 41 43 39 38 34 29 27 25 21 17 18 20 22 25 25 27 29 29 27 28 29 28 27 24 24 26 28 28 28 26 27 27 27 26 25 24 25 22 22 18 19 21 21 21 22 23 22 21 19 22 25 23 22
42 43 40 38 35 29 24 22 25 20 13 15 20 21 23 23 25 24 25 26 27 26 24 23 23 26 28 29 28 29 29 27 27 26 25 22 23 21 21 20 16 16 19 19 17 19 19 16 18 18 20 25 24 23
38 40 39 37 34 31 27 21 19 19 17 17 18 18 19 19 20 21 21 25 24 23 21 23 24 26 28 29 27 28 28 27 27 27 25 21 21 20 19 19 17 14 15 13 12 13 14 14 16 19 22 22 24 25
37 38 35 35 32 28 27 22 18 19 18 15 16 16 16 16 16 17 19 19 20 21 23 23 22 23 22 22 24 26 27 26 22 15 15 17 16 16 16 15 14 8 8 9 12 12 13 15 17 21 22 21 23 23
36 35 33 31 28 25 22 22 21 18 18 14 13 13 13 13 14 17 15 16 18 21 22 23 22 19 19 20 22 23 24 24 21 17 16 14 12 12 11 13 13 8 7 8 11 12 13 16 17 20 21 21 22 22
35 32 29 26 26 21 20 18 17 17 15 15 14 13 9 9 14 15 12 12 15 19 19 19 20 20 20 20 21 21 21 21 19 15 14 13 9 9 12 11 11 11 11 12 13 13 14 14 16 20 20 18 17 18
26 24 26 21 21 19 17 15 13 13 14 11 12 12 14 13 11 10 10 11 14 12 13 17 18 20 19 19 20 21 19 19 17 15 12 13 10 9 9 10 10 11 13 11 10 11 12 13 14 16 16 16 15 15
20 20 22 21 18 18 16 15 13 13 12 11 11 11 10 11 9 10 8 7 8 9 12 16 17 18 19 20 21 20 19 17 15 13 10 12 12 7 5 6 9 11 12 12 11 12 12 13 13 13 13 13 14 15
18 18 21 22 18 16 14 10 11 10 10 10 12 14 12 12 11 9 7 9 6 11 15 16 19 20 19 21 20 18 15 16 15 13 12 12 13 14 12 10 11 12 12 12 12 13 13 13 13 12 12 12 12 13
20 18 16 18 17 14 13 10 9 9 9 11 13 14 13 13 14 13 6 10 11 14 15 15 15 18 20 18 15 16 14 13 11 11 12 12 11 11 12 12 11 15 14 14 14 14 14 14 14 13 13 13 13 13
21 19 17 17 13 14 15 14 12 10 12 14 14 13 13 13 14 8 8 11 13 13 13 13 16 14 14 12 12 12 12 14 15 13 11 11 11 9 7 8 9 9 9 10 13 15 14 14 15 14 14 14 14 15
19 19 18 14 15 14 13 13 11 8 13 16 15 14 12 10 10 13 11 10 9 9 11 11 14 14 14 16 16 15 12 12 14 15 11 9 8 8 7 9 9 9 8 9 10 10 13 14 14 13 14 13 14 15
17 17 17 14 13 13 12 8 9 11 9 9 7 11 12 10 9 10 11 12 13 13 11 10 10 10 13 13 14 12 8 8 8 9 9 8 8 8 9 10 11 10 10 10 10 11 11 11 11 10 10 11 11 13
15 16 14 13 12 8 7 11 9 9 6 7 7 4 6 6 7 9 10 8 8 8 10 12 10 10 9 11 8 7 12 9 8 8 8 10 11 11 12 12 12 12 12 12 12 12 11 10 10 10 10 10 11 12
13 12 11 13 14 14 9 10 9 8 6 6 7 6 5 7 8 12 8 7 8 8 9 8 9 9 7 7 7 7 11 9 10 15 17 17 18 17 18 20 19 16 14 14 13 12 11 10 10 11 11 12 12 14

GFSWCAN_sfc_30mbdewp_036.txt.gz
Dewpoint
46 46 45 45 44 45 45 45 43 42 42 43 44 42 41 43 42 39 37 36 33 28 26 25 24 24 24 19 31 33 36 37 36 33 29 28 25 27 28 27 27 26 26 28 27 24 20 30 34 31 34 35 35 36
47 47 45 44 44 44 44 44 43 43 42 43 43 42 40 40 42 41 36 37 36 32 29 29 27 25 23 23 21 21 31 33 36 34 33 32 29 29 29 26 31 27 27 25 25 24 27 33 35 36 35 34 36 35
47 46 44 44 44 44 44 44 43 43 43 43 43 43 41 39 40 41 38 39 37 33 31 32 30 31 32 29 27 22 23 34 35 34 35 33 31 32 28 28 31 32 32 31 30 29 30 32 34 36 36 36 35 35
47 45 45 44 45 45 45 45 44 43 43 42 43 41 38 37 39 42 39 39 37 33 26 25 28 28 28 31 29 28 25 28 31 32 34 35 31 34 31 30 30 32 33 31 31 33 34 35 35 36 36 36 37 37
46 46 46 46 45 45 46 46 44 42 42 42 43 41 40 42 40 40 40 39 38 33 24 24 29 29 28 27 29 29 27 26 25 26 29 34 35 33 33 32 31 34 33 31 30 33 32 33 36 38 38 36 34 36
47 46 46 46 46 47 45 45 44 43 42 43 42 42 42 40 38 38 32 36 38 38 29 23 28 27 26 28 27 27 28 27 27 25 27 34 37 34 32 30 32 33 35 35 33 35 37 39 38 38 34 34 33 34
46 46 46 45 46 46 45 44 42 42 42 42 42 42 40 38 39 34 28 30 39 37 29 22 22 26 34 29 28 28 29 31 28 27 26 32 38 35 33 28 31 33 35 36 36 34 34 36 36 34 33 34 34 34
46 46 45 44 46 45 44 44 43 42 42 42 41 37 38 40 39 35 36 38 38 34 31 22 22 26 31 27 26 27 26 25 28 31 31 31 37 36 32 33 34 34 33 32 33 32 32 32 32 32 33 34 33 33
47 47 46 45 45 43 43 43 42 42 42 41 36 38 39 35 32 33 39 41 39 34 25 25 22 24 33 32 32 28 26 22 29 31 34 37 36 33 34 33 33 32 32 32 31 30 31 31 32 33 33 33 33 32
47 48 46 44 43 42 42 42 42 42 40 34 34 32 31 34 36 38 37 33 31 31 30 24 30 25 32 33 32 31 31 27 28 32 38 34 34 34 31 31 31 30 30 30 29 30 31 32 34 34 33 33 34 34
47 46 45 44 43 43 43 42 41 40 38 34 32 29 33 37 35 33 29 27 29 26 29 28 29 28 36 30 32 34 31 32 29 32 34 32 31 31 29 29 29 28 29 29 30 30 31 32 33 33 34 34 33 34
46 45 45 45 44 44 43 42 41 38 37 36 36 36 36 32 31 27 26 29 28 27 32 30 32 33 34 40 36 36 32 33 29 37 32 29 31 28 28 28 28 28 29 29 30 30 32 33 33 34 35 33 32 31
45 46 45 45 45 43 42 41 40 38 36 36 32 30 28 29 25 23 22 26 26 30 31 30 28 33 35 38 35 34 30 30 35 32 29 30 28 27 27 27 27 28 28 29 29 29 29 31 33 33 34 33 31 32
46 45 45 46 45 44 42 41 38 35 31 26 22 11 23 23 25 26 27 27 30 30 29 29 29 32 34 32 34 30 32 33 29 27 26 29 27 27 28 28 27 27 27 28 28 28 29 29 28 28 32 34 29 26
41 44 45 44 44 43 42 40 37 33 29 21 21 8 17 25 26 28 28 30 31 31 31 28 29 32 32 31 32 32 29 27 27 25 27 29 28 28 27 28 28 27 27 27 27 27 27 27 26 26 28 31 32 29
41 45 43 44 44 43 40 36 34 31 26 25 23 18 22 23 23 24 25 27 31 30 31 30 28 29 30 30 29 29 27 24 26 28 29 28 28 27 25 25 27 26 24 23 26 26 26 26 25 25 25 24 24 30
42 37 44 45 43 38 35 32 27 24 23 20 17 23 23 22 21 23 26 27 29 29 27 28 26 28 30 29 27 29 27 29 29 29 29 29 28 26 24 24 25 23 21 22 25 26 26 25 25 25 25 24 23 24
39 39 45 42 38 36 33 29 25 23 21 20 19 20 23 25 24 25 28 29 28 28 28 26 26 24 26 26 27 32 32 30 29 28 29 28 26 26 24 22 21 19 20 21 23 25 24 22 19 17 20 26 24 23
38 42 42 40 38 33 30 27 25 24 20 18 19 21 23 24 26 27 28 29 28 30 28 26 24 23 24 28 29 30 29 29 29 28 27 27 26 26 23 22 17 19 20 20 20 20 21 20 19 17 18 23 26 24
43 43 41 39 35 32 28 23 25 20 16 15 19 20 22 23 23 24 25 26 27 27 24 23 23 24 27 29 30 31 31 29 27 27 26 24 24 24 22 20 16 16 19 19 17 18 17 14 16 17 20 22 23 24
39 40 39 37 35 33 30 24 21 20 18 17 17 17 19 19 20 21 21 24 24 23 22 23 23 24 26 28 29 29 29 28 28 28 27 26 23 23 21 20 18 14 14 12 11 11 13 13 15 17 21 21 21 23
37 38 36 36 33 29 28 24 21 20 19 16 16 14 16 15 16 17 17 19 21 21 23 23 23 23 24 23 23 25 28 28 27 24 19 23 22 21 19 19 16 11 11 11 10 10 11 13 14 18 21 21 21 21
37 35 33 32 28 26 23 22 22 19 20 16 13 14 14 13 13 15 15 16 17 19 22 22 22 21 21 21 21 21 23 26 26 23 18 17 14 19 18 17 15 9 9 10 11 12 13 14 16 16 20 21 18 16
35 32 28 27 27 22 21 19 17 16 15 15 14 14 12 10 12 14 12 12 14 17 18 17 18 18 20 20 21 21 22 23 24 21 18 15 12 10 12 11 12 12 12 12 13 13 14 13 15 15 18 19 18 16
24 22 26 22 25 21 17 15 13 15 15 12 12 12 13 12 13 11 11 12 13 14 12 14 17 18 19 19 20 20 20 21 22 23 18 15 13 10 10 11 11 10 13 13 13 12 12 13 14 15 15 16 15 15
19 19 21 19 19 18 17 15 13 14 13 11 11 10 10 12 12 13 11 10 9 7 8 12 16 17 18 20 20 21 21 20 19 19 18 15 13 10 8 6 7 9 13 14 13 11 12 13 13 13 13 13 15 15
18 17 21 24 20 17 15 11 11 11 10 11 11 12 13 13 11 11 9 9 8 9 14 16 17 18 19 20 21 21 18 18 19 18 15 14 16 15 13 9 8 11 13 13 13 13 13 13 13 13 13 13 13 13
21 18 16 19 18 17 17 13 10 11 10 11 12 13 12 12 12 15 13 10 10 12 14 15 16 17 19 21 20 17 17 14 13 13 14 14 13 13 13 14 13 16 13 13 14 14 14 14 14 14 13 13 14 14
20 19 17 16 15 16 17 16 13 12 11 12 12 12 12 14 15 14 12 10 11 12 11 9 12 15 16 16 15 15 15 15 16 15 14 12 12 13 9 10 11 11 12 13 15 16 15 14 14 15 15 15 15 15
18 18 17 15 15 14 14 15 14 11 12 14 14 15 14 13 13 12 12 11 11 11 12 14 15 13 12 13 14 15 14 14 16 17 15 12 12 10 9 10 11 11 10 10 11 11 13 15 15 14 14 13 13 13
19 18 17 14 12 13 13 10 9 11 10 10 9 13 13 13 12 11 12 13 14 15 13 13 14 14 13 13 13 13 13 14 14 14 13 11 10 10 10 11 11 11 11 12 12 11 11 12 12 12 11 11 10 12
16 17 15 13 12 8 7 11 10 10 9 8 11 7 8 8 10 14 13 11 10 11 13 15 13 14 13 13 13 13 14 9 9 8 8 11 11 11 12 12 12 12 13 13 11 11 11 11 11 11 11 10 10 10
12 11 11 13 13 13 9 10 10 11 8 8 9 8 8 10 11 12 9 7 9 9 10 10 11 11 9 9 9 9 12 10 11 14 15 16 17 17 16 16 17 16 16 14 13 13 12 11 10 10 10 11 11 11

GFSWCAN_sfc_30mbdewp_039.txt.gz
Dewpoint
47 46 46 45 45 45 44 44 45 43 43 43 43 43 41 42 43 41 37 39 32 27 25 25 23 19 20 18 27 32 35 38 37 32 31 27 23 25 24 25 25 26 25 25 24 23 21 29 36 32 34 35 37 36
47 47 47 44 44 44 44 44 44 43 43 43 43 44 43 42 41 43 37 38 37 34 28 29 28 27 27 22 21 21 29 30 36 35 31 28 24 25 25 23 27 25 24 23 24 23 27 30 31 36 35 34 36 37
47 47 46 45 45 45 44 44 44 44 43 42 43 43 41 39 39 40 40 39 38 34 29 29 28 30 32 32 29 23 22 27 34 32 33 35 31 27 24 24 28 29 28 27 27 27 28 29 33 35 36 36 36 36
47 47 45 44 45 45 45 45 46 44 42 42 42 42 41 40 41 42 40 40 38 33 26 23 28 27 28 29 30 28 26 29 30 31 29 34 34 31 27 27 28 29 31 29 29 30 34 32 33 35 36 37 37 38
47 45 45 46 46 46 46 46 46 43 43 42 42 42 42 42 41 39 38 39 39 32 25 26 29 28 28 28 27 28 27 26 26 24 27 29 35 33 32 32 29 32 31 29 27 30 30 30 35 37 37 38 35 35
46 46 46 46 46 47 47 45 45 43 42 42 42 42 42 41 38 38 32 37 38 38 30 23 27 26 25 29 26 26 27 26 26 24 22 26 34 36 31 26 27 30 32 33 31 34 35 36 38 38 37 36 35 34
47 46 46 46 45 46 44 45 43 42 42 42 42 42 40 37 40 34 30 34 39 37 30 24 24 25 31 30 28 28 28 30 27 26 21 22 31 31 35 26 28 31 33 35 37 37 35 35 35 35 34 33 34 34
47 46 46 45 46 45 44 43 43 43 42 42 42 39 40 40 39 36 37 39 38 35 32 23 23 27 31 27 24 26 24 26 31 25 23 21 23 32 32 30 33 33 34 34 35 34 33 32 32 32 33 33 33 33
47 47 47 46 45 44 43 43 43 42 42 41 36 38 39 36 32 35 40 40 39 34 27 26 24 26 33 32 30 26 24 21 20 25 23 27 25 27 36 34 34 34 34 34 33 32 31 31 32 34 35 34 34 33
47 47 47 45 43 42 42 42 42 42 40 36 32 31 30 33 37 37 37 33 31 31 30 25 31 27 32 32 30 28 28 27 25 25 32 32 32 33 33 32 34 32 31 31 30 31 32 33 34 34 34 34 34 34
47 47 46 45 43 42 43 42 41 40 38 35 33 30 33 37 35 33 30 28 30 27 30 29 30 28 35 28 31 32 31 31 27 32 30 31 31 34 30 30 29 29 29 30 31 31 32 32 33 33 34 35 35 33
46 45 45 44 43 43 43 42 41 39 37 37 36 36 36 32 31 28 28 30 29 28 32 30 29 31 33 35 32 34 31 32 29 34 31 30 31 29 29 28 28 28 29 30 31 31 32 33 33 34 35 35 34 33
45 45 44 44 44 43 43 41 41 38 36 36 32 29 29 30 25 24 22 25 25 30 30 30 26 30 34 36 33 32 30 30 35 31 29 31 30 28 28 28 28 29 29 30 30 30 30 31 32 32 32 34 34 31
44 45 45 45 45 44 43 41 38 36 32 28 24 13 25 25 25 26 26 26 29 31 30 30 28 29 34 31 32 29 32 33 29 27 27 32 30 28 28 28 28 28 28 29 29 29 29 29 28 28 29 33 33 30
45 45 45 46 44 44 42 39 36 35 31 26 25 16 19 27 29 29 31 29 30 32 30 28 28 30 30 30 32 31 29 27 28 28 30 32 29 28 28 28 28 27 27 27 28 27 27 27 26 26 26 26 26 31
43 45 43 44 44 43 40 36 35 33 30 27 25 22 23 24 26 28 28 28 31 30 30 31 27 28 29 29 29 29 28 25 29 31 32 29 29 28 26 26 26 25 22 22 26 26 26 26 25 25 25 25 24 24
42 38 43 45 43 38 35 35 31 26 26 22 23 25 25 25 24 25 23 24 29 28 26 27 25 27 28 28 28 32 30 32 33 33 31 30 29 26 24 24 25 22 19 21 26 26 25 25 22 19 19 25 27 25
39 42 45 41 39 36 34 31 29 26 24 25 22 26 23 23 24 23 25 27 28 28 28 26 27 24 25 26 28 33 34 34 32 30 30 29 28 26 23 22 21 18 19 19 22 24 24 20 17 15 16 18 26 25
40 44 42 41 39 35 32 29 29 27 26 24 23 23 23 24 25 25 25 26 29 29 28 27 23 23 24 27 30 33 33 32 32 31 29 28 27 27 25 23 19 19 20 20 19 18 18 18 16 16 17 20 22 24
43 43 41 39 36 33 28 26 27 24 21 22 21 22 22 23 24 24 24 26 26 26 24 23 23 25 25 26 32 33 32 31 30 29 28 27 26 27 26 23 17 17 19 20 18 18 14 13 15 15 19 22 21 20
39 40 39 38 36 34 32 27 25 23 22 20 21 20 21 22 22 23 24 24 24 22 22 24 24 25 26 26 26 28 28 29 29 29 28 28 25 25 25 24 21 15 14 12 10 9 12 11 13 14 19 20 21 21
37 38 36 37 33 31 29 27 26 22 21 21 20 18 19 19 20 20 20 20 21 23 24 24 24 25 23 22 23 26 25 27 28 28 26 25 24 24 24 23 21 15 13 15 12 10 10 11 13 15 18 20 21 18
37 36 34 32 29 27 24 24 24 23 21 21 18 16 17 17 17 17 16 19 20 22 23 23 23 23 20 20 22 23 23 23 24 26 26 23 21 24 24 23 21 19 15 15 15 15 15 14 14 16 16 20 20 17
35 33 29 27 27 23 22 21 20 19 19 18 17 16 17 16 15 16 14 18 19 19 19 20 20 16 17 20 21 21 23 24 23 25 23 21 18 15 18 20 15 18 17 16 15 16 16 12 14 15 15 18 19 17
25 23 27 22 26 23 20 18 16 16 16 17 15 15 16 15 16 15 14 17 19 18 18 16 16 18 18 18 20 21 22 22 23 23 24 21 19 14 12 13 11 11 15 15 14 14 16 16 15 16 16 16 16 16
19 21 22 20 21 20 18 16 15 15 15 14 14 14 13 15 14 13 16 17 16 16 12 13 16 17 17 20 20 20 22 21 21 22 23 21 19 17 17 14 11 12 14 15 16 16 16 15 14 15 15 15 15 16
18 19 22 24 20 18 17 14 13 14 14 14 14 12 14 13 13 15 15 15 14 15 15 17 18 17 18 19 21 22 22 20 21 22 18 17 19 19 18 17 13 14 15 15 16 16 15 15 15 15 15 15 15 15
21 18 17 20 19 19 18 17 15 15 16 15 14 12 11 12 12 18 19 17 15 16 15 17 18 17 16 18 22 22 21 19 18 17 17 18 17 16 17 18 17 16 16 16 16 15 15 15 15 15 15 15 15 15
21 20 18 17 17 18 19 18 16 15 14 14 13 13 13 16 18 16 17 17 17 15 15 16 18 19 17 18 18 19 20 19 18 16 15 16 17 17 17 15 16 17 17 17 18 19 17 16 16 15 15 16 17 17
19 20 18 16 16 16 15 18 18 18 15 16 16 15 14 15 16 19 18 17 15 15 17 18 19 20 18 18 18 19 18 18 19 19 18 18 18 16 11 12 12 13 14 13 13 13 15 16 17 17 16 16 15 15
20 20 19 18 15 16 17 15 14 11 12 13 15 14 13 15 15 16 17 17 18 19 19 19 19 19 18 17 17 16 16 19 18 18 19 17 14 13 13 13 14 14 14 13 14 14 14 14 14 14 14 13 13 14
19 19 17 14 14 13 11 13 14 13 14 12 13 13 12 12 12 13 15 16 17 18 18 19 18 18 19 19 17 17 17 15 12 12 14 16 14 13 13 13 13 13 14 14 14 14 13 12 13 13 13 12 11 11
14 13 13 15 15 14 12 12 13 12 11 11 11 12 13 12 12 14 13 10 14 15 15 15 15 14 12 12 12 13 13 12 12 14 14 15 15 15 15 16 17 16 16 15 16 15 13 12 12 12 11 11 10 11

GFSWCAN_sfc_30mbdewp_042.txt.gz
Dewpoint
47 46 46 46 45 45 45 44 44 44 43 43 43 44 44 42 42 40 39 39 35 29 28 26 24 22 21 20 19 24 31 36 37 33 32 32 25 25 23 24 26 26 26 25 25 24 21 35 36 33 35 37 36 36
47 47 46 46 44 45 44 44 44 44 44 43 43 43 42 41 40 43 38 40 39 35 30 32 31 30 27 27 23 23 25 25 34 33 34 32 27 23 24 23 26 25 26 25 24 25 28 32 34 35 35 36 37 36
48 47 47 46 45 45 45 45 45 46 44 42 42 43 42 40 41 41 41 40 38 35 30 28 27 29 32 32 31 24 25 29 33 32 30 33 33 31 24 25 26 27 28 26 26 27 28 30 35 35 36 36 37 37
48 47 46 45 45 45 45 45 46 47 44 43 42 42 42 42 42 42 39 40 38 33 26 24 28 28 30 31 32 31 29 30 31 32 29 29 32 35 29 28 27 29 29 28 28 29 33 33 32 36 36 36 37 37
47 47 45 45 46 46 46 47 46 45 43 43 43 43 42 42 41 39 39 40 40 34 27 27 30 29 28 27 29 29 29 27 27 25 27 26 33 33 35 33 31 32 31 29 27 30 30 31 33 36 36 38 36 35
47 46 46 46 45 46 46 45 45 44 43 43 42 43 42 41 38 39 34 38 39 38 30 24 28 26 26 31 26 27 27 27 26 25 23 24 28 29 27 32 31 31 32 32 31 35 36 37 38 38 37 36 35 34
47 46 46 45 44 45 45 44 44 43 43 42 42 42 39 40 40 35 32 35 39 37 30 25 24 27 31 30 29 28 28 29 28 27 24 22 22 31 29 25 29 29 31 35 36 37 36 36 36 35 34 33 33 34
47 46 46 45 45 46 45 44 44 43 42 42 40 37 40 40 39 37 38 39 38 35 32 24 23 27 31 29 26 28 25 28 29 26 24 22 21 23 21 28 37 35 34 36 35 33 33 33 32 32 34 34 34 34
47 46 46 46 45 45 44 43 43 42 42 39 35 39 39 37 33 36 40 40 40 34 28 27 24 25 34 32 32 27 26 23 25 26 23 23 24 23 24 21 30 37 34 34 33 32 32 32 33 35 35 34 34 34
47 47 47 44 43 42 42 42 42 41 39 37 33 30 29 35 36 37 37 33 31 32 31 25 31 26 33 32 30 28 28 27 23 24 27 24 27 24 32 36 36 32 33 33 32 31 31 32 34 34 34 34 35 35
47 47 46 44 43 42 42 42 41 41 37 35 33 30 34 37 36 34 30 29 30 27 30 29 30 28 32 28 29 32 30 29 24 29 27 30 29 32 32 32 31 30 30 30 32 32 32 33 33 33 34 35 35 34
47 47 45 44 43 42 43 42 41 39 37 37 35 36 35 32 31 28 28 31 29 27 32 30 29 29 31 35 30 33 29 30 27 33 30 29 31 32 30 29 30 29 30 30 31 32 33 33 33 34 34 34 34 34
47 46 45 44 43 43 43 41 40 37 37 36 31 28 29 30 23 22 20 24 25 30 31 30 28 28 31 35 31 31 29 30 35 31 29 31 30 29 28 28 28 29 30 30 31 30 31 32 31 30 29 32 34 33
45 44 44 44 44 43 42 41 37 36 33 28 23 13 24 25 25 25 26 27 30 31 31 30 29 27 31 31 31 28 33 33 28 27 29 31 30 28 28 28 28 28 29 29 29 29 29 28 28 28 28 27 28 32
44 44 45 44 45 44 42 39 36 36 32 26 24 16 18 28 28 28 30 28 29 32 31 28 28 29 28 28 31 31 29 27 29 29 31 31 29 28 28 28 28 27 28 27 27 27 26 26 26 26 26 26 25 24
44 44 44 45 44 43 40 37 36 34 30 27 25 21 25 22 26 28 28 27 30 30 29 31 27 27 27 29 27 29 28 27 29 31 33 32 31 28 27 27 26 23 21 24 26 26 26 25 25 25 26 26 27 25
43 39 44 45 43 39 37 36 32 26 26 22 22 27 26 26 24 25 24 24 29 28 25 25 23 26 27 26 28 31 29 31 32 33 32 31 30 27 24 25 25 19 19 23 26 27 27 24 20 15 13 16 22 26
40 44 45 41 39 37 34 32 29 27 24 26 22 28 25 24 24 25 25 27 27 26 25 24 27 23 23 25 25 31 33 34 34 32 32 30 28 26 23 23 21 17 18 18 22 24 24 20 16 16 16 18 22 24
42 44 42 41 39 36 32 30 30 26 27 26 25 24 24 25 26 26 25 26 28 27 27 25 23 21 23 25 28 31 34 34 33 31 32 30 28 27 27 23 20 18 19 19 18 18 17 17 15 16 17 20 21 22
43 43 42 39 37 32 28 27 28 25 21 24 21 22 23 23 24 23 24 26 25 23 22 21 22 25 25 26 28 28 29 30 29 27 28 28 28 27 28 29 28 25 19 20 18 18 15 14 14 14 17 21 21 20
39 40 39 38 36 34 30 27 26 25 23 21 22 19 19 23 22 24 23 23 22 21 21 23 24 25 25 26 26 26 24 26 26 28 28 28 28 26 26 26 22 18 15 15 14 11 13 11 12 14 16 20 21 21
38 38 36 36 32 30 29 28 26 24 21 22 20 19 17 18 21 21 20 19 20 21 24 24 24 25 24 22 22 21 22 24 23 24 26 29 26 25 25 25 24 20 14 12 11 8 9 10 12 13 16 18 21 20
37 36 34 33 28 26 24 25 23 24 20 21 19 17 16 17 17 18 15 18 19 23 24 24 23 23 20 19 20 21 22 23 22 22 24 26 26 25 25 25 24 22 20 17 17 16 14 14 14 16 15 17 20 19
36 31 26 27 27 23 23 21 21 20 20 18 18 15 16 17 16 15 13 17 21 21 20 18 19 16 16 17 18 19 21 23 22 23 24 24 23 20 20 23 23 23 21 18 16 14 14 13 13 14 15 15 17 17
25 25 27 24 27 22 19 18 17 17 15 17 17 15 16 15 15 15 13 14 19 16 17 20 15 16 17 17 17 19 22 22 21 22 24 24 22 17 15 13 13 13 18 15 13 13 13 15 14 14 15 15 15 15
20 24 22 21 20 21 18 16 15 14 15 16 15 15 14 15 14 12 15 17 17 19 15 12 13 15 15 18 17 16 19 22 21 21 22 24 22 20 19 17 14 12 15 14 12 12 13 15 14 14 14 14 16 16
18 18 24 24 21 20 18 15 15 15 14 13 14 13 14 14 13 13 17 17 15 15 14 13 14 13 13 13 17 19 21 22 20 21 22 20 19 20 21 20 19 18 17 15 15 14 13 14 14 14 13 14 15 14
20 19 17 19 19 19 17 16 15 14 15 18 18 14 15 14 10 17 17 18 15 17 15 16 17 16 15 16 17 18 19 21 20 19 18 19 19 19 18 19 20 18 16 15 15 16 16 15 14 14 14 14 14 14
21 20 20 18 18 18 18 17 16 18 18 18 16 13 13 15 17 15 15 17 17 14 13 13 15 18 19 19 19 19 18 19 16 14 13 15 17 20 20 18 16 17 17 16 18 17 15 14 14 14 14 14 14 14
20 20 18 16 16 15 16 20 19 19 17 16 16 15 14 14 14 16 17 17 17 16 16 17 18 19 19 19 19 19 19 19 19 17 15 15 18 20 17 15 15 15 16 15 14 14 17 16 16 15 15 15 15 15
21 20 19 18 15 16 18 17 16 14 13 12 14 13 14 15 15 16 16 18 19 19 19 19 19 20 20 20 20 19 18 18 19 19 19 19 16 13 11 12 13 13 13 12 12 12 13 13 13 13 12 12 12 14
20 18 17 15 14 14 12 12 13 13 13 12 12 13 12 12 11 13 14 16 16 17 18 19 18 18 19 20 20 19 20 18 17 15 15 16 16 14 13 13 12 12 12 12 13 13 13 13 12 12 12 12 11 11
15 14 14 15 15 14 13 12 12 12 12 11 11 12 13 13 12 13 12 10 12 14 13 11 11 12 12 13 14 13 14 12 12 14 14 15 16 14 12 12 12 13 13 13 14 14 13 13 12 11 11 10 10 10

GFSWCAN_sfc_30mbdewp_045.txt.gz
Dewpoint
47 46 46 46 45 45 45 44 44 44 44 44 43 43 42 41 42 41 39 38 35 31 30 28 29 26 23 21 19 23 29 33 35 33 31 29 27 25 24 25 27 26 25 25 26 23 19 33 34 31 34 36 36 35
48 47 46 46 45 45 44 44 44 44 44 43 43 42 42 40 41 41 38 41 40 34 31 33 32 33 31 28 26 24 25 24 33 32 33 33 30 26 25 22 27 24 26 26 24 23 26 35 34 36 36 36 36 35
48 48 47 47 45 45 45 45 45 45 46 43 43 43 42 42 42 42 40 41 39 34 30 28 27 30 32 32 32 23 28 33 32 32 30 31 31 34 26 25 25 27 28 26 26 27 28 29 35 35 36 36 38 37
48 48 48 46 45 45 45 45 46 47 45 43 42 42 43 42 41 41 38 39 38 34 26 24 28 29 30 32 31 32 31 32 32 31 27 28 28 35 33 31 28 28 29 27 27 29 31 32 34 35 36 37 36 37
48 48 47 45 45 45 46 47 45 44 43 43 43 43 43 42 41 40 39 39 40 33 26 26 30 29 29 31 31 32 31 29 27 25 26 24 30 30 31 33 29 31 29 28 27 29 29 29 32 36 36 37 37 36
48 47 45 46 46 46 46 45 45 43 43 43 43 43 41 39 38 38 33 35 38 38 29 23 29 27 27 31 27 28 28 28 27 26 24 24 28 26 23 25 30 30 33 33 30 35 34 37 37 37 37 36 35 35
47 45 46 46 45 46 44 44 44 43 43 42 42 41 39 41 38 33 31 33 39 36 30 23 23 28 31 30 29 28 28 29 27 27 25 22 21 28 26 21 22 26 34 36 37 37 36 36 36 35 34 34 34 33
46 46 46 45 46 45 44 43 44 43 42 42 39 37 40 40 39 35 38 39 39 34 30 22 22 27 31 30 27 28 26 28 28 27 26 23 22 21 19 19 20 23 36 36 34 34 36 34 33 33 34 34 34 34
47 46 46 46 46 44 43 43 42 42 41 39 36 40 39 35 32 34 40 40 39 34 27 26 24 23 35 32 33 29 27 23 26 24 23 23 21 20 20 21 21 19 35 36 34 32 32 32 33 34 34 34 34 34
46 46 46 46 45 43 42 42 41 41 41 38 33 32 31 33 37 37 37 33 32 31 31 25 30 26 33 31 31 28 29 24 22 22 25 22 20 22 24 28 32 31 33 36 33 32 31 32 33 33 34 34 35 35
47 47 46 44 43 42 42 42 41 40 37 35 31 29 34 37 36 33 28 28 30 28 30 28 30 28 31 27 28 32 28 27 22 25 23 27 29 31 33 34 34 36 36 33 32 32 33 33 33 34 34 35 35 34
47 47 45 43 43 43 42 41 40 37 36 35 34 35 35 32 30 27 26 29 27 25 31 30 29 29 30 34 30 31 29 30 23 30 27 28 31 32 32 30 31 31 34 32 33 33 33 34 34 34 33 33 34 34
47 46 45 43 43 43 42 41 38 37 37 36 30 27 27 25 17 17 13 18 20 28 30 30 26 28 29 33 31 30 27 28 34 29 29 30 32 30 32 32 32 33 34 34 32 31 31 31 29 29 29 31 31 32
47 45 44 43 44 43 42 40 37 36 32 26 18 11 20 19 18 20 20 22 27 30 27 29 28 27 29 29 31 27 32 32 27 27 27 30 31 28 29 32 32 32 32 32 32 31 28 28 27 27 26 26 25 25
45 44 44 44 44 43 41 38 36 35 30 24 21 10 13 24 27 27 28 26 25 30 30 27 28 29 27 27 29 30 28 26 27 25 30 32 32 31 28 28 30 28 29 31 29 30 26 26 25 25 26 26 26 25
45 44 43 45 44 42 39 37 34 32 27 24 23 19 23 19 21 26 25 24 28 28 27 29 26 26 26 28 26 27 27 21 26 31 32 32 31 31 31 27 25 22 23 26 26 26 25 23 22 20 20 18 25 26
40 40 45 44 42 40 38 33 30 26 24 21 20 25 25 24 22 24 25 24 28 26 21 23 21 22 25 24 26 27 24 29 33 33 33 33 31 29 26 25 24 19 21 26 28 27 26 27 21 13 11 17 22 25
40 45 44 41 38 37 32 31 27 25 24 23 21 26 25 24 23 24 24 27 26 26 24 22 26 21 19 21 23 30 32 33 32 33 32 31 32 29 29 26 22 21 29 29 28 27 27 22 16 15 15 18 20 22
43 43 42 40 38 34 30 29 28 24 25 25 24 24 24 23 25 25 25 26 27 26 26 23 20 19 20 23 23 28 29 29 27 26 27 28 29 28 29 31 29 24 27 28 23 19 17 16 14 14 15 19 20 20
43 43 40 38 36 30 26 26 26 23 21 22 20 19 21 21 23 23 23 26 25 22 22 20 20 21 22 24 26 25 26 25 24 21 20 23 28 28 28 29 29 29 28 25 22 19 16 13 14 14 15 19 21 19
39 40 39 37 34 31 29 26 25 24 22 20 20 19 17 20 21 21 22 24 22 21 20 22 22 23 24 25 25 24 21 22 20 20 22 26 27 28 27 27 29 28 23 18 15 14 16 12 10 13 13 16 20 21
39 38 36 35 31 29 27 28 25 23 20 20 20 18 16 15 18 20 21 19 19 20 22 22 23 24 24 22 19 19 19 20 21 22 23 23 22 24 25 25 26 26 23 19 15 12 8 9 11 12 13 16 19 21
37 35 33 32 27 25 22 25 23 22 19 19 17 17 15 16 16 17 14 15 16 18 22 23 23 23 22 18 18 18 20 20 20 21 22 22 24 25 25 25 25 25 24 23 18 14 11 13 13 14 15 16 18 18
34 29 26 25 25 21 22 20 21 20 19 18 17 15 14 16 15 13 12 12 17 20 20 20 21 19 16 16 15 15 17 21 21 21 21 22 23 23 23 22 23 24 24 23 20 18 16 13 14 13 14 14 15 15
20 22 24 23 27 21 19 17 17 17 15 15 16 15 15 13 13 12 11 12 13 16 17 18 18 17 13 13 14 14 18 20 18 16 16 21 23 23 21 17 16 16 19 20 18 15 14 14 13 13 13 13 13 13
19 23 22 21 21 20 18 16 15 14 14 15 15 13 12 13 12 10 11 12 15 19 19 17 16 14 15 17 15 13 12 18 20 18 16 20 23 22 21 21 21 21 16 16 15 14 13 13 13 13 14 14 17 17
19 19 24 25 21 20 18 15 14 14 13 13 13 14 12 12 12 12 14 17 19 18 20 17 14 12 11 11 13 16 17 18 19 17 18 21 21 21 21 21 20 21 20 16 15 13 11 11 12 14 14 13 13 13
19 17 18 21 19 17 15 15 14 13 13 14 17 14 12 12 12 14 17 18 16 14 14 15 16 14 13 13 15 15 15 16 17 18 19 19 19 19 20 21 21 22 19 16 15 15 14 14 13 13 14 13 13 14
23 20 19 18 18 18 17 16 14 15 16 18 16 16 16 16 16 16 17 18 16 16 15 14 14 15 16 17 17 18 17 16 17 15 14 15 16 17 20 20 20 21 21 19 19 19 16 15 15 14 14 14 14 13
20 19 16 16 15 15 15 17 16 17 18 18 17 16 16 16 16 17 16 16 15 16 16 17 17 18 18 18 18 18 17 18 18 18 17 17 17 18 19 19 18 17 17 17 16 17 20 19 18 17 17 16 15 15
19 18 17 16 14 14 15 16 16 16 14 14 13 15 16 17 17 17 17 18 18 19 19 19 19 19 20 20 19 19 18 18 18 18 19 18 18 17 16 14 14 15 15 15 14 13 13 13 13 13 13 12 11 14
19 18 17 16 14 13 11 13 11 12 11 12 13 11 11 12 12 13 13 14 15 17 18 18 18 17 17 18 19 20 21 20 17 17 17 17 17 16 13 13 13 13 12 12 11 11 12 12 12 12 12 11 10 10
14 15 12 15 15 14 12 12 11 11 10 10 10 10 11 12 12 13 11 9 13 14 13 12 10 9 9 9 11 12 14 12 12 14 15 16 17 15 12 11 11 11 11 11 11 12 12 12 12 11 10 10 10 9

GFSWCAN_sfc_30mbdewp_048.txt.gz
Dewpoint
47 47 46 45 44 45 44 44 44 44 44 44 43 42 41 41 42 39 39 39 34 30 29 29 30 27 27 23 20 22 29 32 35 33 31 29 27 24 24 26 26 26 24 25 26 25 18 28 32 29 31 36 36 34
47 47 47 47 45 45 44 44 44 44 44 44 43 43 43 43 42 41 37 41 40 33 30 34 34 33 32 30 26 25 26 28 32 31 32 33 32 28 25 22 28 25 25 25 26 25 24 28 33 35 37 36 36 36
48 47 47 47 45 45 44 45 45 45 47 44 43 42 42 42 42 42 40 39 38 33 28 26 25 28 32 32 31 24 30 32 30 32 30 31 30 34 29 25 25 27 28 26 26 26 27 29 33 36 36 37 37 36
48 48 48 47 45 45 45 45 46 46 44 43 42 43 43 43 41 40 37 39 38 33 25 25 28 28 31 32 33 32 32 32 32 31 26 26 27 34 31 32 31 29 29 27 27 28 31 31 31 35 36 37 37 37
48 48 48 47 46 45 46 47 45 44 43 42 43 43 43 42 41 38 37 38 38 30 25 26 30 29 29 31 31 32 32 31 30 26 27 24 27 28 29 30 27 30 30 28 26 29 28 27 30 34 36 36 36 37
48 48 47 46 46 46 47 45 44 43 43 43 42 42 40 40 40 37 31 34 38 36 27 21 29 27 27 31 29 29 30 29 27 26 24 25 26 29 21 22 26 25 31 35 33 34 35 34 36 36 36 37 36 35
48 48 46 46 47 46 45 44 43 43 42 42 41 39 41 41 35 31 29 33 38 36 28 21 22 28 30 30 29 28 28 28 27 26 26 23 22 27 25 19 17 20 20 25 35 36 36 36 35 36 36 35 35 34
47 46 46 46 47 45 44 43 43 42 41 40 37 39 40 39 37 33 38 40 38 33 27 22 22 25 32 30 28 29 26 28 28 27 26 25 23 21 17 18 19 19 20 20 27 36 36 35 34 34 34 34 34 34
46 46 46 47 46 44 43 42 42 41 39 37 39 40 37 33 30 32 40 39 39 34 24 24 23 22 35 31 33 30 27 23 26 23 23 23 21 19 18 19 21 21 23 30 33 35 35 35 34 34 34 34 34 34
46 46 46 46 45 43 42 42 41 41 37 37 33 30 29 32 37 37 37 32 30 31 29 24 28 24 31 30 29 28 28 23 20 22 25 22 20 22 27 32 27 31 34 33 31 32 33 33 33 33 34 34 35 35
47 46 47 45 44 44 42 41 40 39 38 33 30 29 32 37 35 31 28 27 29 27 29 27 28 26 30 27 27 32 26 26 21 22 21 23 26 32 32 32 31 35 36 35 36 34 34 34 33 34 35 35 35 34
47 46 45 44 44 43 41 40 40 36 33 32 32 34 33 31 29 23 22 26 25 20 29 29 29 29 30 33 30 30 28 29 22 29 24 25 30 32 32 31 32 33 34 34 34 34 34 34 34 34 33 34 34 33
47 45 44 43 43 42 41 38 37 37 37 33 28 25 24 21 11 8 5 11 13 24 27 28 23 26 29 31 30 30 27 27 32 27 28 28 32 32 31 32 32 32 34 33 33 33 33 29 29 29 29 27 29 31
46 44 43 44 43 42 40 37 37 36 30 21 14 11 15 13 14 16 15 16 23 29 26 28 26 27 28 27 30 26 29 32 27 21 24 30 31 31 31 32 32 31 32 31 31 31 31 27 27 26 26 25 25 24
45 44 44 44 43 41 39 38 37 33 27 22 18 5 12 21 24 25 26 25 24 28 28 25 25 28 25 26 28 29 27 23 24 21 24 31 32 31 31 31 30 30 30 30 30 30 30 28 25 25 25 25 26 25
45 44 42 44 43 40 38 36 33 29 25 22 21 18 21 19 16 24 24 23 26 27 25 27 23 23 23 25 24 25 21 19 21 29 33 33 32 32 31 31 30 21 25 28 30 29 28 26 22 16 17 17 25 25
42 41 45 44 41 39 37 32 28 24 22 20 20 24 23 23 21 22 25 24 27 24 17 22 18 18 23 21 22 27 22 24 30 31 31 31 30 30 32 30 27 21 23 28 30 29 28 28 26 15 11 16 21 24
41 45 44 41 37 35 31 29 25 24 23 21 20 23 24 22 22 24 24 26 25 25 23 19 23 19 15 14 18 28 30 32 31 30 29 28 27 27 29 30 30 21 27 30 29 29 27 26 23 18 15 18 20 21
43 43 41 39 36 32 29 28 27 21 23 24 24 23 24 23 24 25 25 26 27 26 24 22 20 17 16 20 21 23 27 27 25 24 23 23 23 25 28 29 31 29 28 29 28 26 21 21 17 13 14 17 19 19
43 42 40 38 34 28 25 25 25 23 20 21 20 19 20 20 22 22 23 26 25 22 20 20 19 19 20 21 24 25 24 24 22 18 16 16 21 25 27 27 29 30 29 28 28 28 23 17 14 14 14 16 20 18
40 40 38 34 32 30 27 26 25 23 22 20 18 19 17 17 20 20 20 23 22 20 19 21 21 21 23 23 24 24 23 19 17 18 17 19 22 23 23 24 26 28 29 28 27 26 22 18 12 12 13 13 17 20
39 38 35 33 29 28 26 27 24 22 19 19 19 17 16 15 16 18 20 20 20 19 20 20 20 21 23 23 23 21 19 19 19 20 22 23 21 21 21 23 24 25 26 26 26 26 22 14 11 11 11 11 17 19
35 33 32 29 24 23 22 25 23 23 19 18 16 17 15 15 14 16 15 15 16 17 20 21 21 22 23 23 20 17 18 18 18 18 19 20 21 23 23 23 23 23 24 25 24 23 21 17 11 13 11 15 16 17
32 28 27 26 21 20 21 20 21 20 19 18 16 14 14 13 12 13 13 11 11 16 17 16 19 21 21 19 16 14 14 17 17 17 18 17 16 18 23 23 22 22 23 24 23 22 20 17 15 15 15 13 13 14
17 21 21 21 23 19 19 17 16 17 15 14 15 14 14 12 13 12 10 11 11 12 14 17 19 20 18 15 14 12 15 16 14 14 15 17 17 18 19 20 20 20 20 19 19 20 19 17 15 14 13 12 12 12
13 22 20 20 21 19 17 16 14 14 13 13 13 12 10 12 12 9 10 10 11 13 15 18 18 18 18 17 15 14 13 15 17 16 16 16 16 16 17 18 18 17 20 19 18 16 16 16 14 13 12 13 16 17
19 20 24 24 21 20 17 14 13 13 12 12 12 13 12 11 10 11 13 14 14 15 15 17 20 17 14 13 15 16 15 16 16 15 16 17 18 20 20 19 18 19 21 19 18 16 14 13 12 12 12 12 13 13
20 19 18 21 20 17 16 15 14 13 12 12 13 12 11 11 11 13 14 16 16 16 17 17 17 18 17 15 16 16 15 14 14 15 15 17 18 19 20 21 21 22 22 21 19 18 16 14 13 12 12 11 12 12
22 19 19 18 17 17 17 15 13 14 14 15 12 11 12 14 14 14 16 17 18 17 17 17 18 18 17 17 18 18 18 16 15 14 14 14 15 15 16 17 19 20 21 22 23 22 17 15 15 14 14 14 13 12
20 19 16 16 16 15 15 17 15 15 17 17 16 16 15 16 17 19 19 19 16 17 18 18 19 19 18 18 18 18 17 17 17 17 16 16 16 17 17 18 17 17 17 19 19 18 21 18 18 17 16 15 15 15
18 17 16 14 14 13 14 13 13 16 16 15 14 16 16 17 17 18 18 19 19 20 20 19 19 19 19 19 19 19 18 17 17 17 18 19 18 17 17 17 16 14 15 16 15 15 17 17 17 16 15 14 13 14
18 18 17 15 15 13 10 13 10 11 11 11 13 10 11 12 12 13 13 13 13 15 17 19 18 18 15 14 14 15 19 18 18 17 17 16 17 17 16 14 12 12 13 13 13 12 11 12 11 12 12 12 11 10
13 14 11 14 15 15 12 12 11 10 9 9 9 8 8 10 10 11 9 7 11 11 10 9 8 7 7 7 7 8 12 10 11 16 17 17 16 14 11 11 11 11 11 11 10 11 11 12 11 11 10 10 9 8

GFSWCAN_sfc_30mbdewp_051.txt.gz
Dewpoint
48 47 46 45 44 44 45 44 44 43 44 43 43 43 42 43 43 38 37 39 34 29 29 30 30 26 26 24 19 22 29 30 34 32 31 29 28 25 25 26 26 26 24 25 27 24 19 26 32 28 29 35 36 35
47 47 47 46 45 45 44 44 44 44 44 43 43 43 43 42 43 40 36 41 39 31 29 34 33 33 31 30 26 25 27 30 31 30 31 32 30 30 24 22 28 25 25 24 25 24 26 26 32 33 36 36 36 36
47 47 47 46 46 45 44 44 44 45 45 43 42 42 43 43 42 41 38 39 36 31 26 25 26 28 31 32 31 24 30 32 30 32 29 30 28 33 28 26 26 27 28 26 26 26 27 27 28 34 36 36 37 36
47 47 47 47 46 46 45 45 45 46 44 43 42 43 43 42 41 39 36 38 38 31 23 25 29 28 31 33 33 32 32 32 32 30 27 26 25 31 30 30 31 31 31 28 27 27 28 29 32 31 34 36 37 36
47 47 48 47 47 46 46 46 46 44 43 42 43 43 41 40 39 37 36 37 37 29 23 24 28 29 29 31 31 32 32 31 29 25 26 24 26 27 28 28 26 27 25 27 27 33 32 31 32 34 34 36 37 36
47 48 48 47 47 46 47 46 44 43 43 42 42 40 40 40 37 35 30 34 37 35 25 20 28 27 27 31 29 30 31 30 28 25 24 25 27 28 21 19 22 25 30 29 27 31 29 31 36 36 35 36 37 37
47 48 48 47 46 47 47 45 43 43 42 41 39 41 40 39 35 30 30 34 39 35 27 21 22 27 31 30 29 28 29 28 27 26 25 24 22 26 24 19 16 18 18 18 18 21 22 31 34 36 37 36 36 34
48 48 47 46 47 47 46 44 43 42 41 39 40 39 39 39 36 32 38 39 38 32 26 21 21 24 33 30 28 29 27 28 28 27 27 25 24 22 17 19 19 20 23 22 23 29 34 35 36 35 34 34 34 33
47 46 45 47 46 46 44 43 42 40 38 40 41 40 34 31 28 31 40 39 37 32 24 22 20 18 32 30 33 29 27 23 26 23 23 23 21 19 20 26 30 32 31 26 32 33 34 35 35 36 35 34 33 34
46 45 46 46 46 45 44 41 40 38 40 40 32 29 26 31 36 37 37 31 30 30 27 24 26 23 29 28 28 28 28 24 20 22 25 22 20 23 31 34 32 32 34 34 31 32 33 32 34 35 34 34 34 34
45 46 46 46 45 44 43 41 39 40 37 31 28 27 32 37 34 30 28 27 27 24 28 28 27 25 28 26 27 31 26 25 21 22 21 22 25 31 33 32 33 33 34 35 36 34 32 33 33 35 35 35 35 34
46 46 46 45 44 43 42 41 40 34 32 30 30 33 32 28 24 18 18 21 22 17 27 27 28 29 29 32 29 31 26 28 21 26 24 24 27 33 32 31 32 32 32 34 34 32 32 32 33 34 34 33 33 32
46 46 44 44 44 41 41 40 38 37 34 29 26 24 20 18 5 -5 -6 8 10 22 26 26 21 25 28 31 29 29 25 25 30 25 25 27 31 32 32 31 32 33 32 32 32 32 32 31 30 28 26 25 27 28
46 44 44 43 42 39 38 38 37 34 26 18 12 3 5 7 9 12 11 14 20 27 25 26 24 25 27 26 28 25 27 31 23 18 18 25 31 32 32 32 31 30 31 31 30 31 30 30 28 26 27 26 25 24
44 44 44 43 41 39 39 38 36 31 25 19 14 -4 10 19 23 22 24 24 24 27 26 24 23 25 23 24 25 26 25 21 22 17 22 26 31 32 31 31 31 30 26 30 30 30 29 28 27 25 21 20 26 25
44 44 42 43 41 39 39 34 31 27 22 21 19 14 21 18 18 23 23 23 24 26 25 24 21 21 20 24 21 21 22 17 19 25 29 31 30 31 30 29 31 30 22 28 30 30 30 29 27 25 19 17 23 25
41 41 43 42 40 38 35 30 27 22 21 19 19 23 20 19 19 23 24 24 27 22 15 20 11 13 22 19 19 24 22 21 27 30 29 29 27 27 26 27 29 30 21 25 29 30 29 29 28 27 19 13 20 22
41 43 43 40 36 33 30 27 24 23 19 21 18 21 23 21 21 23 24 26 25 23 22 16 21 19 13 9 9 21 29 30 29 26 26 25 24 23 23 25 28 30 25 27 30 29 29 27 25 23 21 17 19 20
43 42 41 38 35 30 28 27 25 19 23 23 23 24 24 23 24 24 25 26 26 25 23 22 20 17 15 18 18 19 24 27 23 23 22 19 20 19 22 25 27 29 30 29 29 29 29 24 23 21 14 16 19 19
42 40 38 36 32 27 24 25 24 22 18 21 20 21 20 20 21 22 24 25 25 22 21 20 18 18 17 17 20 21 24 24 23 18 14 15 17 20 22 23 23 24 27 29 29 29 28 27 24 16 14 14 17 20
39 38 36 33 30 28 26 25 23 22 21 19 17 19 17 15 19 20 20 23 22 20 18 20 20 20 21 22 23 24 23 23 22 18 15 16 18 22 22 22 22 23 26 27 28 28 30 28 28 19 12 14 15 17
38 37 33 31 28 26 24 25 23 22 19 19 18 17 16 15 15 18 19 21 20 19 20 17 17 18 19 19 20 22 23 21 18 18 21 22 20 19 18 21 22 22 23 24 25 26 27 28 27 20 12 11 14 17
34 33 30 25 22 20 20 25 22 22 17 18 16 16 15 14 13 16 16 16 17 18 19 19 19 19 20 21 22 22 20 18 16 17 17 18 19 19 19 19 22 22 22 23 24 25 24 24 22 17 11 12 14 15
31 27 26 24 19 18 21 20 22 20 19 17 16 13 13 12 12 13 13 12 12 15 14 13 15 15 17 19 20 20 20 19 17 16 16 16 14 13 15 18 20 21 21 22 23 23 23 22 21 16 14 13 13 12
14 21 19 20 21 18 18 17 16 16 14 12 14 13 13 10 13 12 9 9 10 11 11 13 15 17 18 19 19 19 19 16 13 12 13 16 15 16 15 16 16 18 19 19 18 20 20 20 20 18 15 13 12 11
13 22 18 19 20 18 17 15 15 14 13 13 13 10 8 12 11 7 9 8 10 11 12 14 15 15 15 19 19 19 15 16 16 15 15 16 15 15 14 14 15 15 18 19 18 18 19 18 17 16 15 14 16 15
15 20 23 22 21 18 16 14 13 12 12 12 12 12 12 10 9 9 12 13 13 14 15 15 15 15 15 16 18 19 19 18 16 15 15 16 17 17 17 16 16 17 19 19 19 19 18 18 16 15 14 13 13 12
20 21 18 21 19 16 16 15 14 13 12 12 11 11 9 9 9 12 13 15 14 15 15 15 16 17 18 19 20 20 19 18 16 14 14 15 16 17 17 18 19 20 22 22 21 21 20 19 18 16 14 12 11 11
20 19 20 18 17 17 17 15 13 14 14 13 11 9 9 12 11 11 13 14 16 15 15 17 18 20 18 18 19 19 19 18 17 16 15 14 14 15 15 16 17 17 18 19 21 23 22 21 19 16 15 14 13 12
20 18 16 16 16 15 15 16 15 13 15 15 15 15 15 15 16 18 18 19 19 18 19 19 20 20 19 19 19 19 18 18 18 17 17 16 16 15 14 16 17 17 16 16 17 17 21 21 19 17 14 13 13 12
17 16 15 14 15 14 13 11 11 14 15 15 14 16 16 16 17 17 17 18 19 20 19 19 19 19 19 19 19 18 18 17 17 17 17 17 17 16 16 16 16 15 15 14 15 15 17 18 17 16 16 15 14 15
18 18 17 15 15 12 9 13 10 11 10 10 12 10 11 12 12 12 10 10 11 11 14 12 11 12 10 9 9 8 12 12 11 13 15 16 16 16 16 15 13 12 12 13 14 13 13 14 14 14 13 12 11 11
12 13 11 14 15 15 11 12 11 10 8 9 8 7 7 9 9 10 7 6 9 9 10 10 10 10 10 8 8 8 10 9 10 15 19 19 19 16 10 9 10 11 11 11 10 9 10 11 11 11 11 10 10 9

GFSWCAN_sfc_30mbdewp_054.txt.gz
Dewpoint
50 48 47 47 45 45 45 45 43 44 43 43 43 43 43 43 42 37 37 39 31 27 29 30 29 26 26 23 19 22 29 30 33 31 30 29 28 25 25 25 26 25 25 25 27 23 18 26 30 27 27 34 35 36
49 48 47 47 46 46 45 44 44 44 44 43 44 43 42 43 42 38 37 39 36 29 29 34 33 33 31 30 26 25 28 31 30 31 30 31 28 31 26 22 27 24 25 24 25 23 26 26 31 32 34 34 35 36
49 47 47 46 46 46 45 44 44 44 44 43 43 43 43 42 41 39 37 37 34 27 25 25 27 28 30 31 31 23 29 32 29 31 29 29 29 33 26 28 29 26 28 27 26 26 27 28 30 31 33 34 36 37
48 47 47 46 47 46 45 45 45 45 44 43 42 43 42 41 40 38 35 38 33 29 22 24 30 28 31 33 33 32 32 32 31 29 26 25 24 29 28 29 29 31 31 29 27 27 31 29 31 31 27 34 35 37
47 47 46 46 47 46 46 45 45 46 43 42 43 42 41 40 39 36 36 37 35 27 22 23 27 29 29 31 31 33 32 30 28 25 25 25 26 27 27 26 26 27 26 25 24 32 26 24 24 21 32 35 36 36
47 47 46 47 46 46 46 46 47 44 42 43 42 40 40 38 36 33 29 34 37 33 23 21 26 27 28 30 29 31 32 30 28 26 24 25 27 27 20 19 20 22 22 23 19 21 22 22 23 24 35 32 36 36
47 47 46 46 46 47 46 47 44 43 43 42 40 40 40 39 34 29 27 33 38 33 24 21 22 26 31 30 29 28 29 28 27 26 25 24 22 25 24 18 18 21 23 27 30 24 23 23 25 31 34 34 36 36
47 47 46 46 47 46 47 45 44 42 41 40 41 40 38 38 35 33 37 38 35 29 24 17 16 25 34 29 28 29 27 28 28 27 26 24 24 22 17 19 22 29 31 31 29 28 29 32 33 32 35 35 34 34
47 47 46 46 46 47 46 45 43 42 40 40 40 39 33 31 28 32 40 38 35 29 23 21 19 12 28 29 32 30 28 23 27 23 24 24 22 19 26 27 31 31 31 31 33 35 34 33 34 34 35 35 35 34
47 46 46 46 47 46 45 44 42 40 41 41 34 27 26 32 36 38 35 29 29 29 26 24 26 19 26 25 26 29 27 24 20 23 25 22 22 24 26 33 32 31 32 32 30 30 32 31 31 32 34 35 35 35
46 46 46 46 46 45 44 42 40 41 40 32 27 28 33 37 33 28 26 23 24 21 27 26 26 24 27 25 25 29 27 25 20 23 23 22 23 27 32 32 31 31 32 31 34 34 32 31 30 31 33 33 33 34
45 46 46 46 45 44 42 41 42 35 33 31 31 33 30 26 20 11 14 18 18 10 26 25 26 27 27 32 28 31 25 27 22 27 24 23 26 30 31 31 31 31 31 31 32 32 32 31 31 31 31 31 32 32
45 46 45 45 44 43 42 42 38 36 34 29 25 22 17 16 -2 -16 -10 5 8 21 26 24 17 25 27 30 27 28 26 25 28 25 20 22 30 30 30 31 30 32 31 31 30 31 31 31 30 29 27 26 25 26
45 45 44 44 43 43 42 40 38 34 25 16 9 4 1 3 3 6 3 9 17 26 25 25 23 23 27 25 26 23 26 29 23 19 16 22 26 30 31 30 30 29 31 29 30 30 30 29 29 28 24 25 26 25
45 44 43 43 42 42 42 40 36 29 24 16 8 -5 8 18 21 20 23 23 25 27 25 23 23 24 23 23 25 23 21 21 20 15 19 22 28 28 28 28 28 28 29 29 27 30 29 29 28 25 23 22 27 27
44 42 40 41 40 40 39 34 30 26 21 19 16 14 21 18 20 22 23 21 22 25 25 22 20 19 19 22 20 19 20 18 17 22 26 29 24 23 24 25 25 26 28 29 25 29 30 29 28 28 27 18 22 23
40 40 41 41 40 39 34 29 26 21 19 18 18 22 17 15 15 21 23 22 26 22 14 18 9 6 20 19 18 22 21 20 23 28 29 25 23 22 22 23 23 25 28 28 25 27 30 30 29 27 27 26 24 23
40 42 41 40 35 33 29 27 23 21 17 20 17 21 22 20 20 22 24 25 24 21 20 13 19 16 12 9 9 16 23 29 29 29 26 23 21 19 19 20 23 25 27 29 27 29 29 29 28 26 27 24 18 21
40 41 39 37 33 29 26 26 24 16 22 22 23 23 23 23 24 23 25 26 26 24 23 21 18 15 12 16 13 12 15 20 23 24 23 22 19 17 18 21 22 23 23 24 27 29 29 29 29 28 25 22 18 20
41 40 37 35 30 25 22 24 24 20 19 22 21 22 20 20 21 22 24 26 24 21 21 20 16 16 16 14 17 16 18 21 23 22 20 20 15 17 19 21 21 22 22 23 26 29 29 28 28 27 22 16 17 17
37 37 34 32 28 27 25 24 22 21 20 18 17 18 16 15 19 20 22 23 22 20 17 19 19 18 20 20 21 22 22 23 22 22 21 20 17 19 20 19 19 20 22 23 24 25 27 29 29 29 27 18 16 18
37 35 31 30 25 24 23 24 22 21 19 18 16 16 15 14 14 17 19 22 20 19 19 17 16 17 18 18 18 20 21 22 23 22 21 21 20 17 16 17 17 16 18 20 21 23 24 26 27 28 27 26 16 15
33 31 27 23 19 19 20 24 21 20 15 16 15 15 14 14 11 16 17 17 17 17 19 19 18 18 17 17 18 19 20 21 21 20 17 18 18 18 18 17 16 16 16 17 21 22 23 25 25 25 21 18 14 12
29 26 23 20 17 16 20 19 21 18 18 16 14 11 13 11 11 12 12 12 12 14 14 13 13 13 15 16 15 15 18 20 19 19 18 16 14 14 13 13 15 17 18 19 19 20 21 22 23 23 20 16 12 12
14 20 18 17 19 16 16 16 15 15 13 13 13 12 12 9 12 12 10 8 8 9 10 12 13 14 14 14 15 16 18 20 19 18 16 17 14 14 15 16 16 16 17 17 16 16 17 19 20 20 20 18 15 13
12 20 16 18 18 15 15 13 14 14 13 12 12 8 7 11 11 5 7 8 8 8 9 11 13 14 15 16 14 14 15 18 18 17 16 16 16 15 14 14 14 15 16 17 17 16 17 18 18 18 18 17 19 18
14 18 22 21 19 16 14 13 12 12 12 12 12 11 11 9 8 8 10 11 10 11 12 13 14 15 14 14 16 18 18 19 18 18 16 16 18 18 16 15 15 16 17 17 18 18 18 19 19 19 18 17 16 15
19 22 17 19 17 15 15 14 13 12 12 11 11 10 8 8 5 10 11 13 13 13 14 15 15 16 17 17 18 19 20 20 18 16 15 16 16 16 16 17 18 19 20 20 20 20 21 21 20 20 19 18 17 15
18 20 19 17 17 17 16 14 13 14 14 12 10 9 8 11 10 10 11 12 12 14 16 17 18 19 18 18 18 18 18 18 18 17 16 16 16 16 16 15 16 16 17 17 19 22 22 21 21 20 20 18 15 13
19 16 16 16 16 14 15 16 15 13 14 13 13 14 14 14 16 17 17 17 18 18 19 19 19 19 19 19 19 19 18 18 18 18 18 17 17 16 15 14 14 15 15 16 16 16 18 19 21 19 16 13 12 12
16 15 14 14 14 14 12 10 10 13 14 15 13 15 15 15 15 15 13 12 12 12 12 12 11 11 13 13 13 12 13 14 13 13 13 14 15 16 17 16 15 14 14 15 15 14 14 16 17 17 15 14 13 14
17 17 16 14 14 11 7 11 10 12 9 10 12 8 11 11 11 11 8 7 9 9 12 11 12 13 11 10 9 9 12 11 10 10 10 10 11 14 14 13 12 13 14 14 12 12 13 14 15 15 14 13 12 11
12 12 11 14 15 15 11 11 10 9 8 9 8 6 6 8 8 9 7 6 9 11 12 11 11 10 10 9 9 9 11 10 10 15 18 21 23 19 12 8 9 11 11 11 10 10 10 10 10 10 10 10 9 8

GFSWCAN_sfc_30mbdewp_057.txt.gz
Dewpoint
52 50 49 48 47 46 46 45 43 43 43 42 42 43 43 42 40 37 38 38 28 28 29 30 29 26 25 23 19 21 29 30 33 31 30 29 27 25 24 25 26 25 24 25 26 23 18 26 29 27 29 33 33 35
51 49 48 48 47 46 47 45 44 43 43 43 43 43 43 42 40 38 33 37 33 28 29 33 33 33 31 31 27 24 29 31 30 31 30 31 27 30 26 22 25 25 26 24 25 23 25 28 28 30 30 26 30 34
50 49 48 47 47 47 46 45 44 44 43 43 43 43 43 41 41 37 34 36 29 26 25 26 26 28 30 31 31 23 28 31 30 31 29 30 29 32 25 27 29 27 29 27 26 27 29 31 30 28 23 21 28 35
49 48 47 47 47 47 46 45 44 44 44 43 42 43 42 40 39 37 35 36 30 26 22 25 29 28 31 33 33 31 31 32 30 29 25 25 25 28 27 28 28 29 29 27 27 29 24 29 22 21 21 22 30 34
49 48 47 47 47 46 46 45 45 45 43 42 42 42 41 40 38 37 36 36 33 25 22 24 27 28 28 30 31 33 32 29 27 24 24 25 26 27 26 24 24 27 24 22 20 24 26 23 25 25 24 23 33 30
49 47 47 47 46 46 46 46 46 44 43 42 43 42 40 38 36 32 28 33 36 30 23 23 26 27 30 30 29 31 32 29 27 25 24 25 26 26 20 18 20 21 22 23 25 26 29 29 26 24 23 29 32 33
48 47 46 46 46 46 46 46 46 44 42 43 41 41 39 38 36 29 26 32 36 30 23 21 22 25 30 29 28 28 28 28 26 26 25 24 22 24 23 17 19 22 29 31 31 31 29 28 31 32 33 33 33 34
47 47 46 46 46 46 46 47 45 43 42 41 41 38 39 38 35 33 37 38 32 26 21 9 13 24 32 28 26 29 27 27 27 26 26 24 23 22 16 19 25 30 31 31 31 32 32 34 34 33 33 33 32 34
47 46 46 46 46 46 46 45 44 42 41 41 40 38 33 30 29 33 39 35 32 26 17 16 13 5 26 27 32 30 27 23 27 23 23 24 21 21 22 27 29 31 30 31 32 32 32 32 33 32 33 33 33 35
46 46 46 46 46 46 45 44 43 42 41 40 35 29 28 31 37 38 31 27 27 27 25 19 24 16 25 24 25 27 27 24 19 23 25 23 22 24 25 28 31 31 32 32 28 28 30 30 30 29 31 33 34 35
46 45 46 46 46 45 44 43 42 41 40 33 28 29 33 37 31 26 21 18 20 14 25 25 24 21 27 23 24 28 25 23 19 21 23 22 22 26 30 30 31 31 31 32 32 32 32 31 30 29 30 31 31 31
46 46 46 46 45 44 44 42 42 38 35 32 32 33 29 23 15 6 10 16 14 6 25 24 25 26 26 30 27 28 24 25 20 25 22 21 23 28 30 29 29 30 30 30 31 31 31 31 31 29 29 28 29 30
45 45 45 45 44 44 43 42 38 36 35 29 25 21 15 13 -10 -19 -10 2 8 20 26 23 17 24 26 29 26 26 23 23 26 23 21 21 27 29 28 29 29 30 30 30 30 29 30 30 31 29 28 23 26 26
45 45 45 44 43 42 42 39 37 32 25 18 13 0 -2 -2 -2 -3 -3 5 18 25 23 24 22 23 26 24 25 21 24 28 22 19 18 22 24 27 28 27 28 25 27 27 28 29 29 29 29 29 28 25 24 27
45 44 43 43 42 42 40 38 33 28 24 14 7 -5 6 18 20 20 21 23 25 26 24 23 23 23 22 21 23 21 19 18 20 17 17 21 26 24 22 23 23 23 23 24 27 28 27 29 29 28 29 26 23 25
44 43 42 42 42 42 40 33 29 25 21 18 16 16 21 18 19 23 21 20 24 25 24 21 19 19 19 21 19 18 16 16 18 20 23 27 25 22 21 21 21 22 22 24 27 28 28 28 29 29 28 28 23 24
40 41 42 43 42 37 33 28 25 20 19 18 16 22 18 16 15 19 22 22 25 22 13 16 6 4 19 18 17 19 18 21 21 25 28 28 26 22 22 20 20 21 23 24 25 28 27 29 30 28 27 27 27 25
39 42 42 39 35 32 29 27 23 20 16 19 16 20 20 20 21 22 23 26 23 20 18 11 16 13 9 7 8 16 20 21 25 27 27 27 25 23 21 18 19 21 22 22 23 25 27 28 28 28 28 28 26 25
39 40 38 35 33 29 26 25 23 18 21 22 23 23 22 22 23 24 25 26 25 23 21 20 16 11 10 15 11 10 11 13 14 18 21 22 22 21 17 17 19 20 19 20 21 22 24 27 29 29 29 28 25 24
40 38 37 35 30 25 22 23 24 21 19 21 22 20 19 20 21 22 24 25 24 21 21 17 13 14 13 13 16 16 16 18 19 18 18 18 20 18 16 18 19 19 18 18 20 23 25 26 28 28 27 27 26 24
37 35 33 30 27 26 24 22 21 20 20 18 17 16 16 17 20 21 22 23 22 20 16 19 18 17 19 19 19 20 19 20 19 20 19 19 21 20 20 20 18 17 17 16 16 18 20 22 25 28 29 28 26 25
35 34 30 29 24 24 23 24 21 20 18 17 16 14 15 15 15 18 18 22 20 19 19 17 16 16 17 16 15 17 17 19 20 20 22 24 23 21 19 17 19 15 14 14 15 16 17 21 23 26 27 27 27 25
31 29 25 23 17 18 20 23 18 17 13 14 14 14 13 12 11 14 16 18 18 18 19 19 18 18 18 17 16 16 16 17 16 18 19 20 20 20 19 19 19 15 13 14 16 16 18 21 22 23 25 25 25 24
28 24 20 18 17 17 19 18 19 17 16 14 12 10 12 11 10 12 11 12 13 14 14 14 16 14 13 14 13 14 14 17 16 17 18 19 18 17 15 15 15 15 16 17 17 17 17 18 21 21 22 21 21 23
13 17 16 15 18 15 14 14 15 13 11 12 12 11 11 8 11 12 10 9 8 7 8 10 11 12 12 13 14 15 16 17 14 15 16 18 19 18 16 16 15 15 17 15 15 15 15 16 18 19 19 19 19 18
11 19 15 16 17 13 14 10 11 12 12 11 12 6 6 11 10 5 6 8 8 7 7 8 9 10 12 14 14 15 16 16 17 16 17 18 18 18 17 15 13 15 17 17 16 15 15 16 17 18 18 18 20 21
11 16 21 20 17 15 14 13 12 12 11 11 11 10 11 8 7 7 10 10 9 9 10 11 12 12 13 14 16 17 18 17 18 18 19 18 18 18 18 16 15 17 17 17 16 16 16 17 18 18 19 19 18 18
20 21 16 17 16 13 13 13 12 10 11 11 11 9 7 7 3 7 9 12 12 11 12 13 14 15 16 17 18 18 19 19 18 17 17 16 16 18 18 18 19 19 20 20 19 18 18 19 19 19 19 19 19 18
19 19 18 16 17 16 14 12 11 13 13 12 10 8 8 10 10 9 10 11 11 13 15 17 18 17 17 17 17 18 18 18 17 17 16 16 16 16 14 14 14 14 14 16 19 21 20 20 20 20 20 20 18 14
19 16 16 15 14 13 15 14 13 12 13 12 12 13 13 13 14 15 15 15 15 15 16 15 13 11 13 12 13 12 13 15 16 15 13 13 13 13 14 14 15 15 13 14 15 16 18 17 17 18 18 17 14 12
14 14 14 14 14 13 11 8 9 12 12 13 10 14 14 14 13 11 9 8 8 9 14 15 14 11 11 11 9 8 9 9 10 10 11 12 12 12 12 13 13 14 13 14 14 15 14 13 14 16 17 16 13 13
16 15 13 12 14 10 6 10 9 12 9 11 11 6 10 11 10 10 9 7 11 16 15 12 11 10 10 9 9 8 11 11 10 10 10 11 12 13 13 12 9 9 11 12 12 11 11 12 13 13 14 13 12 11
13 11 11 14 15 15 9 10 9 10 8 9 9 6 5 7 5 8 6 5 10 13 13 11 9 9 9 8 8 8 10 8 9 14 16 19 21 21 13 10 8 8 9 9 9 9 10 10 9 9 9 9 9 8

GFSWCAN_sfc_30mbdewp_060.txt.gz
Dewpoint
42 43 49 50 49 48 48 46 45 43 42 43 43 43 40 40 40 37 37 37 30 27 29 30 28 25 24 23 23 22 29 31 34 31 30 30 26 25 25 25 26 25 24 24 24 22 19 28 30 26 29 26 25 25
41 44 51 49 48 48 47 45 45 44 42 42 43 43 42 40 40 37 33 37 34 30 29 33 32 32 31 30 26 26 30 31 31 31 32 30 27 29 26 22 26 26 26 24 26 24 28 28 29 30 23 22 21 21
41 43 49 49 48 48 47 45 45 44 43 43 43 42 42 41 40 37 36 35 32 28 26 27 26 29 31 32 31 22 29 31 29 31 31 31 28 31 25 26 28 28 31 29 28 28 26 23 30 24 26 26 26 23
41 45 50 49 48 47 46 45 45 44 43 43 43 43 41 40 39 37 34 36 32 29 24 25 29 28 31 34 33 31 31 32 31 31 27 27 28 28 27 28 28 27 27 23 23 24 23 28 25 26 28 28 25 26
42 46 49 48 48 47 46 45 45 44 43 43 43 42 40 39 38 37 36 36 34 30 25 25 28 28 30 32 33 33 31 29 27 26 27 26 27 27 25 24 23 24 23 22 21 25 25 26 28 30 30 29 29 31
42 44 49 48 47 46 46 45 45 44 43 43 43 41 39 38 35 32 28 34 36 32 28 25 27 29 30 30 31 31 30 29 28 25 24 25 26 26 20 15 20 23 23 27 27 29 30 31 31 31 29 32 33 32
42 44 48 48 47 46 46 45 45 44 44 44 42 40 39 39 38 31 29 33 36 31 27 24 25 26 31 30 29 28 29 29 27 26 25 23 23 26 22 18 17 24 28 31 31 31 30 31 31 32 34 34 33 33
43 48 48 47 47 46 46 45 44 44 44 42 41 39 38 37 35 32 37 35 32 26 22 15 18 26 30 28 27 29 27 28 28 26 26 23 23 22 17 19 21 27 30 30 31 31 32 32 32 32 31 32 32 33
45 48 47 47 46 46 46 45 44 44 42 40 39 38 33 31 31 33 36 34 33 28 14 16 11 13 27 28 32 29 28 23 27 23 23 24 21 22 22 20 23 26 28 28 30 31 31 31 32 32 31 31 32 33
45 47 47 46 46 46 45 44 43 42 41 39 33 29 29 33 38 38 32 28 27 28 26 19 24 19 25 26 27 26 27 24 22 23 25 23 23 25 25 26 27 28 27 28 28 27 29 29 30 30 29 30 31 31
47 47 46 46 46 45 44 43 42 41 38 33 29 30 34 37 31 27 20 16 18 12 25 25 24 22 28 24 25 28 25 24 21 23 23 23 23 25 27 28 29 29 29 28 27 27 29 29 30 29 29 29 29 29
46 46 46 46 45 44 43 42 41 36 34 32 34 34 30 24 17 7 10 17 12 10 26 23 26 25 27 30 25 29 24 25 21 26 23 21 24 28 29 28 29 28 28 28 28 26 27 29 29 29 29 29 26 28
46 46 46 45 44 43 42 40 37 37 35 31 25 21 17 14 -7 -11 -12 3 11 23 25 25 21 25 27 28 26 25 22 22 27 24 21 23 27 28 28 28 26 27 26 25 25 26 27 29 29 29 29 28 21 23
46 45 45 44 43 42 41 39 37 32 26 22 14 2 0 -4 -2 -2 3 9 21 25 24 23 24 25 25 24 23 21 23 27 22 19 21 24 25 25 24 23 23 22 23 23 24 25 27 29 29 29 29 28 26 24
45 45 44 43 43 41 39 38 33 28 24 11 11 -4 6 18 21 20 21 25 26 26 25 23 24 23 23 21 22 21 19 18 19 20 20 24 26 27 24 22 21 21 21 23 23 24 26 28 29 29 30 30 28 22
45 44 42 43 41 40 37 32 29 26 22 18 19 17 20 19 20 23 21 22 26 25 23 22 20 18 20 20 19 18 17 16 20 22 25 25 25 25 25 24 22 20 19 21 24 25 26 29 29 29 30 30 29 25
41 41 42 41 39 35 32 28 26 21 20 18 18 22 20 18 17 20 21 22 25 22 13 16 3 3 20 18 17 19 18 21 22 20 22 24 25 23 25 24 22 20 19 20 23 23 24 27 29 29 28 28 28 27
40 42 41 39 34 32 29 27 23 21 17 20 16 19 20 21 20 22 24 25 23 20 18 10 17 12 9 7 10 17 22 24 22 21 22 23 23 24 23 22 21 19 20 20 20 21 23 24 25 26 28 29 28 27
40 41 39 36 33 30 27 25 24 19 21 23 23 22 23 23 24 25 26 25 24 22 20 19 12 9 9 15 13 14 15 16 15 16 18 19 20 20 20 21 19 18 19 19 18 18 20 23 25 26 28 29 27 28
40 38 36 34 31 27 22 22 25 22 20 22 21 20 19 20 21 24 25 25 23 22 18 13 10 12 11 14 18 16 17 18 18 17 15 15 17 20 20 21 20 20 20 18 18 19 19 20 21 24 27 28 27 27
37 35 33 30 27 25 23 22 20 21 20 18 17 17 17 19 21 22 23 23 23 21 16 18 17 17 18 18 18 19 18 19 17 17 16 16 18 20 22 23 23 20 17 16 15 15 16 16 18 21 23 26 29 28
35 34 30 28 24 24 23 23 20 20 17 17 16 14 16 14 16 18 18 23 21 20 20 18 16 16 16 16 16 18 17 17 17 19 21 21 19 18 19 21 21 18 19 20 21 20 17 16 18 22 23 25 27 28
32 28 26 26 19 20 20 22 17 16 14 15 14 13 12 12 12 14 16 19 19 19 20 20 19 18 18 18 17 16 16 15 15 16 16 18 18 19 20 21 21 21 18 18 21 23 21 18 19 20 22 23 24 25
27 23 20 18 19 16 19 17 18 16 15 14 11 10 12 12 10 12 11 12 13 15 14 14 16 15 14 14 13 13 14 16 16 16 17 17 17 16 17 18 18 18 19 18 18 18 19 17 18 18 19 20 21 22
13 17 18 14 18 14 12 13 13 12 10 12 10 11 11 8 11 11 10 11 10 9 9 11 11 12 11 11 13 13 16 16 15 16 17 17 17 18 19 19 18 18 18 19 18 17 18 17 17 17 18 19 19 19
10 19 13 15 15 12 12 8 9 10 11 11 10 6 6 11 9 6 7 9 9 9 8 9 9 10 11 13 13 14 16 17 17 17 18 19 19 18 19 19 19 19 19 19 19 18 17 17 17 17 17 18 20 21
10 17 20 18 15 14 13 13 12 12 10 9 10 10 10 6 5 7 10 11 9 10 11 12 12 13 14 15 17 18 19 19 18 19 20 20 20 20 20 20 19 20 20 20 19 18 18 17 17 18 18 19 20 19
20 20 14 16 14 13 12 12 11 9 11 11 11 9 6 4 1 7 9 12 11 11 12 13 14 15 16 17 18 18 18 18 18 18 17 18 18 18 17 18 17 19 19 18 20 20 19 19 19 19 19 19 19 20
19 18 17 15 16 14 13 10 10 12 12 12 8 7 7 10 10 9 11 12 11 14 15 13 14 14 15 15 14 14 13 13 14 13 12 12 13 14 14 13 14 14 15 15 17 21 20 20 20 20 20 20 20 17
18 17 15 15 12 13 14 12 13 12 13 12 12 12 13 13 13 12 14 14 13 11 12 12 13 13 13 11 10 9 9 12 11 10 8 8 9 11 12 13 13 14 14 14 15 15 18 19 17 17 18 17 17 15
15 14 13 13 14 12 9 6 9 12 10 12 9 13 13 13 13 11 9 8 9 13 15 16 14 10 10 10 9 8 8 8 9 9 10 11 11 12 13 14 14 13 12 12 12 13 14 15 14 14 16 17 16 15
14 13 11 12 14 10 6 10 11 12 9 12 11 7 9 11 10 11 9 9 15 17 16 14 12 12 10 9 8 8 10 10 9 9 9 10 13 18 19 15 11 9 10 10 10 11 11 12 12 13 14 14 12 11
13 11 12 14 14 14 10 9 9 10 9 10 10 6 5 7 3 7 6 6 13 14 14 12 10 9 8 8 8 8 10 8 8 13 14 16 18 20 15 13 11 10 10 9 9 8 9 9 9 8 9 9 8 8

GFSWCAN_sfc_30mbdewp_063.txt.gz
Dewpoint
38 41 39 40 43 44 49 48 47 46 44 43 43 42 42 39 38 36 35 35 30 26 29 28 27 24 23 23 24 25 30 32 35 31 28 26 24 23 23 24 24 23 22 21 22 22 19 28 30 26 28 25 24 24
39 40 39 40 43 49 49 48 47 45 44 43 42 41 40 40 38 35 33 34 33 28 29 30 29 30 31 30 25 30 31 31 33 34 31 29 26 27 25 22 26 24 26 24 24 25 28 25 28 28 26 26 26 26
40 40 40 40 47 49 48 47 46 45 44 44 42 41 40 40 38 37 35 34 30 28 27 28 28 30 32 32 31 27 30 32 30 33 33 31 27 30 24 24 27 28 30 28 28 28 29 23 27 27 26 27 29 28
40 38 40 40 42 47 48 46 45 45 44 43 42 41 41 40 38 36 35 34 33 27 23 26 28 28 30 33 33 32 31 31 30 32 30 30 28 29 26 27 27 28 27 24 23 21 22 24 26 26 29 30 30 29
40 39 39 40 43 48 47 46 45 45 44 43 42 42 40 39 38 37 36 36 35 34 24 26 28 29 31 32 32 31 29 27 26 28 28 28 28 28 25 24 23 25 22 20 17 24 25 25 27 30 30 30 30 31
39 40 39 41 49 48 47 46 45 44 44 43 41 40 39 38 37 34 31 36 35 36 30 25 28 30 29 30 29 29 29 28 28 25 25 26 26 28 22 17 19 23 23 25 26 29 30 30 31 30 30 32 32 32
39 39 40 46 48 47 46 45 45 44 45 42 40 38 38 38 39 33 33 35 35 34 30 27 26 30 31 30 29 28 29 29 28 27 25 23 23 26 22 18 17 20 23 27 30 30 29 30 29 31 32 32 32 31
38 39 41 44 47 46 46 45 45 45 44 41 38 38 38 38 37 33 36 35 35 30 31 25 25 27 31 26 26 29 27 28 28 27 26 23 23 22 20 19 21 22 24 24 28 29 29 30 30 30 31 32 31 31
38 40 42 44 47 46 46 45 45 44 42 40 38 35 35 34 32 34 36 36 36 33 21 25 23 21 28 27 29 28 27 24 27 25 23 24 22 21 22 21 18 20 22 22 24 25 25 27 28 30 29 29 29 30
40 42 46 46 46 46 45 45 44 42 41 38 32 31 31 34 38 38 34 31 32 30 29 23 26 22 27 27 26 27 27 25 24 24 25 23 24 24 24 23 23 23 24 25 26 26 25 25 25 26 29 29 29 29
42 42 46 46 46 45 45 44 43 41 37 33 31 30 35 38 33 28 23 22 20 19 26 25 26 22 28 26 25 27 25 26 24 25 24 24 23 24 24 23 24 23 23 23 24 25 26 26 26 26 29 30 29 29
42 44 46 46 45 45 44 42 41 36 34 33 35 35 32 27 22 13 14 20 17 17 25 23 24 25 27 30 25 28 23 24 23 26 23 22 25 30 28 26 23 21 20 22 22 22 24 24 25 26 27 29 29 29
42 46 46 45 44 44 42 41 37 37 36 33 28 24 22 18 5 1 -2 9 17 25 26 24 23 25 28 27 24 24 22 22 27 22 21 24 26 22 21 24 24 24 22 21 22 24 24 24 24 26 28 29 28 28
44 45 45 45 44 43 41 39 37 34 30 23 12 2 8 1 9 12 19 22 26 28 26 25 24 25 25 24 23 21 22 25 19 17 20 24 25 25 24 23 21 22 22 22 23 25 25 26 25 28 29 29 29 29
46 45 45 44 43 41 40 37 30 29 25 14 16 0 10 21 23 23 27 26 27 26 25 25 25 25 24 23 22 22 20 18 18 19 25 25 24 24 23 22 21 22 22 22 23 25 25 26 25 26 29 30 30 31
45 45 43 43 41 40 36 32 31 28 25 23 22 18 21 21 22 25 26 25 27 26 26 25 22 20 21 21 20 19 18 16 21 27 25 21 22 24 22 21 20 21 21 20 20 22 24 24 25 26 28 28 29 31
43 41 43 41 38 34 33 30 28 23 24 23 21 22 24 22 24 24 22 22 26 25 21 22 8 12 21 20 17 19 19 23 25 22 21 20 22 19 19 21 21 21 20 19 21 21 21 23 24 26 26 26 28 31
41 42 41 37 33 31 30 29 25 23 20 23 20 22 21 23 22 22 24 25 25 22 22 15 20 14 11 9 14 20 24 28 29 24 20 20 19 18 18 19 21 21 21 22 22 21 21 22 23 21 24 26 28 30
41 40 38 34 31 30 26 25 27 20 23 24 24 24 24 24 25 26 25 24 24 22 22 21 12 11 13 16 18 24 22 21 15 15 16 17 17 17 18 21 23 23 23 22 21 18 17 19 20 22 24 26 26 29
39 37 34 33 31 26 23 23 28 25 22 22 23 21 21 22 24 26 26 25 25 25 16 12 11 14 13 17 22 21 21 20 17 15 12 11 14 17 20 21 21 22 23 23 22 20 20 20 19 17 18 21 23 26
34 33 32 30 29 26 24 24 22 23 22 19 20 21 20 24 25 25 26 26 25 21 16 20 17 18 18 18 18 19 19 18 17 15 12 14 16 19 21 22 24 22 22 20 17 17 20 26 28 24 18 21 23 26
34 33 31 29 26 25 23 23 21 21 19 19 18 20 20 18 20 20 20 24 23 24 23 20 19 18 18 18 18 20 19 19 18 18 19 19 19 18 18 19 20 20 22 22 21 18 22 27 27 19 20 21 23 25
31 29 28 28 22 21 20 23 19 19 16 15 18 15 14 15 15 16 17 22 22 22 22 21 21 20 19 19 18 17 18 17 16 16 16 16 17 18 19 20 19 20 21 22 23 22 23 25 20 19 18 20 21 22
29 25 22 20 21 17 20 18 18 18 18 15 13 11 13 14 13 15 13 17 18 17 16 17 18 15 16 16 13 13 16 19 17 18 17 17 18 18 17 17 17 18 19 20 21 21 20 19 19 18 17 18 20 20
16 17 19 14 19 14 14 14 15 13 11 13 11 11 11 11 13 12 12 15 15 14 15 14 14 14 12 13 15 15 17 17 17 17 18 18 19 19 19 20 20 20 20 21 21 21 21 21 20 20 19 19 19 19
14 18 15 14 14 12 13 8 10 11 12 11 10 9 10 13 10 8 10 13 12 13 13 14 13 13 14 16 16 17 18 19 19 19 19 20 21 20 20 19 20 20 22 22 21 21 21 21 20 20 19 19 19 20
13 18 19 17 15 15 13 13 13 13 10 9 11 10 11 6 5 8 11 12 12 16 16 17 16 16 17 18 19 19 20 20 20 20 20 19 20 20 20 20 19 20 20 20 20 20 20 20 20 19 19 20 20 20
20 19 14 16 15 15 11 12 11 9 11 13 12 7 6 4 1 10 13 17 18 17 17 18 18 18 18 19 19 18 17 16 16 17 18 18 20 19 17 17 16 16 17 17 18 19 20 20 20 20 20 20 20 21
18 18 18 15 15 14 13 11 11 13 12 14 9 7 8 11 14 13 15 17 16 17 16 16 19 18 19 19 17 16 14 13 13 12 11 11 11 12 14 13 14 15 15 15 16 19 21 21 21 21 21 21 22 20
17 19 15 14 13 14 15 12 14 14 14 14 13 13 13 14 17 15 15 17 17 15 17 17 16 15 15 14 13 12 12 12 12 11 10 8 9 10 11 12 14 15 15 15 14 15 17 18 19 18 18 18 18 18
16 16 14 15 13 12 11 8 11 12 12 13 12 15 14 14 15 14 12 12 15 17 18 18 17 14 13 13 11 10 10 11 10 10 10 11 11 11 12 13 16 16 14 12 11 12 13 14 16 15 15 16 16 17
14 12 13 13 14 11 9 12 13 13 13 14 13 11 12 13 8 14 11 11 16 18 19 17 16 15 13 11 10 9 11 11 10 10 9 9 10 13 17 17 14 13 12 12 12 12 11 11 12 12 14 15 13 12
13 14 15 14 14 13 12 12 11 11 11 11 10 8 8 7 1 9 9 10 14 17 16 15 13 12 11 9 9 9 10 10 9 13 14 16 18 22 20 16 14 13 12 11 11 10 9 9 9 8 8 8 8 8

GFSWCAN_sfc_30mbdewp_066.txt.gz
Dewpoint
38 37 37 38 40 42 41 43 47 48 47 45 43 42 41 41 39 38 36 36 32 28 28 29 29 25 24 24 27 27 31 33 35 32 29 29 27 24 24 25 24 26 25 23 24 24 19 27 30 27 26 26 27 27
39 38 37 38 40 41 41 45 47 47 47 44 43 41 40 40 39 36 33 33 34 31 29 30 30 30 31 30 29 31 32 32 34 33 30 29 25 27 25 23 27 24 27 26 25 26 27 25 28 26 26 26 28 29
39 38 37 38 39 40 42 47 48 47 46 45 43 42 41 40 39 38 35 32 31 29 29 28 27 30 32 33 32 29 31 32 31 33 33 32 28 30 25 26 26 28 29 28 27 29 29 27 28 27 29 30 30 30
40 38 38 39 39 39 42 48 47 46 46 44 42 41 39 38 38 37 35 36 34 30 25 26 29 29 31 33 32 32 32 31 31 33 32 29 28 29 27 28 27 28 28 24 24 23 23 26 27 30 30 30 30 31
40 39 38 39 38 40 42 47 46 45 45 43 42 41 40 38 38 37 37 36 36 33 25 27 30 30 31 32 32 30 29 28 28 30 30 29 29 29 26 24 24 26 24 22 22 27 27 27 30 31 30 30 31 31
40 38 39 39 38 39 42 47 46 46 46 44 43 42 39 38 38 37 29 34 35 36 29 25 30 29 30 30 29 29 29 29 29 28 26 26 26 28 24 19 23 23 23 25 25 28 30 30 30 30 30 31 32 31
40 38 40 39 38 40 47 46 45 46 44 43 42 40 39 39 38 35 33 33 34 36 29 26 26 31 31 30 29 29 30 30 29 27 26 24 25 27 25 19 20 22 23 27 29 29 28 29 28 30 30 30 31 31
38 39 39 39 39 46 46 45 45 44 42 41 40 39 39 38 37 32 36 37 37 31 33 25 24 27 31 26 27 30 27 29 29 27 26 24 24 23 20 22 20 23 23 24 24 26 26 26 26 27 28 29 29 29
38 40 39 39 46 46 45 45 45 42 40 40 39 38 35 34 33 31 35 37 37 32 19 28 23 22 29 27 28 29 28 25 27 26 25 24 23 21 22 21 20 21 22 23 24 25 26 25 25 25 25 26 26 27
40 39 38 40 42 46 45 46 43 41 40 39 34 32 28 34 36 38 34 30 27 29 29 22 27 23 28 26 26 26 26 25 23 25 26 23 24 25 22 23 23 24 24 24 24 23 25 25 26 26 26 26 26 27
39 38 38 42 43 45 45 45 42 41 38 34 32 30 36 39 35 29 19 20 23 21 27 26 26 24 29 24 24 27 24 25 22 25 24 23 24 24 23 22 22 20 20 21 22 23 24 24 24 25 26 26 26 27
39 38 40 45 45 45 45 43 41 34 33 34 34 36 35 29 22 10 14 18 20 18 25 23 25 27 28 30 24 26 23 23 21 26 23 20 28 26 22 23 22 22 22 22 21 21 22 23 24 24 24 25 27 28
38 40 43 45 45 45 44 41 36 38 36 35 29 24 25 16 3 -7 -6 10 15 25 26 24 23 26 27 26 24 23 21 22 26 22 19 25 25 21 22 23 22 22 23 22 22 23 24 25 25 25 25 25 28 28
40 42 45 45 45 44 42 39 39 35 33 23 12 -1 9 -1 8 18 20 21 28 28 28 26 25 25 25 24 23 20 23 24 19 17 18 25 23 24 23 22 22 21 23 23 23 23 24 24 24 25 25 25 27 28
41 44 45 44 44 43 39 40 37 30 28 13 19 -5 9 23 24 27 28 26 28 28 26 25 25 25 24 22 24 22 19 18 18 19 26 24 22 22 22 23 22 21 21 21 22 21 21 22 24 23 24 24 26 28
43 45 43 44 43 41 40 35 30 29 27 24 23 16 22 20 23 26 26 25 28 27 26 26 22 20 20 22 19 19 18 14 21 26 25 21 19 21 21 20 20 20 21 21 21 20 21 20 20 20 23 24 26 27
43 41 44 43 41 39 34 29 28 25 24 24 21 24 26 24 25 26 23 24 27 26 17 21 6 14 22 19 18 19 18 22 26 23 24 21 20 20 19 19 19 20 21 21 21 21 21 22 21 21 20 22 24 26
40 43 43 41 37 33 29 30 25 23 19 24 22 22 23 24 23 23 25 26 25 22 24 14 19 13 10 5 13 20 23 27 29 27 23 19 19 18 17 17 18 19 20 21 22 22 22 20 17 18 20 21 23 25
42 42 40 36 31 30 24 24 27 19 23 24 24 25 25 25 26 25 24 23 23 24 21 19 9 7 10 15 17 22 24 24 16 16 16 16 17 16 16 17 19 21 21 21 22 23 22 20 18 19 21 20 19 21
41 40 36 33 31 25 22 24 29 24 21 22 23 21 23 24 26 27 26 25 26 24 8 6 9 15 14 19 23 24 24 22 19 15 14 14 14 14 15 18 19 21 22 23 23 23 22 21 21 21 21 21 19 18
39 36 32 30 28 27 25 23 22 24 22 19 22 22 22 25 25 25 23 25 22 16 9 20 17 18 18 19 19 18 18 18 17 17 15 14 15 17 18 20 21 23 22 20 20 20 20 18 20 24 27 21 19 21
35 30 29 30 26 25 22 23 22 22 20 19 20 23 20 18 19 18 19 22 20 24 23 20 19 18 17 17 18 19 19 18 17 18 19 18 17 17 18 19 19 19 20 21 21 22 22 23 21 25 24 20 20 21
29 26 29 29 22 20 19 24 18 21 13 15 20 15 15 14 15 16 16 22 23 23 23 21 21 20 18 18 18 15 17 16 15 15 16 16 16 17 17 18 19 19 19 19 20 21 21 22 22 22 21 19 19 19
29 26 23 21 20 18 21 18 19 19 20 16 12 10 13 13 14 15 10 17 19 18 17 17 17 14 16 15 13 14 16 19 17 17 18 18 18 18 18 18 18 18 19 20 20 20 21 21 22 21 20 18 18 18
17 19 20 14 20 16 14 15 16 14 11 14 10 10 10 12 12 9 9 15 16 14 16 14 13 13 12 13 14 16 18 18 17 17 18 18 19 19 20 20 20 20 21 22 22 22 21 21 21 21 20 20 19 18
17 19 17 15 14 12 15 8 12 12 12 11 10 10 11 13 8 5 10 13 13 13 12 11 13 13 14 16 16 16 18 20 20 18 19 20 19 18 18 17 17 17 20 18 18 18 17 18 19 19 19 19 20 20
14 16 17 17 17 16 13 14 16 13 8 5 9 10 10 3 3 7 13 13 11 15 18 16 15 15 15 16 19 20 20 18 17 17 17 16 17 19 19 17 15 15 17 18 17 16 16 16 17 18 18 19 19 19
19 20 12 17 17 18 11 12 9 7 11 14 12 6 3 2 0 11 14 18 18 16 17 18 18 17 17 17 18 17 16 14 14 14 15 15 18 16 15 12 13 15 15 15 16 17 16 17 17 18 18 18 19 20
19 20 20 15 15 13 13 12 12 13 13 14 8 7 7 12 15 15 15 16 16 16 15 15 19 16 16 16 15 16 14 12 11 10 9 8 8 8 10 10 11 12 14 15 15 15 17 18 20 21 22 21 22 20
17 19 15 15 13 13 13 12 13 14 14 14 14 13 13 14 17 15 15 15 15 14 15 16 15 14 13 12 12 11 11 12 11 9 7 6 7 9 10 10 11 13 15 15 13 12 13 15 15 16 16 16 16 16
19 18 14 14 13 12 11 10 12 13 13 13 13 14 13 12 13 14 12 13 15 16 17 17 16 15 13 11 10 9 8 10 10 9 9 10 10 10 10 11 12 15 13 12 11 11 11 11 11 12 12 13 14 14
15 14 14 13 13 12 10 12 12 12 13 13 11 11 11 11 3 12 11 10 15 16 18 17 16 14 13 11 10 9 11 10 9 9 9 11 12 14 16 18 16 14 12 12 11 10 9 8 8 8 9 9 9 8
14 15 14 13 13 12 12 11 10 10 10 9 8 7 7 6 -4 8 10 10 13 16 17 15 14 12 11 9 8 8 10 8 9 13 13 15 16 17 20 19 15 12 11 11 10 9 8 7 7 6 6 6 6 5

GFSWCAN_sfc_30mbdewp_069.txt.gz
Dewpoint
39 39 39 40 40 39 41 40 42 45 49 47 46 46 43 44 43 34 34 36 30 28 29 30 30 26 25 27 30 28 31 33 34 31 28 28 25 24 25 25 26 25 24 24 24 24 21 26 29 26 26 27 28 29
40 40 40 39 39 39 41 40 43 48 47 46 45 44 43 44 39 36 32 34 33 29 29 31 31 32 31 30 30 32 31 32 34 32 30 28 26 27 25 22 27 24 26 24 25 24 25 28 26 28 29 29 29 29
40 40 40 40 40 39 41 40 42 48 46 45 44 43 43 41 39 37 33 32 31 29 27 27 27 29 32 33 32 30 31 32 31 33 32 30 27 29 25 27 26 28 29 27 27 28 27 28 30 30 30 30 30 31
40 41 40 40 40 39 41 40 44 47 46 45 44 42 41 40 39 36 32 37 32 29 24 27 30 30 32 33 31 32 32 31 32 33 31 29 27 29 27 27 27 28 28 25 24 24 26 29 30 30 30 30 30 31
41 41 40 40 39 40 41 41 46 46 46 46 44 43 41 40 39 36 35 36 36 27 25 27 30 30 31 32 30 30 29 29 29 29 30 28 29 28 26 24 25 27 26 24 22 26 26 27 30 30 30 30 31 31
41 41 40 40 39 40 40 43 47 45 45 45 44 42 41 40 38 34 24 32 36 32 27 24 30 29 30 30 29 29 29 29 29 27 26 26 27 28 22 20 22 24 25 25 26 28 29 30 30 30 29 29 31 31
41 41 40 40 40 40 40 46 45 45 45 45 42 41 41 40 37 34 28 31 35 35 26 25 26 30 32 30 30 29 30 29 29 27 25 24 25 26 25 19 21 22 26 28 29 28 28 29 26 26 28 29 29 29
41 40 41 40 40 39 40 46 46 46 45 43 42 42 38 37 36 28 32 36 37 33 28 21 24 26 30 26 27 30 27 29 27 27 25 23 24 23 19 23 23 23 24 23 23 25 25 25 24 25 26 26 26 26
41 41 40 40 40 39 40 46 46 45 43 42 41 40 36 34 29 27 35 38 38 23 23 22 19 18 28 27 28 28 28 25 27 26 25 24 23 20 21 22 22 23 22 23 24 24 25 25 25 25 26 26 25 25
42 41 40 40 39 43 46 46 44 43 42 41 37 32 26 33 37 38 33 22 27 28 25 24 24 24 27 26 25 25 26 25 22 25 25 22 23 24 23 23 23 23 23 23 20 16 21 20 22 22 23 24 25 26
42 41 40 38 44 45 45 44 43 42 38 33 30 30 36 39 32 27 16 8 22 18 25 26 24 25 29 24 24 26 23 24 21 24 23 22 23 22 22 20 19 19 19 20 21 22 22 22 21 22 23 23 24 24
41 41 40 40 45 45 43 42 40 36 35 33 32 36 34 27 21 5 12 16 20 12 25 23 26 27 27 29 24 25 22 23 20 26 22 19 26 24 20 19 19 20 20 20 21 21 21 22 23 24 24 23 24 24
41 41 40 42 42 44 43 40 35 38 36 35 27 23 22 15 -3 -11 -9 8 17 25 25 25 24 26 26 25 23 22 20 20 25 20 18 21 27 22 21 22 21 22 22 22 22 23 23 23 24 24 23 23 24 24
41 40 40 40 42 45 43 39 40 36 31 21 11 4 6 -2 4 10 7 12 26 25 24 25 25 24 24 23 22 19 22 22 18 16 16 23 21 20 21 20 21 20 21 21 21 21 21 21 21 22 23 23 23 22
41 40 41 45 44 43 41 40 37 31 27 14 16 -10 7 21 25 27 27 27 28 27 25 23 24 24 23 22 23 21 19 17 17 17 24 25 23 19 18 21 22 21 20 19 20 20 20 20 20 21 20 20 22 22
41 41 43 44 43 42 40 33 29 28 27 23 20 16 23 21 24 25 26 25 26 26 25 23 21 17 20 21 18 17 13 9 16 25 25 22 16 18 19 19 18 18 19 20 20 20 21 20 20 20 21 20 19 21
41 42 45 43 42 40 34 28 27 26 24 20 21 24 24 23 24 24 24 24 27 23 10 16 2 13 22 17 16 19 14 17 25 25 21 21 17 17 18 17 16 17 18 18 19 19 20 21 21 20 17 17 19 21
39 44 44 42 39 33 29 30 27 22 20 23 19 22 24 25 23 22 25 26 22 21 22 8 20 12 5 0 9 18 21 25 26 25 25 23 19 18 18 16 16 17 18 18 19 19 19 20 20 20 18 18 20 22
43 43 42 39 33 27 21 24 24 18 23 23 24 25 25 25 25 24 23 23 24 24 21 14 5 3 8 15 16 20 23 23 17 14 16 16 16 16 16 16 17 17 17 18 19 20 21 22 22 22 21 20 20 21
43 42 39 34 28 24 22 24 27 21 18 21 21 21 24 25 26 24 24 25 26 19 6 3 7 14 14 19 21 23 23 22 18 14 11 11 13 14 14 16 16 18 19 20 21 22 21 21 20 21 21 21 21 24
40 39 34 29 28 26 23 22 22 22 21 20 22 22 23 24 22 21 18 23 16 12 6 18 15 17 18 18 18 18 17 17 15 15 14 15 17 18 18 19 19 19 19 20 20 19 20 20 21 21 21 22 24 24
38 33 29 30 24 23 21 23 20 22 19 20 20 22 20 17 17 15 17 17 17 22 22 19 19 18 16 16 17 19 18 17 17 17 18 18 16 16 17 18 18 17 18 18 19 20 20 20 21 22 22 23 23 22
32 27 28 26 19 18 19 24 19 21 11 15 20 14 15 13 14 15 13 18 21 22 22 20 20 19 17 17 17 14 16 16 15 15 16 16 17 18 18 18 18 18 18 19 19 20 20 22 22 22 22 21 20 20
29 26 23 19 17 17 21 18 20 18 20 18 13 10 12 12 13 12 5 14 18 19 18 18 16 13 16 15 12 14 16 18 17 17 18 18 17 18 19 19 19 20 20 21 21 20 19 19 19 19 19 19 18 18
17 19 18 14 19 15 13 15 16 13 11 16 9 9 10 12 8 6 5 11 16 14 15 15 14 13 11 12 14 16 18 18 18 17 17 18 19 17 15 16 17 18 19 16 15 15 15 16 16 17 17 17 18 19
17 19 16 13 14 11 13 9 11 12 14 9 10 10 11 12 5 2 8 12 14 13 13 10 11 13 13 16 15 16 18 19 16 14 15 17 15 15 15 14 15 15 15 15 15 14 13 13 13 13 14 16 18 18
14 14 16 19 16 15 14 17 19 11 5 4 9 10 10 -1 0 6 14 15 11 16 14 15 14 13 13 15 18 19 18 16 14 13 14 14 14 16 16 12 10 11 14 16 15 13 13 13 13 14 14 16 17 17
19 18 9 16 16 18 11 13 8 6 10 12 10 4 0 2 2 10 13 18 16 15 15 16 16 16 16 16 16 15 15 13 11 9 9 9 9 10 9 9 10 13 14 13 15 16 16 15 14 14 15 16 18 19
18 20 19 15 15 14 13 11 11 13 14 11 6 6 6 12 15 13 15 15 15 16 13 14 17 13 14 12 12 12 11 11 9 8 7 7 6 7 7 9 9 10 11 12 14 15 16 17 18 18 18 16 17 16
18 20 17 15 13 11 11 12 13 13 14 14 14 13 13 15 15 13 15 15 14 12 13 14 14 14 14 12 11 9 9 10 9 8 6 6 6 8 9 10 10 11 11 13 11 10 12 13 11 10 11 13 13 13
20 18 14 13 11 11 10 10 11 13 12 11 11 11 12 12 13 13 12 14 13 14 16 16 16 13 14 11 9 8 7 8 9 9 8 9 10 10 10 11 12 12 13 11 10 10 9 8 7 8 8 9 10 10
16 14 13 11 12 12 10 11 11 11 12 11 8 8 10 8 1 11 11 13 15 15 17 16 16 16 12 11 10 9 12 10 9 8 9 10 12 13 15 17 15 13 10 9 9 8 7 7 6 6 6 6 6 6
14 14 14 13 13 12 12 10 9 9 8 7 6 6 6 2 -9 6 9 9 12 13 15 16 14 12 10 9 8 8 10 7 8 12 14 16 17 18 17 17 15 12 9 8 7 6 6 6 6 5 5 5 5 5

GFSWCAN_sfc_30mbdewp_072.txt.gz
Dewpoint
40 40 40 40 40 41 41 41 41 45 49 48 47 46 45 45 40 35 33 36 29 28 29 30 30 26 28 31 30 30 31 33 33 29 27 27 24 24 25 25 25 24 23 23 23 23 20 26 29 24 25 28 29 29
39 40 40 40 41 41 41 41 42 46 48 47 46 45 45 45 41 36 30 33 33 29 29 30 30 32 31 30 31 32 30 33 33 30 30 28 27 26 24 23 27 24 25 24 24 24 25 28 27 29 28 28 29 29
40 40 40 40 41 41 41 41 42 47 47 46 45 44 44 43 38 35 32 32 31 27 27 27 27 29 32 32 33 31 32 32 32 33 30 30 26 29 24 25 25 28 29 27 27 27 27 29 30 30 30 29 30 31
40 41 40 40 41 41 40 41 41 47 45 44 44 44 43 40 40 34 32 36 29 27 24 27 31 30 32 32 31 32 32 32 33 32 30 28 26 29 27 27 27 28 28 26 24 26 28 29 30 30 30 30 30 31
41 41 41 40 41 41 40 41 42 46 45 44 44 42 42 41 39 36 36 36 35 25 25 27 29 30 31 30 30 30 30 29 30 29 29 28 28 27 25 24 25 27 26 24 24 25 25 27 30 30 28 28 30 30
41 41 41 41 41 41 40 40 41 46 44 45 44 42 41 41 37 30 26 33 35 32 27 24 30 29 30 30 29 29 30 29 29 27 26 26 27 27 23 20 22 24 25 26 26 28 29 30 30 29 26 27 29 29
42 42 41 41 41 41 40 43 47 45 45 44 42 42 42 39 36 33 27 32 36 32 27 25 26 30 32 30 29 29 30 29 27 26 24 24 24 26 24 18 22 24 28 28 28 29 27 28 24 25 25 26 27 27
42 42 42 41 41 41 41 43 45 46 44 44 43 41 39 38 35 29 33 38 37 30 25 21 25 26 30 27 26 29 27 27 27 26 25 23 23 23 18 22 23 25 24 23 23 24 23 25 24 24 25 25 25 24
43 42 42 41 41 41 41 40 45 45 44 42 40 40 35 33 26 28 36 38 35 23 20 20 20 21 28 28 28 27 28 24 27 25 25 24 22 19 21 22 22 23 22 21 23 23 24 23 22 22 23 23 23 23
43 42 42 42 42 41 41 43 46 45 43 41 36 32 26 32 39 37 31 23 26 26 25 23 24 24 26 26 25 24 26 25 20 25 25 21 23 23 23 23 23 23 23 22 15 10 18 18 20 21 21 23 23 23
43 43 43 43 42 41 40 45 45 43 38 32 30 30 35 39 31 26 17 9 20 16 25 24 25 25 28 24 24 25 23 23 21 23 21 21 23 22 22 19 19 19 19 19 20 21 21 21 21 21 21 22 22 21
43 43 43 42 40 39 41 45 43 36 32 32 33 35 32 24 18 5 9 15 19 10 24 24 26 27 27 27 24 25 21 22 19 26 21 19 23 23 20 17 18 19 19 20 21 21 21 22 22 23 23 22 21 21
43 43 42 40 42 45 45 43 39 38 36 33 26 23 19 14 -2 -9 -11 4 17 24 25 25 23 24 25 25 23 22 19 19 25 21 18 20 25 21 21 21 20 21 21 21 21 21 22 22 22 22 21 22 22 21
43 42 40 41 45 44 43 40 40 35 31 20 13 11 7 -0 3 1 5 10 22 25 24 24 24 23 24 22 22 19 23 22 17 16 16 20 26 20 21 20 20 18 20 20 20 20 19 20 20 21 21 22 21 19
42 41 40 45 44 43 42 41 35 30 25 16 11 -2 4 19 26 26 25 26 26 26 23 22 23 23 22 22 22 21 19 16 16 14 18 24 24 20 18 18 19 19 18 17 17 16 16 17 19 19 20 21 20 20
41 41 38 40 44 43 41 36 30 28 27 21 18 15 23 22 24 25 25 25 26 24 24 21 17 14 19 20 18 16 10 5 13 21 25 24 21 18 17 18 19 18 17 15 16 17 18 18 18 19 21 20 20 19
40 39 40 40 42 43 36 29 27 24 24 19 20 24 23 21 22 24 24 23 27 19 7 10 1 12 21 16 14 17 12 13 21 25 24 23 15 16 17 18 17 15 14 15 16 17 18 19 19 18 18 18 19 19
38 39 40 43 42 38 32 30 26 22 20 23 20 23 25 24 24 23 25 26 22 21 17 8 20 11 3 0 6 17 20 22 24 24 23 23 22 19 18 17 17 16 16 16 17 18 18 18 19 20 21 21 21 20
37 44 44 41 37 32 29 26 23 19 22 23 24 25 24 24 24 24 24 23 24 24 17 10 2 2 6 13 12 18 21 23 21 15 15 16 15 14 15 16 17 17 16 16 17 18 19 21 21 22 21 21 21 21
41 43 40 38 31 24 23 25 25 21 20 21 21 23 25 24 25 23 23 24 24 10 3 2 5 10 12 17 20 21 22 21 16 10 8 10 13 15 17 17 17 18 18 18 18 20 21 20 21 20 20 21 22 22
42 40 40 32 28 27 23 22 21 21 21 20 23 22 21 22 20 18 15 20 10 8 6 18 16 17 18 20 18 17 17 16 13 13 12 12 16 18 16 17 17 18 18 18 18 19 19 19 20 21 21 22 23 23
38 38 32 29 24 22 21 23 21 22 19 19 21 21 18 15 14 14 15 12 13 21 21 18 19 18 16 16 16 17 17 17 17 16 18 18 15 16 17 18 18 18 18 18 19 19 20 21 22 23 24 23 23 21
36 33 29 27 20 19 19 24 20 20 13 15 18 13 14 16 14 14 12 15 19 21 21 19 18 17 16 16 15 14 16 16 15 15 16 17 17 18 18 18 19 18 18 18 20 19 18 17 16 17 17 17 18 18
34 29 24 19 19 18 21 19 21 19 19 16 10 9 13 13 13 9 3 11 17 19 19 17 16 14 14 13 12 15 17 17 17 17 17 17 15 17 17 16 16 17 19 17 14 14 14 14 14 14 15 15 15 16
27 22 20 15 19 15 15 16 16 13 10 14 9 10 11 12 5 2 2 9 16 15 16 16 13 11 10 11 14 16 18 18 17 14 14 16 14 13 12 14 15 16 15 12 12 13 13 13 13 13 12 12 14 16
23 21 15 12 15 9 12 6 9 12 13 12 11 11 12 11 1 -1 6 12 15 14 14 12 11 12 13 14 13 15 18 18 15 12 12 13 13 13 13 13 11 9 11 12 13 12 11 11 12 12 12 13 15 16
16 14 16 19 17 17 15 17 18 13 9 7 9 10 8 -1 -2 5 14 15 12 13 13 13 13 10 11 15 17 18 17 14 12 11 11 11 12 13 14 10 9 10 12 14 13 12 12 12 12 12 13 13 14 16
16 16 11 16 16 17 12 14 12 9 10 11 9 2 1 1 3 10 12 15 15 14 14 13 13 15 15 15 15 13 13 11 8 7 7 8 7 8 8 7 9 14 14 11 14 15 14 13 13 13 14 14 16 17
17 19 18 14 14 13 14 15 14 15 14 11 5 5 5 12 15 15 16 15 14 15 14 15 15 13 11 10 10 9 9 9 8 7 7 7 6 7 6 8 10 10 10 10 13 14 15 16 16 15 15 14 14 13
17 20 15 14 14 13 11 12 14 14 14 13 13 13 13 15 14 12 14 15 14 12 11 13 13 13 13 12 10 8 8 8 8 8 8 7 7 7 8 9 10 11 11 11 10 9 11 11 8 7 9 10 11 10
21 16 13 12 11 11 11 11 12 13 11 10 10 10 11 12 13 13 12 12 10 12 14 15 14 11 13 11 9 8 7 7 7 8 8 8 8 9 10 10 11 13 12 9 8 8 7 6 5 5 5 5 6 6
16 15 14 13 12 12 11 11 11 10 9 8 7 8 9 6 8 12 11 12 13 15 17 15 16 16 12 10 9 9 12 10 8 7 8 10 11 12 14 15 15 13 9 7 6 6 5 5 5 4 5 5 4 4
16 16 15 14 13 12 11 9 8 7 7 6 5 5 4 -0 -9 8 9 9 13 14 15 15 14 11 10 9 8 7 10 6 7 13 14 16 17 18 15 15 14 11 9 8 7 5 6 5 5 4 4 5 5 5

GFSWCAN_sfc_30mbdewp_075.txt.gz
Dewpoint
37 38 40 41 41 41 42 42 42 44 48 48 48 48 48 47 40 37 32 34 30 28 29 30 30 28 31 32 30 32 31 32 32 28 26 26 24 24 25 25 25 25 24 23 23 22 18 27 28 23 24 28 28 28
37 39 40 41 41 41 42 42 42 44 48 48 46 46 46 45 39 36 29 33 33 29 29 30 30 32 31 30 31 31 30 32 32 29 29 28 27 25 24 22 27 23 25 24 24 23 26 28 28 28 28 28 29 29
38 39 40 41 41 41 42 42 42 48 47 46 45 44 44 45 39 35 31 32 29 27 27 28 28 30 32 32 33 31 32 33 33 32 29 29 25 28 23 24 25 28 29 27 26 26 27 28 29 29 29 29 30 30
38 39 41 41 41 41 42 42 43 47 46 45 43 44 43 41 38 34 32 35 29 27 24 27 30 30 31 31 31 33 32 33 33 32 29 28 26 29 26 27 26 27 28 27 25 26 28 29 29 29 30 29 30 30
39 40 41 41 41 42 42 41 42 44 45 44 43 44 42 41 39 36 36 36 33 25 25 27 29 30 31 31 30 31 31 30 30 29 28 27 28 27 25 25 25 27 27 25 24 25 26 26 30 30 27 25 28 29
39 40 42 42 42 42 42 41 41 43 44 44 44 43 42 41 38 31 27 33 34 31 26 23 30 29 31 30 29 29 30 29 28 28 26 26 27 26 23 22 22 24 25 26 25 28 28 30 30 29 24 25 27 28
39 40 42 42 42 42 42 41 43 45 44 43 41 43 40 38 36 31 29 32 36 32 26 25 24 29 32 29 29 28 29 29 27 26 24 24 24 25 22 19 21 25 28 27 28 28 27 27 23 27 24 25 26 25
39 41 42 43 42 42 42 43 46 45 43 42 43 42 39 38 35 29 36 39 34 26 25 23 24 25 29 26 25 29 26 26 27 25 25 22 23 22 18 22 23 26 24 22 21 23 21 25 23 23 24 23 22 21
40 41 42 43 42 42 42 42 46 44 43 43 40 39 35 32 26 28 38 36 32 23 16 22 21 20 28 27 28 27 27 22 26 24 24 23 21 17 18 22 23 24 22 21 22 23 23 21 20 20 20 20 20 21
40 41 42 43 42 43 42 41 45 45 42 42 36 33 26 31 39 37 30 23 23 25 25 22 24 24 26 26 25 24 26 23 19 25 25 22 21 24 23 24 23 23 22 22 15 9 17 17 18 19 19 21 22 22
41 42 43 43 43 43 42 42 45 43 41 32 30 29 34 38 30 25 19 10 19 16 25 24 24 24 27 23 24 25 23 23 20 23 21 20 21 23 22 21 21 19 18 18 19 20 20 20 20 20 20 21 22 22
42 43 44 44 43 43 43 42 45 39 33 32 33 35 31 24 16 7 7 15 18 8 24 24 26 27 27 27 24 24 21 22 19 25 21 18 20 24 21 18 17 18 18 19 20 20 21 21 21 21 21 21 21 21
43 44 45 44 44 43 42 44 41 37 34 32 26 23 18 16 5 -6 -11 1 14 23 25 25 23 25 25 24 23 21 19 19 24 20 18 19 23 24 21 20 19 21 20 19 19 20 20 19 20 20 19 20 21 21
44 44 44 44 43 43 41 43 41 36 32 24 17 17 12 4 3 -1 2 10 23 24 24 23 23 22 24 21 20 18 23 21 17 14 12 17 23 23 20 20 19 16 18 19 18 18 18 17 17 18 19 19 20 20
44 44 44 43 43 41 42 43 39 32 27 19 13 6 9 18 25 25 24 25 25 25 23 22 22 22 21 22 21 21 18 16 15 11 16 21 23 24 20 19 17 17 18 17 16 15 15 15 16 17 18 20 20 20
44 43 41 41 43 44 43 39 33 29 27 19 17 12 22 22 24 25 24 24 25 23 23 20 15 13 18 20 17 15 8 2 10 17 22 24 23 21 19 17 17 18 18 17 16 16 16 16 16 17 19 19 18 19
41 38 40 45 43 40 38 33 29 27 26 20 18 23 22 22 22 24 24 24 25 19 6 9 1 11 20 14 11 15 8 10 17 22 24 23 20 14 17 17 17 17 17 16 15 16 16 17 17 17 17 19 19 20
37 40 42 44 40 37 34 32 29 26 20 22 21 24 24 24 24 23 25 26 23 19 14 9 19 13 3 -0 4 17 19 20 22 24 24 22 22 18 16 15 16 17 17 17 17 17 17 17 17 18 20 21 21 21
39 40 42 40 37 34 31 30 27 18 22 24 25 25 24 24 24 25 24 24 24 23 17 9 1 1 3 10 11 17 20 24 24 21 15 16 14 13 15 16 17 16 16 16 17 17 18 19 20 21 21 21 20 21
40 41 41 41 36 29 27 26 26 22 21 22 23 24 24 23 23 22 22 23 22 12 4 1 3 8 11 16 19 21 22 20 14 7 6 9 13 15 16 16 16 17 17 17 18 19 19 20 20 20 21 21 22 22
38 40 41 36 31 29 27 24 21 21 21 22 23 22 21 20 17 15 15 18 12 6 8 16 16 18 21 21 20 19 17 13 10 10 10 10 16 18 16 17 17 18 18 18 18 18 18 18 19 21 21 21 22 23
39 39 32 32 27 25 23 23 21 22 20 21 21 19 15 12 11 12 14 11 13 20 18 16 17 17 16 15 15 15 16 16 16 15 17 18 15 16 16 17 18 16 16 16 17 17 16 15 15 15 16 16 16 17
36 34 30 29 24 22 20 24 21 21 18 19 17 12 13 13 14 15 11 13 19 20 20 18 17 16 16 17 16 16 15 14 13 15 16 16 17 17 17 16 16 15 15 16 16 14 13 14 13 14 13 13 13 13
34 30 27 24 22 19 22 21 22 20 19 16 10 8 11 13 14 9 3 12 18 20 18 17 16 13 13 13 12 15 16 17 16 16 16 15 14 14 14 13 14 15 16 13 12 12 12 12 12 12 12 12 11 12
28 24 25 19 20 18 16 18 18 16 13 13 9 10 11 13 5 2 1 11 18 18 17 15 13 12 10 11 14 16 17 18 15 13 13 15 12 12 12 13 13 13 14 11 11 11 11 11 11 11 11 12 13 15
22 21 21 16 15 12 13 8 10 11 12 11 11 12 13 10 1 -1 3 12 16 17 16 14 11 11 11 12 12 14 17 17 14 11 11 12 11 12 11 11 9 9 11 11 11 11 10 10 11 11 11 12 14 14
19 17 17 18 16 17 15 17 17 13 7 6 10 11 9 0 -2 4 13 15 14 15 17 15 12 10 10 15 17 18 16 14 12 11 10 10 11 12 11 9 9 10 12 13 11 11 11 11 11 11 12 12 13 14
16 15 10 16 15 18 13 15 14 8 10 15 12 5 3 3 3 11 13 14 13 14 12 11 11 13 15 15 14 12 12 10 7 6 7 8 6 8 7 7 8 14 15 11 13 14 13 13 12 13 13 12 12 13
17 18 16 13 15 15 15 16 15 17 15 15 7 4 5 13 14 15 15 13 14 15 14 14 13 10 11 9 7 8 9 8 7 7 7 7 7 7 5 7 8 9 9 10 13 14 14 16 14 14 12 10 11 10
17 20 16 14 14 12 12 12 15 15 14 13 14 13 14 14 13 11 13 14 14 12 13 14 13 13 13 13 11 9 8 6 7 8 7 8 8 7 7 9 9 10 10 10 9 7 10 10 6 4 5 5 6 7
19 16 14 12 12 12 12 12 15 14 13 11 11 11 11 12 14 12 13 11 10 11 13 13 12 10 13 11 9 8 7 8 7 8 8 8 8 8 10 10 11 11 10 7 6 5 5 5 4 4 4 4 4 5
16 15 15 13 13 14 13 14 13 10 8 7 6 8 8 9 9 13 11 11 11 13 15 15 15 15 11 9 7 7 11 8 8 8 7 9 10 11 13 13 13 10 9 8 6 5 4 5 5 4 4 4 4 4
17 16 15 15 16 17 14 12 8 5 6 4 3 4 2 3 3 10 9 9 13 15 15 15 13 12 11 10 9 8 10 7 7 12 15 16 17 20 16 14 13 11 10 9 7 6 6 5 6 5 5 6 6 6

GFSWCAN_sfc_30mbdewp_078.txt.gz
Dewpoint
36 36 38 41 41 41 42 42 43 46 48 48 49 48 46 41 40 34 31 33 30 29 29 30 31 30 32 32 30 32 31 32 32 27 25 25 23 25 24 24 25 24 23 23 23 21 17 27 28 23 24 28 28 28
36 36 39 41 41 41 41 42 43 48 48 47 47 47 46 41 39 34 29 33 32 30 29 30 30 31 31 31 31 31 29 32 32 29 28 28 25 25 24 21 26 23 24 23 24 22 26 28 28 28 28 28 28 28
37 37 39 41 41 41 42 43 43 48 47 46 45 45 45 40 39 34 30 33 29 27 28 28 28 30 31 31 33 31 32 33 33 32 29 28 25 26 22 23 24 27 29 26 26 26 27 28 29 29 29 29 30 30
37 38 40 41 42 42 42 43 42 46 46 45 43 45 45 42 38 34 31 33 29 27 25 27 30 29 31 32 31 33 33 33 32 31 28 27 25 29 26 26 26 26 28 27 26 26 27 28 29 29 29 28 29 29
37 38 40 40 42 43 43 43 42 42 46 43 44 43 41 40 39 35 35 35 32 26 24 26 29 30 31 31 31 31 31 31 30 29 28 26 28 26 25 25 25 27 27 25 24 25 26 26 29 30 27 24 26 28
36 38 38 40 42 43 43 43 42 42 45 44 44 43 41 39 37 31 28 33 34 31 25 22 29 29 31 29 29 29 29 28 27 28 27 26 26 26 23 23 23 24 25 25 24 27 27 29 30 29 25 24 26 27
37 37 39 40 42 43 43 43 42 43 44 44 43 42 40 38 35 30 28 32 35 31 25 23 23 28 31 28 29 27 28 28 26 26 24 24 24 25 23 20 20 24 28 28 29 28 26 28 24 28 23 24 25 24
38 38 39 41 42 43 43 42 46 45 44 42 43 40 39 38 34 30 35 39 32 26 26 22 23 25 29 25 24 28 25 26 26 24 24 22 22 22 20 22 23 27 26 22 21 22 20 25 22 21 21 21 20 19
38 38 39 41 43 43 43 41 46 45 43 43 41 38 34 31 27 30 38 34 32 23 18 22 20 19 28 27 27 27 27 21 26 23 24 23 20 17 18 20 23 26 22 21 22 22 22 19 18 18 18 18 18 19
38 38 40 42 43 43 43 42 46 45 43 41 35 31 26 30 39 36 30 24 23 25 25 20 23 24 25 25 25 24 25 22 20 24 25 22 21 24 24 23 24 24 24 21 15 7 14 13 14 16 18 20 20 20
37 39 41 42 44 44 43 41 46 44 39 33 30 29 33 38 30 24 19 13 18 15 24 24 25 25 27 23 23 25 22 23 20 22 22 19 19 23 23 23 23 22 20 18 17 18 19 19 18 19 19 20 20 21
38 40 42 43 44 44 43 42 45 39 36 33 32 34 31 24 17 11 9 15 16 6 23 24 25 26 27 27 24 25 21 21 17 24 20 17 19 24 22 20 19 17 17 17 19 18 19 20 21 20 19 18 18 19
39 41 43 43 44 44 43 42 44 38 35 31 27 23 20 18 11 6 -4 1 11 22 25 25 24 25 25 25 22 20 19 18 24 20 17 17 20 24 22 19 17 19 20 19 18 20 20 19 19 18 17 18 19 19
39 42 43 44 45 44 44 42 43 37 31 27 21 18 16 11 12 8 -0 6 22 24 24 24 23 22 23 21 20 18 22 20 16 12 8 15 19 24 22 20 19 17 17 17 18 18 18 18 16 16 18 18 18 19
40 43 44 44 45 44 43 43 42 35 29 26 19 12 16 17 23 23 23 24 25 25 23 21 22 21 21 20 21 21 18 15 14 6 13 18 20 24 21 20 19 17 17 17 17 16 15 15 15 15 17 18 19 19
42 43 43 43 44 44 42 42 37 35 30 20 17 13 20 19 21 24 23 23 25 23 23 19 17 15 17 19 17 13 8 0 7 16 19 23 23 23 20 18 16 17 17 17 17 17 16 16 16 16 17 17 17 18
42 40 43 43 44 43 41 36 34 31 30 24 17 22 22 21 21 25 24 24 25 20 12 12 2 6 19 13 10 14 5 6 14 20 23 23 22 16 17 17 15 15 16 16 16 16 16 17 16 16 16 18 19 20
41 39 42 43 43 41 34 33 32 29 25 23 18 22 24 24 24 24 24 25 22 19 14 7 18 14 5 -1 3 14 17 18 21 24 23 21 20 15 14 14 15 16 16 16 16 16 17 17 18 19 19 20 21 20
40 43 42 41 38 34 31 29 30 25 22 23 25 25 24 24 24 25 25 25 24 21 17 11 3 -1 2 8 10 17 20 24 24 23 17 15 13 13 15 16 16 16 16 17 17 18 19 19 19 20 20 20 20 20
42 41 39 39 36 32 28 25 29 22 20 23 24 24 24 24 23 23 23 23 19 12 5 2 2 6 9 14 19 20 23 20 14 9 7 10 13 16 16 16 16 17 17 16 17 18 18 17 17 17 18 17 17 17
41 40 40 36 31 31 28 25 24 23 22 22 24 23 21 20 19 17 17 18 11 4 4 14 14 18 21 21 22 21 16 9 5 3 3 7 15 17 16 16 17 16 15 15 16 15 15 14 13 15 15 15 15 15
39 37 32 33 27 26 24 24 21 22 22 22 21 21 18 16 14 13 14 11 7 15 17 16 19 18 17 15 14 14 14 14 15 17 17 17 15 15 15 17 14 13 13 14 15 13 12 12 13 14 13 12 12 12
37 34 30 29 24 24 20 25 20 21 20 20 20 16 14 13 14 15 9 11 15 20 20 18 17 16 16 16 15 14 13 11 12 14 16 16 16 16 14 13 14 13 13 14 13 12 12 13 12 12 11 11 11 11
35 31 28 25 24 19 23 20 23 21 20 19 16 11 13 15 14 10 4 9 18 19 17 16 16 14 14 13 12 13 15 15 15 15 14 14 13 12 12 13 13 14 15 12 11 11 11 11 12 10 11 11 11 12
28 26 24 20 22 19 17 18 19 19 16 17 14 11 13 14 8 4 1 8 18 18 17 16 14 12 10 10 14 16 16 16 14 12 13 13 11 11 11 11 12 10 13 10 9 10 10 10 10 10 10 11 13 14
23 22 21 20 19 15 15 15 15 13 12 11 13 13 13 11 3 -0 2 12 18 18 17 15 12 10 10 12 13 15 17 17 13 11 11 11 11 11 9 9 8 9 11 11 10 9 9 9 10 10 10 11 12 12
19 19 21 22 17 16 14 16 16 12 10 10 11 10 11 2 1 3 13 17 17 17 18 16 13 10 10 13 16 17 16 13 11 10 11 11 11 11 9 9 9 9 11 12 11 11 10 10 10 11 11 11 11 11
22 18 13 15 15 17 12 12 11 8 12 16 11 7 5 2 2 11 16 15 16 18 14 12 13 14 15 16 17 14 11 7 6 7 8 8 6 8 7 6 6 12 14 11 13 14 13 12 11 12 11 9 9 10
16 17 15 14 15 16 15 14 15 19 18 15 9 6 5 13 14 15 14 14 15 14 13 12 12 11 9 8 8 8 7 8 7 7 7 7 7 8 7 5 7 7 8 9 12 13 14 16 13 12 8 7 7 7
16 19 15 14 13 11 13 14 15 15 14 15 14 14 14 14 13 12 13 15 16 15 15 14 12 13 12 12 10 9 7 6 7 7 7 7 7 8 7 8 9 10 9 9 7 6 10 8 5 3 4 4 4 6
17 15 13 12 11 11 12 14 16 16 15 15 15 15 15 15 15 13 12 10 13 14 13 11 11 11 12 11 11 10 9 8 6 8 7 8 8 9 9 10 10 10 8 6 6 5 5 5 3 3 4 4 4 5
16 15 13 12 13 14 14 15 14 12 12 12 10 12 11 12 11 14 12 11 13 12 14 14 14 13 11 9 7 8 10 8 8 8 8 8 9 10 12 12 11 9 9 8 6 5 5 5 5 5 4 5 5 6
17 16 15 15 14 14 14 15 12 7 8 6 5 4 4 7 5 13 10 10 13 14 15 15 14 14 11 9 8 10 10 7 8 11 13 15 18 18 15 12 12 11 11 9 7 6 6 6 6 5 5 6 7 7

GFSWCAN_sfc_30mbdewp_081.txt.gz
Dewpoint
36 36 37 39 41 42 42 43 44 47 49 49 48 46 43 41 38 32 31 33 31 29 29 30 31 30 31 32 29 32 31 31 30 26 24 24 23 24 24 24 25 23 22 22 22 21 15 27 28 23 24 27 27 28
36 36 38 39 41 42 43 43 44 48 47 47 47 47 43 42 39 33 28 32 32 30 29 30 30 31 31 31 32 31 29 31 31 28 28 27 24 24 23 20 26 22 24 23 23 21 25 28 28 28 28 28 28 28
36 37 37 39 41 42 43 43 43 47 47 46 45 45 44 41 36 31 30 32 29 28 28 28 28 30 31 31 32 31 31 33 32 31 29 27 25 25 22 23 24 26 28 26 25 26 27 28 29 29 29 28 29 30
36 37 37 39 40 42 43 43 43 42 47 45 44 46 44 41 38 33 30 33 29 28 26 27 30 29 31 32 32 33 33 33 32 30 28 27 25 28 25 25 25 26 28 26 26 27 27 28 28 29 29 28 28 29
36 37 37 38 40 42 43 43 43 43 44 44 45 43 41 41 39 35 35 34 31 26 24 26 28 30 31 31 31 32 32 31 30 29 27 25 27 26 25 25 25 27 27 25 24 26 26 26 28 29 27 24 25 26
36 37 36 38 39 41 43 43 43 43 43 45 45 43 41 39 37 31 27 33 33 31 25 23 28 29 30 29 29 29 29 28 28 28 27 26 26 26 24 23 24 26 26 26 25 27 26 29 29 29 25 24 25 26
36 38 37 38 39 42 43 43 43 43 44 45 45 42 40 38 35 30 28 32 35 31 24 22 23 28 29 28 28 27 28 27 26 26 24 24 26 26 24 22 21 23 26 27 28 28 26 28 26 28 25 23 24 23
37 38 37 38 40 42 44 43 44 45 45 44 42 41 40 38 35 30 35 37 31 26 25 20 22 24 28 25 24 28 25 25 26 24 24 22 23 22 21 22 22 26 26 23 23 22 18 26 23 21 20 19 17 16
37 38 37 38 41 43 44 43 46 45 43 44 41 38 33 30 27 30 38 34 31 22 15 21 18 18 28 27 27 27 27 22 26 23 23 22 20 19 20 20 22 26 24 21 22 22 22 20 17 17 16 16 17 16
37 38 37 38 41 43 44 42 46 45 44 40 35 31 26 30 39 36 29 26 21 25 24 20 24 23 25 25 24 24 25 22 18 23 25 22 20 22 23 22 23 26 23 22 17 13 14 14 14 14 16 18 19 19
37 36 37 40 42 43 44 42 46 43 38 34 30 29 32 37 29 24 19 15 16 12 23 24 24 24 27 22 23 25 22 22 18 21 22 19 18 22 24 23 24 24 23 20 15 15 16 16 16 17 17 18 19 19
37 38 37 40 42 44 44 43 45 38 36 33 32 33 30 25 18 16 12 15 15 1 23 24 25 26 26 27 24 25 21 21 17 23 21 17 18 22 22 22 21 19 17 15 17 17 18 18 19 20 19 18 16 17
38 38 39 41 42 44 44 43 44 39 35 31 27 24 22 19 13 12 7 2 8 20 24 26 25 25 25 24 22 21 18 18 23 20 16 15 18 23 22 19 17 17 17 19 18 18 19 19 19 19 18 17 17 18
38 38 39 41 43 44 45 44 42 39 36 30 28 25 18 15 14 14 10 10 20 24 25 24 24 22 23 21 20 17 21 21 16 10 5 13 18 22 23 20 17 17 18 17 17 17 17 18 17 17 17 17 17 17
37 38 40 42 44 45 45 44 41 37 34 30 27 20 18 19 21 22 22 24 25 26 24 21 22 21 20 19 21 20 18 14 13 2 9 16 18 23 22 20 18 18 16 16 16 16 15 16 16 16 16 17 18 18
36 38 40 42 44 45 44 41 37 36 31 28 24 16 15 17 18 23 22 24 26 24 22 20 18 16 17 18 18 15 9 1 5 14 17 22 22 22 20 19 16 16 16 16 16 16 16 16 16 17 16 17 18 18
37 39 41 43 45 44 40 36 34 32 31 27 24 20 19 20 19 23 24 23 25 21 15 13 6 5 19 16 12 14 6 5 13 18 22 23 22 18 16 15 15 15 15 15 16 16 16 17 16 17 17 18 19 19
38 40 41 44 43 40 35 35 34 31 27 25 23 20 24 23 24 24 24 25 24 21 15 6 17 14 9 2 2 12 15 17 21 23 20 19 17 14 14 14 15 16 16 16 16 16 17 18 17 17 18 17 18 18
40 40 42 43 39 35 32 30 32 27 24 22 23 25 24 24 25 25 25 25 24 22 17 15 7 3 3 9 8 16 19 23 23 21 17 14 13 14 15 16 16 16 16 15 16 17 18 16 15 16 15 16 16 15
41 41 43 43 39 33 29 27 30 24 20 21 24 23 24 24 24 24 25 24 21 16 10 5 2 5 7 11 17 20 23 22 18 13 11 12 14 15 16 16 16 16 14 15 15 16 15 13 13 13 14 15 13 13
42 42 43 37 33 33 30 26 25 25 22 21 23 23 22 22 23 23 23 21 16 9 4 10 10 16 20 21 23 22 19 13 7 3 4 9 15 16 15 16 14 14 14 14 13 12 12 12 12 14 14 13 13 13
39 38 33 33 28 27 26 26 24 24 22 22 23 22 22 21 22 21 18 18 14 11 12 16 17 19 20 19 15 12 11 13 16 17 19 18 13 14 15 15 13 12 12 13 12 11 11 11 13 14 12 12 12 11
37 35 31 30 26 25 21 24 22 22 20 20 21 21 21 21 20 17 16 15 14 18 20 19 18 17 16 15 14 13 13 11 13 15 15 15 15 16 13 13 13 12 11 12 11 11 10 12 11 12 11 10 10 11
36 32 29 26 25 20 23 21 23 21 21 20 20 20 17 18 16 15 9 9 15 20 19 18 16 15 15 14 12 12 13 14 14 14 14 13 12 11 12 12 13 13 13 11 10 10 10 9 11 10 10 10 10 11
28 26 26 21 22 18 17 17 19 19 18 19 20 18 15 16 12 10 5 8 17 19 18 17 16 13 10 10 14 15 15 14 12 11 13 12 10 11 10 10 10 10 11 9 9 9 9 9 9 9 10 10 12 13
24 23 22 18 18 17 16 16 17 17 15 14 17 16 15 13 9 5 6 9 18 19 17 16 14 12 10 12 13 15 16 14 12 11 12 11 10 8 8 8 9 9 11 11 9 9 9 9 9 9 9 10 12 10
20 19 22 22 19 17 15 16 16 13 12 10 12 12 13 14 11 7 13 18 18 20 19 18 15 12 11 13 14 16 15 11 10 10 12 11 11 10 8 8 8 9 10 11 11 10 9 10 10 10 10 10 9 9
23 20 19 19 16 15 12 14 13 13 13 15 13 11 12 13 9 11 14 17 19 21 19 17 16 16 15 16 16 13 9 6 7 8 8 7 6 8 7 7 7 12 13 10 12 13 12 11 11 11 10 8 7 7
17 16 18 15 15 16 14 13 13 15 16 14 13 12 12 14 14 15 15 17 18 17 15 12 12 13 13 11 10 9 8 9 8 7 7 7 7 9 7 6 7 7 7 8 12 13 14 15 12 10 7 5 5 4
16 16 13 13 14 14 14 15 16 15 15 16 15 14 14 15 14 12 14 17 18 17 16 14 13 14 12 12 10 8 6 7 7 7 7 7 8 7 7 9 9 9 7 7 7 6 11 6 5 3 3 4 4 6
16 14 12 12 11 11 11 13 16 16 16 15 16 16 15 16 15 14 14 14 17 16 14 13 14 14 12 12 11 10 9 7 6 6 7 8 9 10 10 10 9 8 7 6 6 6 5 4 3 4 5 5 5 6
16 13 12 11 12 13 14 15 15 14 15 15 14 14 14 16 15 15 13 14 16 14 14 14 12 12 13 12 11 10 11 9 8 8 10 10 11 10 10 10 8 7 6 7 6 5 4 5 5 5 5 6 6 6
14 13 13 13 13 13 14 15 13 8 10 8 9 10 10 11 10 14 12 13 15 16 16 15 15 13 11 10 9 10 10 9 9 12 14 13 14 16 13 10 9 8 9 8 7 6 6 6 6 6 6 6 7 7

GFSWCAN_sfc_30mbdewp_084.txt.gz
Dewpoint
40 37 36 38 40 41 43 43 45 48 48 48 48 47 45 42 36 34 32 34 33 30 30 31 31 31 32 32 30 33 32 32 32 28 25 24 23 25 24 24 24 23 22 21 22 20 14 27 28 23 25 27 28 28
39 37 36 38 39 41 43 43 44 48 47 47 47 47 45 42 38 34 31 33 32 31 30 31 31 31 31 31 32 32 30 32 32 30 28 27 24 25 24 18 26 22 24 22 23 20 25 28 28 29 28 28 28 29
38 36 37 38 39 40 43 43 44 44 47 46 44 45 45 42 39 33 31 33 32 30 29 29 29 30 31 31 32 32 32 34 33 33 30 29 26 25 22 22 24 26 27 25 25 26 27 28 29 29 29 29 30 30
38 36 37 38 38 40 42 44 43 43 45 45 45 45 45 42 40 35 31 35 31 30 30 28 30 30 32 32 32 33 33 33 33 33 31 29 26 29 25 25 25 26 28 27 26 27 27 28 29 29 29 29 28 28
38 36 37 37 37 39 41 43 44 43 43 45 45 42 42 41 37 35 35 34 33 28 27 27 29 30 31 31 32 33 33 32 32 31 31 28 29 28 26 26 26 28 27 25 22 27 27 27 28 29 29 26 25 24
38 36 37 37 38 39 41 43 44 44 43 45 45 42 40 39 37 32 28 34 34 32 28 25 29 29 30 29 29 29 30 29 30 30 29 28 28 28 26 23 25 27 28 28 26 26 26 29 30 30 27 24 24 24
38 36 38 38 37 39 42 44 44 44 43 45 45 42 39 38 36 31 29 34 36 32 26 24 25 28 29 28 29 28 29 28 28 28 26 27 28 29 26 23 23 25 26 26 27 28 27 29 27 29 27 24 24 22
37 37 38 37 37 39 43 44 44 46 45 45 43 41 39 39 36 30 35 38 34 28 27 21 23 25 29 26 26 28 26 27 27 26 25 24 24 24 23 25 22 24 27 27 28 26 20 26 25 23 21 19 16 15
37 37 38 37 37 40 43 44 45 45 45 43 40 37 34 31 28 31 38 36 33 26 16 23 21 21 29 27 28 28 27 24 27 25 23 24 22 21 23 23 23 26 25 23 22 21 22 20 19 17 16 15 15 14
37 37 38 37 38 41 43 44 46 45 43 39 35 30 27 31 39 34 30 27 26 25 26 21 26 24 27 26 25 25 25 24 21 24 25 23 22 22 22 21 23 26 24 23 21 18 18 17 17 14 13 15 16 17
37 38 38 37 38 42 43 44 46 41 38 35 31 29 33 36 30 25 20 21 18 14 24 24 26 24 27 24 23 26 24 23 19 22 23 21 20 22 24 24 24 26 23 20 16 13 14 15 15 16 16 18 19 20
37 38 38 37 40 42 44 44 44 38 37 34 32 33 30 25 21 15 15 16 16 7 22 25 25 26 27 28 25 25 22 23 19 24 22 19 21 23 24 23 24 24 23 18 16 16 17 18 19 19 20 20 20 20
37 38 38 38 40 42 44 44 44 39 35 31 27 24 24 21 17 12 9 7 7 20 25 26 25 26 26 26 24 22 20 20 24 22 18 17 19 23 23 23 21 18 16 17 18 18 19 19 19 19 18 17 17 16
38 38 39 39 41 42 44 44 42 39 35 29 27 23 20 18 16 15 16 14 21 25 25 26 25 24 24 22 21 18 20 22 18 12 7 15 19 24 22 20 18 17 19 18 18 17 17 17 16 17 17 17 17 16
38 39 39 40 42 43 44 44 41 38 35 31 28 24 24 23 21 22 22 23 25 27 25 23 23 22 22 20 20 21 18 15 16 6 12 18 20 24 22 19 18 18 17 16 16 16 15 16 17 17 18 18 18 18
39 39 38 39 41 43 43 41 38 36 33 31 27 24 18 16 17 23 23 22 26 26 23 23 20 18 17 19 19 17 13 4 9 16 20 20 23 23 21 19 17 16 15 15 16 17 17 17 18 18 17 17 16 16
38 35 38 40 42 43 41 37 36 33 32 29 26 24 20 19 18 21 23 23 26 24 21 18 11 11 19 17 14 18 11 12 16 19 23 23 22 20 17 16 15 14 14 16 16 17 17 18 16 17 15 15 16 16
36 36 41 41 43 41 36 36 34 32 28 27 26 23 22 21 23 25 25 26 25 23 18 13 18 14 14 9 8 14 18 19 23 24 22 20 17 16 14 13 15 16 16 16 16 16 17 16 14 13 14 14 14 13
38 39 41 43 40 36 33 32 34 28 27 24 23 24 24 24 25 26 26 26 25 22 19 18 14 12 8 13 12 17 19 24 22 20 17 14 14 14 15 16 16 16 14 15 16 15 15 13 12 12 13 14 13 12
39 41 43 41 39 33 31 29 31 26 23 24 23 24 23 24 25 25 26 26 25 24 19 13 9 7 6 10 16 19 24 23 18 14 12 13 15 15 16 16 16 15 15 15 14 15 12 11 11 12 13 13 12 12
40 41 42 39 34 34 30 26 24 25 21 21 22 23 22 23 23 24 25 24 24 24 18 15 10 10 18 20 21 24 23 18 15 12 11 12 15 16 16 15 15 14 13 13 11 11 11 11 11 13 13 11 12 12
39 39 33 34 29 28 28 27 24 24 21 21 22 22 21 21 21 22 23 23 23 22 17 15 14 17 19 20 20 19 17 11 11 14 15 16 15 15 15 14 13 13 13 13 11 10 10 10 12 13 12 11 12 11
37 35 32 31 27 25 24 26 23 22 20 20 20 21 21 21 21 20 22 24 25 22 18 18 20 20 20 17 15 14 15 13 12 14 15 14 15 15 14 14 13 12 12 12 12 11 11 12 11 12 10 10 10 10
36 33 30 28 26 22 22 20 22 21 21 19 19 20 20 21 18 20 21 22 17 18 18 18 19 17 15 14 11 12 13 15 14 14 15 14 13 12 12 13 13 13 12 11 11 10 10 9 11 9 9 10 10 11
29 27 28 23 22 18 17 17 18 18 17 18 18 19 17 16 18 18 18 17 16 17 20 20 18 17 14 11 13 13 15 15 12 11 13 13 11 11 11 12 10 11 11 10 10 10 10 9 9 9 9 10 12 13
24 26 24 21 18 17 16 15 16 16 17 18 19 16 15 15 17 18 15 18 16 18 20 19 18 15 12 11 12 14 15 15 13 12 13 12 11 11 10 9 9 10 11 11 10 9 9 9 9 9 10 10 11 10
23 22 23 21 18 16 16 16 16 15 15 13 15 14 12 10 11 13 13 17 18 21 21 21 18 16 13 14 15 17 16 14 13 13 13 11 11 10 10 9 9 10 11 11 11 10 10 10 10 10 10 10 9 8
24 21 18 19 16 15 15 15 14 14 14 13 14 13 13 15 16 15 15 17 20 24 23 21 19 18 16 16 16 13 10 10 10 10 10 9 9 8 9 9 10 13 13 11 11 11 12 12 11 11 10 9 7 7
20 20 19 16 14 14 14 15 15 15 16 14 14 14 13 16 15 13 15 18 21 20 18 16 15 15 15 15 13 11 10 11 10 8 8 8 9 10 8 8 9 9 9 9 11 14 13 13 12 11 7 6 6 5
18 18 15 14 15 15 14 15 15 15 15 16 15 14 13 14 14 13 14 18 20 20 19 17 15 14 13 13 11 10 10 12 10 9 8 7 8 9 9 9 10 9 8 7 7 8 12 7 7 5 5 6 7 7
16 13 13 14 14 12 11 14 16 16 15 14 16 14 13 15 15 14 15 18 20 18 16 15 17 17 16 13 12 11 10 9 7 7 7 9 9 9 10 10 10 8 7 7 7 7 7 6 5 6 6 6 7 7
14 12 12 12 11 13 14 15 15 13 14 14 13 14 15 16 15 15 15 17 18 17 17 17 16 16 15 15 14 14 14 10 8 9 11 11 11 11 10 9 8 8 7 7 7 7 6 6 6 6 7 7 7 7
13 12 12 12 12 12 14 13 10 8 9 9 11 13 15 15 14 15 14 16 18 18 17 17 17 16 15 14 13 13 11 10 10 14 15 15 14 13 11 10 9 8 8 8 7 6 6 6 6 6 6 6 6 7

GFSWCAN_sfc_30mbdewp_087.txt.gz
Dewpoint
45 40 37 37 39 41 43 44 45 48 47 47 47 47 46 44 40 36 35 35 36 32 32 32 32 33 33 33 29 33 32 33 32 28 24 22 20 22 22 22 21 20 19 18 20 18 14 27 27 24 25 26 28 28
45 40 37 37 39 40 42 44 44 45 47 47 46 46 45 43 41 37 33 34 34 33 32 31 31 31 31 32 34 34 32 32 33 30 27 25 22 23 21 14 25 20 22 21 21 20 25 28 29 29 28 28 28 29
45 40 37 37 39 39 42 44 44 44 44 46 45 46 45 42 41 36 33 34 35 33 31 31 30 31 31 32 33 33 33 35 34 34 31 29 25 25 18 19 22 25 27 24 24 24 26 27 28 29 29 29 30 30
45 40 37 37 38 38 41 42 44 44 43 45 45 44 44 42 39 36 34 35 33 32 32 30 30 30 32 32 32 33 34 35 34 35 33 29 26 28 23 25 23 25 28 25 25 25 27 28 28 29 29 29 29 29
45 41 38 37 38 38 39 41 44 44 44 44 45 43 41 39 38 37 36 35 34 32 30 29 30 30 31 32 33 33 34 34 33 33 34 29 29 28 27 27 25 27 24 24 17 26 26 28 28 29 29 28 26 25
45 41 38 37 38 38 39 42 44 44 44 44 45 44 40 39 37 35 32 35 34 34 33 29 30 29 30 30 31 31 32 31 33 32 31 30 29 30 28 23 23 26 28 28 26 27 27 28 29 30 29 27 25 24
44 41 38 37 38 38 39 42 44 44 44 44 45 44 40 39 38 32 30 36 37 34 30 27 29 29 29 29 30 30 30 30 30 31 29 29 29 31 29 23 22 25 27 28 27 28 28 29 27 29 28 26 25 23
44 41 38 38 38 38 40 43 44 45 46 44 44 41 40 40 38 34 36 37 36 30 31 25 28 28 29 27 28 29 28 28 30 30 26 26 26 27 26 26 25 24 26 27 27 28 22 26 27 27 25 20 17 14
44 41 38 38 38 38 41 44 45 46 46 44 41 38 35 33 31 34 39 38 34 30 23 26 25 26 29 28 29 28 28 26 28 27 25 25 24 24 25 24 24 25 26 25 27 23 21 20 20 19 17 15 13 12
43 40 38 38 38 38 41 44 45 46 44 40 36 32 30 32 39 37 34 31 31 31 28 25 28 26 29 27 27 28 27 26 26 25 26 23 23 25 25 24 25 25 26 24 22 21 21 20 20 16 15 12 13 15
42 40 39 38 38 39 42 44 46 43 39 37 32 31 34 36 33 27 26 26 24 23 26 26 28 25 28 26 25 27 27 27 23 25 24 24 22 22 23 22 23 27 25 24 19 17 18 18 17 16 16 17 18 20
42 40 39 39 39 40 43 44 45 40 39 37 34 34 32 29 26 18 21 21 19 18 22 24 25 27 27 28 26 26 26 25 21 25 23 21 25 26 25 23 24 25 23 19 16 17 17 17 19 19 20 21 21 22
41 40 39 39 38 41 43 44 44 39 36 33 30 27 27 26 20 17 11 18 17 22 26 27 26 27 27 27 26 25 23 23 24 23 21 22 24 25 26 25 24 24 21 16 18 19 19 18 18 18 17 16 16 16
41 40 40 40 40 41 44 45 42 37 36 31 28 23 23 22 21 23 21 24 25 26 27 28 27 25 25 24 24 23 22 22 20 17 11 22 23 24 24 24 21 18 18 20 19 18 17 17 17 16 17 18 18 17
41 40 40 40 40 42 44 44 40 39 36 32 31 26 27 27 26 26 26 24 26 27 27 25 25 24 24 23 21 22 19 18 18 14 20 25 26 24 22 20 19 20 20 19 19 16 15 17 18 17 18 17 16 14
41 40 40 40 42 43 44 42 38 36 35 33 30 27 25 23 26 25 26 26 28 27 27 26 23 22 21 22 20 19 17 11 15 22 27 23 26 24 21 19 19 18 17 17 17 18 19 18 18 17 17 16 15 15
40 36 39 41 42 43 41 38 37 35 33 31 28 30 26 25 27 25 23 22 26 26 25 25 18 16 21 19 17 20 17 20 24 25 24 25 25 23 20 18 16 14 13 15 17 18 18 19 17 16 15 15 16 16
35 36 41 41 42 42 38 37 35 32 28 30 28 28 26 24 23 22 24 25 26 26 23 21 21 14 16 15 14 21 22 25 24 25 25 23 21 18 16 15 14 15 17 17 17 17 18 16 14 12 13 14 14 13
36 39 40 41 40 36 34 33 35 29 29 29 28 25 25 25 24 26 25 26 27 25 24 20 17 17 15 18 15 20 23 23 23 22 19 17 15 14 16 17 17 17 16 16 16 15 14 13 12 12 13 14 13 12
38 40 42 41 39 35 32 31 32 30 26 27 26 27 26 26 26 25 26 27 25 25 24 21 17 17 14 15 19 16 21 26 20 17 14 14 14 17 17 17 17 17 16 16 16 15 13 11 11 12 13 14 13 12
36 40 42 40 36 35 33 29 28 29 27 24 26 26 26 25 26 26 26 27 26 26 26 26 20 16 14 17 20 21 24 23 19 15 13 14 14 17 17 17 16 15 14 13 11 11 12 10 11 13 13 12 12 13
37 40 35 35 31 30 32 30 28 26 24 24 24 25 24 23 24 24 27 25 24 24 26 25 23 22 18 18 19 23 24 21 14 13 15 17 15 16 16 16 15 14 14 14 11 10 10 10 11 12 12 11 12 11
38 36 32 32 29 27 27 28 25 24 21 21 22 22 22 23 25 26 23 25 25 25 25 24 22 21 21 20 19 20 19 17 15 14 17 15 16 17 17 16 16 16 15 14 12 12 12 12 11 12 11 10 10 11
37 34 30 29 29 25 24 21 25 23 22 20 20 20 22 23 21 21 21 23 24 25 24 22 20 19 18 18 18 18 17 16 16 15 15 14 14 13 14 13 13 15 14 13 12 12 11 9 11 10 10 11 11 12
30 29 29 26 26 19 18 18 19 20 18 19 19 20 19 19 19 20 20 22 24 22 23 23 21 19 19 19 17 15 17 16 12 11 15 16 13 12 13 12 12 12 13 13 11 11 12 11 11 11 11 11 12 13
25 27 26 25 21 19 17 16 17 18 18 19 19 19 18 19 19 19 21 22 23 23 23 22 21 20 19 18 16 15 14 17 15 12 14 15 13 13 13 11 10 11 13 12 12 11 11 10 11 11 11 11 12 12
24 25 24 21 19 18 17 17 18 18 18 18 17 16 15 17 17 17 19 21 23 26 25 24 22 21 20 17 15 15 16 17 15 15 16 15 14 14 15 12 12 13 13 13 12 11 11 11 11 11 11 12 11 10
26 23 18 19 18 18 16 17 17 17 17 17 17 15 17 17 16 19 21 20 21 24 25 25 24 23 21 17 17 16 14 13 13 13 12 11 11 12 12 12 13 14 13 13 13 12 12 12 12 12 12 11 10 9
22 21 20 18 16 16 17 17 17 18 18 18 18 17 17 18 20 18 17 19 24 23 22 20 20 20 18 16 15 14 13 13 11 10 10 10 10 10 11 12 13 13 12 13 14 14 14 13 13 12 10 9 8 8
20 21 18 17 16 17 17 18 20 21 18 20 19 17 16 16 16 16 16 20 22 22 22 20 18 17 15 13 12 13 14 15 15 12 10 10 10 13 10 10 11 11 11 10 10 10 15 10 10 8 8 8 9 10
20 19 18 17 17 18 16 16 17 16 17 17 17 17 18 17 16 16 16 19 23 22 20 18 18 18 15 14 13 12 12 13 13 13 13 14 12 12 11 11 12 11 10 10 10 10 11 8 8 8 8 7 7 8
18 18 16 16 15 13 15 16 17 16 16 16 16 15 15 16 14 17 16 19 21 20 21 19 18 17 17 16 16 15 14 14 11 11 13 12 12 12 12 12 10 10 10 9 9 8 7 8 8 8 8 7 7 7
14 14 13 13 12 13 14 15 14 12 13 14 14 14 15 15 14 17 16 19 20 20 21 21 20 19 19 18 18 18 15 13 12 14 14 14 14 13 11 11 10 10 9 9 9 8 7 7 7 7 6 6 6 6

GFSWCAN_sfc_30mbdewp_090.txt.gz
Dewpoint
51 48 42 38 38 40 42 44 44 46 47 47 46 47 46 45 40 38 36 36 37 34 33 33 32 32 34 34 31 34 32 34 33 30 25 23 21 23 20 21 20 20 19 20 19 18 15 27 27 23 26 27 28 29
50 49 43 39 38 40 41 43 44 44 45 47 46 46 46 44 41 38 34 36 36 34 33 32 32 31 31 32 32 35 32 32 34 31 28 25 22 22 20 16 25 18 22 23 21 22 26 28 29 29 29 28 29 29
50 49 44 39 38 39 39 42 44 44 44 45 46 45 44 44 41 37 35 36 38 34 32 32 31 31 32 32 33 33 34 35 35 34 33 30 25 26 20 20 21 24 27 23 23 24 26 27 28 29 29 29 30 30
50 49 45 40 38 38 39 41 43 44 44 44 45 44 43 40 39 39 35 35 35 33 34 31 30 31 32 32 33 33 33 35 34 35 35 32 28 28 24 25 24 25 27 25 25 25 26 27 28 29 29 30 30 29
49 49 45 41 38 38 38 40 42 44 44 44 45 45 41 41 40 39 37 36 34 34 29 30 30 31 31 31 33 34 33 35 34 33 33 32 30 27 28 27 26 27 26 24 22 26 26 28 29 29 29 29 28 26
49 49 45 41 38 38 38 39 42 44 44 44 45 45 43 40 39 39 36 37 36 35 33 28 31 30 30 30 31 32 33 32 33 33 33 32 30 28 28 26 24 24 26 27 26 27 28 29 29 30 29 28 26 25
49 49 45 42 38 38 38 40 42 44 44 44 44 45 42 41 39 36 35 38 37 35 32 25 31 29 30 29 31 30 31 31 31 33 30 30 29 29 30 25 24 24 27 28 27 28 28 29 28 29 28 26 26 24
49 49 45 42 39 39 39 40 43 45 46 45 45 41 40 39 39 36 37 36 36 33 33 23 27 27 30 29 29 30 29 30 31 31 28 26 27 27 26 28 28 25 27 28 27 27 26 28 29 28 27 23 19 16
49 48 45 42 39 39 39 41 44 46 46 45 42 39 37 35 33 36 39 40 37 33 26 25 22 26 29 29 29 29 29 27 30 27 27 26 26 24 25 26 26 25 26 26 28 24 23 23 24 23 20 17 14 13
49 48 45 42 39 39 39 42 45 46 43 40 37 33 31 34 38 38 36 33 32 32 29 26 29 25 29 28 28 28 28 27 25 27 27 24 24 26 27 27 26 25 27 27 24 21 20 19 18 17 16 15 14 16
49 47 44 41 40 40 40 43 45 44 39 38 33 31 35 35 34 29 27 27 29 24 29 28 28 27 28 27 27 28 28 28 21 26 23 24 24 24 25 25 26 27 26 25 23 23 22 21 19 16 16 18 20 20
49 46 44 41 40 40 41 43 45 41 40 38 36 35 34 31 27 21 20 23 20 21 23 24 26 28 28 29 27 27 26 25 20 26 23 20 24 26 24 23 26 25 23 17 16 16 17 18 19 18 18 18 18 19
48 46 43 41 40 39 41 44 45 40 35 34 32 27 27 27 20 19 14 16 19 22 25 26 24 27 26 28 27 26 22 22 24 22 20 21 25 26 25 25 25 23 18 17 18 19 18 18 17 16 15 17 18 17
47 45 43 41 40 40 43 44 43 36 35 32 26 23 20 22 21 24 23 26 27 28 28 29 27 26 26 24 25 21 24 22 19 16 13 25 26 25 26 25 23 19 19 20 19 18 17 16 15 17 18 18 17 16
47 45 43 41 41 42 44 45 40 39 36 31 30 24 26 27 28 27 28 24 25 29 28 26 26 25 24 24 22 23 20 15 18 12 22 27 26 24 24 22 20 20 20 18 17 14 14 17 17 17 17 17 16 15
46 44 42 41 41 43 44 42 39 37 36 33 31 27 29 25 27 26 25 26 28 28 28 27 24 22 22 23 21 18 18 10 15 22 28 24 26 23 21 21 20 20 19 18 17 17 17 17 16 15 17 16 16 16
44 39 41 41 42 43 42 38 37 35 34 31 29 31 30 27 28 28 28 26 29 27 22 25 19 14 22 19 18 21 17 18 23 25 26 24 26 23 20 18 17 16 15 16 17 18 18 17 15 16 14 15 15 15
39 40 41 41 43 42 38 37 36 33 28 30 29 29 29 28 24 22 23 27 27 27 28 21 23 16 13 12 14 19 22 26 26 25 26 25 23 21 18 16 15 15 17 17 17 16 16 14 14 13 13 14 14 13
39 40 41 42 41 37 35 34 35 29 29 31 30 29 27 27 26 26 25 27 28 27 25 19 15 13 14 19 15 23 24 21 19 23 21 19 18 17 16 16 17 17 16 15 16 16 15 13 12 13 13 13 14 13
41 41 40 41 39 35 32 32 34 31 27 28 28 28 26 27 27 25 26 26 25 23 21 20 18 20 19 17 21 20 20 22 21 19 18 15 15 17 17 16 16 16 16 16 16 16 13 12 12 12 13 14 14 12
40 38 40 41 37 36 34 30 29 31 30 25 27 28 27 27 26 26 26 27 25 24 22 25 24 23 21 18 18 18 18 24 20 19 17 17 15 17 18 18 17 16 15 14 13 13 14 11 11 12 13 13 12 13
35 38 37 37 32 33 32 32 29 27 25 25 26 27 24 23 24 26 28 26 24 23 24 22 24 26 26 23 20 19 19 23 23 19 17 18 15 16 16 17 16 15 14 13 12 11 11 10 11 12 13 12 12 11
37 36 32 32 29 29 29 28 24 24 21 21 24 22 23 24 26 27 23 25 25 25 25 25 25 26 26 25 22 21 22 22 20 16 17 16 16 17 17 17 17 16 15 15 14 13 12 12 12 12 12 10 10 11
36 32 29 29 29 25 25 23 27 24 23 21 21 20 21 23 23 21 20 23 23 25 24 25 25 24 21 20 19 19 19 22 19 16 17 16 16 17 18 15 17 17 16 15 13 12 11 9 11 10 10 11 11 12
29 29 30 26 27 20 19 19 20 21 18 20 20 20 21 20 18 19 18 20 21 23 24 25 25 25 23 22 21 19 20 20 19 17 16 16 14 14 14 13 14 15 14 13 12 12 12 11 11 11 11 10 11 12
25 27 26 25 21 19 18 16 18 19 19 19 19 20 20 19 18 17 20 21 21 22 25 25 24 23 23 22 22 19 18 19 19 18 18 16 13 13 13 12 12 12 14 14 12 12 11 11 11 10 10 11 13 12
24 25 28 23 21 20 18 19 19 19 18 18 19 17 18 17 17 17 21 22 21 24 26 27 25 24 23 23 22 20 20 20 17 16 18 18 17 17 16 14 11 12 14 13 13 12 11 10 11 11 11 11 11 10
26 24 20 19 18 19 17 17 17 17 18 20 18 16 16 17 16 19 19 21 22 23 23 25 25 25 24 23 19 18 16 15 15 15 14 13 14 16 16 15 15 16 14 13 12 12 11 11 11 11 11 10 10 9
22 22 20 18 18 18 17 17 17 18 20 19 18 17 17 19 21 20 17 17 22 24 20 20 20 19 19 19 19 18 15 14 11 10 8 10 11 11 13 15 17 15 14 15 15 12 12 12 12 12 11 9 8 7
21 21 18 18 18 18 18 19 20 22 21 23 22 19 18 17 17 17 16 19 20 20 20 20 18 18 17 16 16 15 15 15 13 10 9 9 12 13 12 14 14 13 13 13 14 14 16 13 12 8 8 8 8 9
22 21 18 18 18 19 18 18 17 18 17 17 17 17 18 17 17 15 15 16 19 22 21 19 18 18 17 17 16 14 14 15 16 18 18 17 14 13 13 12 12 11 11 10 10 11 12 9 8 7 7 7 7 7
20 19 17 17 17 13 15 16 15 15 15 15 15 15 15 14 15 16 15 16 20 20 21 19 18 18 19 19 18 16 15 16 15 16 16 15 14 13 13 13 11 11 10 10 9 9 9 7 7 7 7 7 6 6
15 15 14 13 13 13 14 14 14 13 13 14 14 14 14 15 14 16 17 18 18 18 19 21 20 19 20 18 17 18 18 16 16 18 17 16 15 13 12 12 11 10 10 9 8 7 7 7 7 6 6 6 6 5

GFSWCAN_sfc_30mbdewp_093.txt.gz
Dewpoint
47 49 50 44 40 38 41 43 45 45 45 47 47 47 47 46 44 40 35 36 37 32 32 32 32 32 32 33 32 34 32 33 32 30 25 24 21 22 20 20 19 18 18 19 20 18 9 26 27 21 24 27 29 29
47 48 50 46 41 39 40 41 44 45 45 45 46 46 45 45 44 41 33 37 37 34 33 32 32 32 32 32 33 34 32 33 34 31 30 26 22 22 20 15 24 18 20 20 20 18 24 28 28 29 28 28 28 29
47 46 49 48 43 40 39 40 43 44 45 44 45 46 44 42 41 40 35 35 38 33 32 31 30 31 32 32 33 33 34 34 35 34 32 31 27 26 21 21 21 23 27 23 21 21 25 26 29 29 29 29 30 30
47 47 48 49 44 40 39 39 41 43 45 44 44 46 43 41 41 39 34 35 35 34 32 31 31 30 32 32 33 33 33 34 35 34 33 32 29 28 25 24 24 22 26 24 24 25 26 27 28 29 29 30 30 29
48 47 48 50 45 41 39 39 40 43 45 44 44 45 45 41 40 38 36 35 34 33 29 29 31 31 31 31 33 33 33 34 34 32 31 29 31 29 28 27 26 26 24 23 21 24 24 27 29 30 29 29 29 27
47 47 48 50 45 42 39 39 40 42 44 45 44 45 45 42 40 38 34 37 37 35 31 21 31 30 30 30 31 32 34 33 32 33 32 32 31 29 26 26 26 26 27 26 24 28 28 28 30 30 29 29 26 25
48 48 48 49 46 42 40 39 40 42 44 44 45 45 44 41 39 36 33 37 37 36 30 23 26 30 29 29 30 30 31 31 31 32 31 30 30 29 27 25 27 27 25 27 28 28 27 28 27 29 28 26 27 24
48 48 49 49 46 43 40 39 40 42 44 45 45 44 40 39 38 34 37 37 37 32 32 21 21 26 29 28 28 30 29 29 30 29 29 27 28 28 26 27 28 28 27 27 28 27 28 29 29 28 26 24 18 14
48 48 49 49 46 42 40 40 41 45 47 46 45 41 37 34 32 35 39 39 37 31 24 24 18 22 29 28 29 28 29 26 29 28 27 27 25 24 26 26 27 27 27 27 26 26 27 27 28 25 20 17 14 13
48 48 49 49 45 42 40 40 42 46 45 43 37 34 30 33 38 37 35 31 31 31 29 22 27 24 28 27 27 27 28 26 25 26 27 24 24 26 27 27 27 27 27 27 25 24 22 21 21 19 16 15 17 19
48 48 49 48 45 42 41 41 44 44 40 37 33 30 34 36 34 28 26 25 28 24 27 26 27 26 28 25 26 28 26 26 21 22 23 21 23 26 25 24 27 27 28 26 25 24 22 20 19 16 17 19 18 17
48 48 49 47 44 42 41 42 45 40 37 37 35 35 33 29 26 20 17 22 21 19 25 23 22 28 27 28 26 27 24 25 18 25 22 17 21 26 24 26 26 27 25 23 22 21 19 19 18 18 17 17 17 17
48 48 48 47 44 42 41 43 45 41 35 33 31 26 25 24 20 18 15 14 16 21 24 25 22 26 26 28 26 25 21 20 24 20 17 19 26 26 25 26 23 20 18 17 18 19 18 18 17 15 15 17 17 17
48 48 48 46 44 42 42 44 45 37 33 29 25 23 20 20 20 20 18 15 21 24 25 27 25 24 26 24 24 20 22 22 18 14 11 18 28 25 25 25 21 18 18 18 18 18 17 15 16 18 18 17 16 14
48 48 48 46 44 42 43 45 42 38 35 30 29 23 23 22 25 25 26 22 26 27 28 26 25 25 23 23 23 22 20 15 16 10 16 26 26 26 25 23 21 20 19 18 16 15 15 16 16 17 16 16 15 15
48 48 46 45 43 42 44 44 39 37 35 32 30 27 28 27 26 24 22 21 27 27 26 26 22 21 21 21 20 17 15 10 7 17 22 27 24 25 24 23 21 21 19 17 15 15 17 16 15 14 17 16 15 15
48 43 45 44 42 42 43 39 37 35 34 32 29 31 28 26 24 26 23 24 28 26 19 23 16 12 20 20 19 19 16 13 20 24 26 25 25 25 22 22 21 20 18 17 17 17 16 17 15 16 13 14 15 15
44 44 44 42 41 42 39 38 35 33 29 31 29 30 31 30 25 26 27 28 27 24 25 19 21 17 14 12 13 16 20 22 26 24 23 25 26 25 21 19 17 17 17 17 17 17 17 15 15 14 13 14 14 14
43 43 42 41 40 37 33 34 35 29 29 29 29 30 29 28 28 24 25 28 27 27 25 22 16 14 14 16 14 15 21 22 12 17 22 23 23 21 20 18 17 17 17 16 15 15 17 16 14 13 13 13 14 14
43 43 41 41 39 33 31 31 34 31 27 29 29 28 27 27 26 26 25 26 25 24 22 19 16 16 15 17 19 17 19 23 19 15 16 18 18 18 18 17 17 17 16 16 16 17 15 13 13 12 13 13 15 12
42 41 41 40 33 32 32 30 30 31 28 26 27 28 27 27 25 24 24 25 23 22 20 21 21 20 22 21 20 21 20 21 17 15 14 15 16 17 18 18 17 16 15 15 15 16 18 13 12 13 13 13 13 13
36 40 37 34 32 31 32 32 30 29 27 26 27 27 24 23 24 26 26 24 24 24 24 22 23 23 23 24 23 21 20 20 21 21 22 20 16 17 18 18 17 15 15 15 16 16 15 13 12 12 13 13 13 11
38 34 32 32 29 30 28 30 25 24 22 21 25 23 23 23 25 28 24 25 25 26 25 24 24 24 24 25 25 24 22 22 22 21 20 20 18 18 18 18 17 16 15 16 17 16 13 12 12 13 12 12 10 11
35 32 30 29 28 26 26 24 26 23 22 20 20 20 21 22 25 23 21 22 24 25 26 26 25 24 23 22 23 24 23 22 22 20 19 18 17 17 18 17 17 18 17 17 16 15 13 12 12 12 11 10 11 11
28 28 29 26 27 21 20 20 20 20 17 19 19 19 20 21 19 18 17 18 20 22 24 25 25 25 24 23 24 24 23 22 22 21 18 18 17 17 16 16 17 17 17 16 15 14 12 11 11 11 11 11 10 11
25 27 26 26 22 19 17 17 18 18 19 19 19 19 20 19 18 17 17 20 20 21 22 23 23 24 24 25 24 23 22 21 21 20 18 18 17 16 16 14 13 14 16 16 15 13 12 11 11 11 11 11 14 12
24 24 28 25 21 19 18 19 19 19 18 18 18 18 19 18 18 18 19 22 21 20 22 24 25 24 23 23 24 23 21 21 20 20 21 19 17 18 17 14 12 13 16 16 15 13 12 11 11 11 11 11 11 11
28 25 22 20 19 18 17 18 18 18 18 19 18 17 18 19 19 19 21 21 22 23 23 24 26 26 25 24 22 19 17 16 16 17 17 16 16 18 17 18 18 19 17 16 14 13 12 11 11 11 11 10 10 9
23 22 21 19 18 17 17 17 17 18 20 20 18 18 19 21 22 21 20 18 20 21 19 20 21 20 19 18 18 16 16 16 15 15 14 14 14 15 17 19 20 17 15 16 16 13 12 11 11 11 11 10 9 7
20 22 19 18 18 18 17 18 18 21 22 23 24 24 22 20 19 18 18 19 20 18 18 18 18 19 18 18 17 16 15 16 17 16 16 14 13 15 16 17 15 15 16 16 15 15 16 16 15 11 8 7 8 8
22 19 19 19 18 19 18 18 20 21 21 22 20 20 17 16 17 16 17 17 18 18 18 17 17 16 17 16 16 15 15 16 16 16 17 15 14 15 16 16 15 15 15 15 15 16 15 12 10 8 7 7 8 8
21 18 18 17 16 14 16 17 19 20 18 18 16 14 15 15 16 16 15 15 16 16 18 19 17 17 18 18 17 16 18 17 16 18 18 15 15 15 15 15 13 13 13 13 13 13 11 10 8 7 7 7 6 6
17 14 14 15 15 16 17 19 20 18 15 16 15 14 14 15 15 16 16 17 17 17 18 19 20 18 18 18 18 17 18 16 18 19 18 17 16 15 14 13 13 12 11 11 11 11 9 8 7 7 7 7 6 5

GFSWCAN_sfc_30mbdewp_096.txt.gz
Dewpoint
48 49 48 49 47 42 40 40 43 45 45 45 46 47 46 45 44 39 35 36 36 31 31 33 33 32 33 33 31 33 31 32 32 29 26 24 22 21 22 20 19 16 16 18 20 19 10 27 27 21 19 28 29 29
48 48 48 47 49 44 41 40 41 44 45 45 45 46 45 43 43 40 31 36 37 34 33 32 32 32 32 33 33 33 32 32 33 30 29 28 23 23 20 17 22 19 20 16 19 16 21 27 24 27 27 26 28 29
48 48 48 47 49 46 42 40 40 42 44 45 44 45 45 42 42 40 35 34 37 33 32 31 31 31 32 32 33 32 34 34 35 34 31 30 27 26 23 21 21 23 25 23 21 18 23 26 28 29 29 28 29 30
48 48 48 46 48 48 43 40 40 41 43 45 44 44 46 42 41 38 33 34 35 34 30 31 31 30 32 32 32 33 33 34 34 34 31 30 28 28 26 24 23 22 25 24 24 24 25 26 28 29 29 30 30 30
49 48 48 47 47 48 44 41 40 40 42 44 45 44 46 44 42 38 36 35 34 30 25 26 31 31 31 31 32 33 32 32 33 32 31 30 31 30 28 27 26 26 25 23 21 23 22 23 28 29 29 29 29 28
49 48 48 48 48 49 45 42 40 40 42 44 45 45 45 45 42 38 34 37 37 36 27 18 31 30 30 30 30 32 33 33 33 32 31 32 32 30 28 25 26 26 27 27 25 25 27 28 29 30 29 29 29 26
49 48 48 48 48 49 46 42 40 40 41 43 44 45 45 42 38 35 33 36 37 35 28 20 21 30 29 29 30 30 31 30 31 30 31 30 30 30 27 26 26 27 27 26 27 28 27 28 28 30 29 27 27 23
49 49 48 48 49 49 46 43 41 40 41 43 44 45 43 39 38 32 36 38 37 31 29 19 18 25 29 27 27 30 29 29 29 29 29 28 28 28 27 28 28 29 28 28 27 28 27 29 29 27 26 24 19 14
49 49 48 48 49 48 46 43 41 41 42 46 46 43 36 34 32 33 39 39 36 29 21 22 15 16 28 28 29 28 28 26 28 28 27 27 26 25 27 27 27 27 27 27 27 28 29 28 27 26 23 17 13 13
49 49 48 48 49 48 45 43 41 43 46 43 36 33 29 33 37 37 34 30 29 29 27 22 24 23 26 26 26 27 27 25 24 26 27 25 25 26 26 26 26 26 27 27 25 26 25 27 26 22 17 15 14 17
49 49 48 48 49 48 44 42 42 45 40 35 32 30 33 36 33 28 26 25 26 25 26 24 25 23 28 23 24 28 25 25 22 20 24 21 20 24 27 25 26 27 28 27 26 26 24 24 22 17 17 18 17 16
49 49 48 48 48 47 44 42 45 39 36 36 34 34 33 29 25 22 18 21 23 20 25 24 24 27 27 28 26 26 23 24 19 24 22 18 18 22 26 25 25 26 26 24 23 23 21 21 18 18 18 17 17 17
49 48 48 48 48 46 44 43 45 42 36 33 30 26 25 23 21 18 15 16 16 20 24 25 23 26 26 27 26 25 21 20 23 21 18 17 18 24 25 25 23 20 20 20 19 19 18 18 18 16 15 16 17 17
48 48 48 48 48 46 44 43 45 39 33 29 26 23 21 20 21 20 18 16 18 22 24 23 25 23 25 23 23 20 20 21 18 16 12 15 18 25 25 25 21 19 18 18 18 17 16 15 15 16 17 16 15 13
48 48 48 48 48 45 43 44 43 39 33 30 27 23 22 22 23 23 23 24 26 26 26 23 24 23 23 22 23 21 20 17 16 12 12 15 25 24 24 25 22 19 19 18 18 16 15 16 16 16 16 16 15 15
48 48 47 48 47 45 43 45 42 39 35 32 30 27 27 25 24 25 24 21 26 27 26 24 21 21 20 19 20 18 15 12 10 15 18 23 23 22 23 25 23 21 19 18 17 15 16 16 15 15 16 16 15 15
48 45 47 48 46 43 43 40 38 35 33 31 28 30 29 27 27 26 23 23 27 24 17 21 14 11 20 18 18 18 15 14 14 16 24 24 20 22 24 24 23 21 19 17 15 16 16 17 15 15 14 16 15 15
45 46 47 47 44 42 40 38 34 32 30 31 29 30 30 29 27 27 24 26 26 24 22 16 17 16 14 13 14 16 19 20 21 24 21 20 23 24 25 22 22 21 19 18 17 17 16 14 13 14 15 15 14 14
46 46 47 44 40 33 32 31 33 29 30 30 31 31 31 30 29 26 27 27 26 26 24 20 16 16 13 16 13 13 16 19 17 21 21 21 23 24 24 21 20 19 18 18 17 16 16 15 14 16 15 14 13 14
47 46 45 42 38 32 30 30 34 31 27 28 28 29 29 28 28 29 26 27 26 24 21 20 18 17 16 16 18 16 17 21 19 16 15 17 19 21 21 20 18 17 17 17 16 17 16 16 15 14 14 13 14 14
46 44 43 41 34 32 32 30 30 32 29 27 28 29 28 27 27 27 26 27 24 22 20 21 21 19 19 19 20 21 20 22 19 16 15 15 16 18 18 19 18 17 16 15 15 16 17 14 14 14 13 15 15 13
40 42 38 34 31 30 31 32 30 30 26 25 27 27 25 24 25 26 26 25 23 23 23 21 21 22 21 21 21 21 21 21 21 20 20 20 16 16 17 18 18 17 16 15 14 14 17 18 15 13 13 13 15 13
40 35 32 32 29 29 27 31 26 25 22 23 26 24 23 22 24 26 24 24 25 25 25 25 25 25 24 24 24 23 23 22 21 21 21 21 20 19 18 18 19 17 16 15 16 15 16 16 16 12 12 14 12 11
36 32 30 28 28 26 27 25 25 22 22 21 22 20 21 22 26 24 22 22 24 25 25 26 26 26 24 23 24 24 24 23 24 23 23 22 21 19 19 18 18 18 17 16 17 16 15 14 13 15 12 11 11 11
28 27 28 25 27 22 22 21 20 20 18 19 19 18 20 23 20 20 20 19 21 23 24 26 27 27 25 24 24 24 25 24 23 23 23 21 20 17 17 17 17 18 17 16 16 15 14 13 14 13 12 11 11 11
24 27 25 25 22 21 19 18 18 17 18 18 18 19 20 19 18 16 17 17 19 20 22 24 25 25 25 25 24 23 24 24 24 23 23 21 20 19 18 16 16 16 18 16 15 15 14 13 12 12 11 12 14 12
23 24 28 27 22 19 18 18 19 19 20 20 16 18 18 16 16 17 19 20 21 22 24 25 25 24 22 23 25 24 22 23 22 21 21 20 20 19 19 17 16 16 17 17 16 15 14 12 12 11 11 11 12 13
28 26 23 21 19 18 18 18 18 18 19 18 19 18 17 17 17 20 21 22 23 21 21 23 25 25 24 23 23 21 18 17 17 17 17 17 16 17 18 18 17 18 17 17 17 16 14 13 12 11 11 11 11 11
25 23 21 20 18 18 18 18 18 20 21 20 19 18 18 21 22 21 22 20 20 22 21 23 23 21 20 18 19 17 17 18 19 19 19 19 18 17 17 17 19 19 17 18 18 15 14 13 12 11 11 11 10 8
21 22 19 19 18 18 18 19 19 21 21 22 22 22 22 21 21 20 19 20 21 19 20 20 20 21 20 20 19 17 15 18 19 19 18 18 17 16 18 19 17 16 18 18 17 17 17 15 15 12 9 8 8 7
22 20 19 18 18 18 18 19 21 21 22 23 22 23 20 17 16 16 18 19 20 18 18 17 16 17 17 17 17 17 17 16 16 16 16 16 16 17 18 16 16 17 17 16 16 16 16 13 10 9 8 8 8 9
21 21 20 19 17 16 17 19 20 20 19 20 19 15 15 16 16 17 16 17 18 18 19 19 17 17 17 18 18 17 19 16 17 16 17 15 16 17 17 16 17 17 16 15 16 16 13 11 9 8 8 8 8 7
16 16 15 16 16 16 17 20 20 19 17 17 18 15 15 17 17 19 17 18 19 19 18 19 20 19 18 18 18 17 18 16 17 18 19 18 17 17 16 16 16 16 15 15 15 13 11 10 9 8 7 7 7 7

GFSWCAN_sfc_30mbdewp_099.txt.gz
Dewpoint
50 49 49 49 48 50 46 42 41 43 45 45 45 47 46 44 45 38 35 36 35 31 30 33 33 32 33 33 31 31 31 31 31 27 27 24 22 21 22 21 18 16 15 18 20 19 10 27 27 20 19 28 29 30
50 50 49 49 48 48 48 44 41 41 44 45 45 45 46 44 44 39 33 35 37 34 33 33 33 33 33 33 33 33 31 31 33 30 30 28 25 23 20 17 20 17 19 13 19 17 20 26 25 26 27 27 29 29
51 50 50 49 48 47 49 46 42 41 43 44 45 44 46 44 42 39 36 34 36 34 33 31 30 31 32 32 34 31 33 34 34 34 31 29 27 27 23 22 21 21 24 22 21 20 20 24 27 28 28 27 28 29
51 50 50 49 49 47 48 47 43 41 41 43 45 44 44 46 42 38 33 34 35 33 29 29 31 31 32 32 32 34 33 34 34 33 31 29 28 28 25 24 22 22 24 23 24 23 24 25 26 27 29 29 30 30
51 51 50 49 49 48 47 48 45 42 41 42 45 45 44 46 44 38 36 35 34 29 24 25 30 31 31 31 32 33 32 32 33 31 31 30 31 30 29 27 26 26 24 23 22 23 22 21 24 27 29 29 30 28
50 50 50 50 49 48 48 48 46 42 41 42 44 45 44 46 42 38 34 36 36 35 28 19 29 30 30 30 30 32 33 32 33 32 31 31 31 30 27 26 27 27 27 27 25 26 25 26 29 29 29 30 29 27
50 50 50 50 49 48 48 48 46 43 41 42 44 45 45 42 38 33 33 35 37 35 27 21 20 29 29 29 30 30 31 31 31 30 30 30 30 31 28 27 27 28 28 28 28 27 27 28 27 30 30 29 28 24
50 50 50 50 49 48 49 48 46 43 41 41 43 45 45 40 38 34 36 38 36 30 28 19 17 23 29 26 27 29 29 29 29 29 29 29 28 29 27 28 28 29 28 27 28 28 27 28 29 29 27 24 22 18
49 49 50 50 49 49 49 48 46 43 41 42 44 44 37 34 31 33 39 39 35 29 21 21 16 13 28 27 28 28 28 26 28 27 27 27 26 26 27 28 27 27 26 26 27 28 28 28 28 26 25 21 18 13
48 49 49 50 49 49 49 48 45 43 43 45 37 34 31 32 37 38 33 30 29 28 26 23 22 21 26 26 26 26 27 25 23 25 27 26 25 27 27 27 27 26 25 27 26 26 27 27 27 25 23 18 14 14
48 48 49 49 49 49 49 47 44 45 40 35 32 31 33 37 32 28 26 26 26 24 26 24 23 22 27 23 23 27 24 24 22 21 24 22 21 22 25 26 26 26 27 28 27 27 28 28 27 23 18 16 16 18
48 48 49 49 49 49 49 47 45 41 37 35 34 34 33 29 25 24 21 21 24 21 24 23 24 26 27 28 26 26 23 24 18 23 23 19 19 20 23 25 25 23 25 25 24 24 24 26 24 19 18 18 18 17
47 48 48 49 49 49 48 45 45 41 38 35 30 26 26 25 21 19 15 17 19 21 24 24 25 26 26 27 25 24 22 20 22 21 18 18 18 21 23 24 24 20 21 21 21 21 21 20 19 18 17 17 17 17
47 47 48 49 49 49 48 45 45 40 37 32 30 25 22 19 20 20 19 19 21 22 24 24 24 23 25 23 23 19 21 21 19 16 14 16 16 19 23 25 23 20 19 19 18 18 18 17 16 16 15 16 16 14
47 48 48 49 49 49 47 45 43 40 35 31 29 24 23 22 23 23 23 24 25 26 24 22 23 23 23 21 23 20 19 17 17 13 14 13 16 22 22 24 24 20 18 18 17 16 15 15 15 15 16 16 15 14
48 48 48 48 48 48 46 45 42 39 34 32 30 26 25 24 23 24 24 26 27 26 24 23 21 19 18 19 20 17 15 11 11 17 17 18 20 20 20 23 24 22 20 18 17 16 16 16 15 14 16 16 15 15
48 45 47 48 48 48 45 40 35 32 31 30 28 31 27 26 25 25 26 27 27 25 17 20 13 11 19 18 17 18 14 13 15 15 17 21 19 18 21 23 25 23 21 19 17 16 15 16 16 15 13 15 16 16
45 47 47 47 48 44 38 33 32 31 28 31 28 28 29 29 27 28 27 27 27 25 22 17 18 15 14 13 15 17 19 19 18 17 17 22 20 21 23 23 24 23 22 19 17 16 16 15 13 12 13 15 15 15
46 47 47 47 44 35 32 30 31 28 30 32 32 30 30 29 29 30 27 28 28 26 22 18 14 13 14 18 19 16 17 19 18 19 22 23 20 21 23 24 23 22 21 19 18 16 16 15 13 13 15 15 13 14
47 48 47 47 40 33 30 30 32 30 27 29 31 30 29 28 28 30 29 28 27 25 21 20 16 18 17 20 22 18 16 18 19 16 15 18 20 21 22 22 22 21 20 18 18 18 16 16 15 15 16 15 14 13
46 46 47 43 35 33 32 29 29 31 29 27 28 30 28 28 28 29 28 29 27 25 23 21 19 19 20 21 21 20 19 20 18 16 15 14 15 17 18 20 20 19 18 18 18 18 19 15 14 15 15 16 15 15
43 44 39 36 31 30 31 32 31 30 27 26 28 27 25 25 25 28 29 27 26 28 25 24 23 23 23 23 23 22 20 20 21 20 21 20 18 17 17 18 18 19 18 18 17 16 17 17 15 15 14 14 16 15
40 35 32 32 29 28 27 31 27 26 24 24 27 25 23 23 25 27 26 25 27 28 29 27 26 26 25 25 24 23 22 21 21 21 21 22 21 20 18 18 19 18 18 18 18 17 16 18 18 15 14 14 14 14
36 32 30 28 28 25 27 25 25 23 24 23 23 22 21 22 24 23 22 22 24 26 27 27 27 26 27 25 25 25 24 23 23 23 23 22 22 21 20 19 19 19 19 18 17 17 16 17 18 16 13 13 13 12
28 27 28 25 27 23 22 20 20 20 19 19 20 20 20 24 20 20 20 20 22 23 25 27 26 26 26 26 26 26 26 26 25 24 24 23 23 21 20 19 19 19 19 17 17 16 15 15 16 15 12 12 12 11
24 27 25 25 22 21 19 18 18 17 17 18 19 18 20 20 18 19 18 20 20 22 24 25 25 25 26 26 26 25 25 25 25 24 24 24 23 22 21 20 19 18 18 18 17 16 14 14 14 14 13 14 14 12
23 24 27 28 23 20 19 18 18 18 18 19 17 17 18 19 18 18 19 20 20 22 25 25 25 25 25 25 27 26 24 25 24 23 22 23 23 22 22 20 19 19 18 18 17 15 14 14 13 13 12 12 13 14
28 27 23 23 19 17 17 17 17 18 19 18 18 17 18 18 17 18 19 23 23 23 24 25 26 26 26 25 24 23 20 18 17 17 18 17 16 17 19 19 18 20 18 18 17 16 15 14 13 12 12 11 11 13
26 25 22 21 18 18 18 18 18 19 20 19 18 18 18 19 21 21 22 22 21 21 20 22 23 21 20 19 20 19 18 20 21 20 19 19 18 18 16 17 19 19 18 19 19 16 15 14 13 13 12 11 11 10
23 24 21 19 19 19 19 19 18 20 21 22 22 21 21 21 21 21 20 21 21 20 22 22 22 22 21 22 21 18 16 19 20 20 17 17 17 16 16 17 17 17 18 19 18 18 19 17 16 13 11 10 9 8
23 21 19 19 19 16 17 18 21 22 21 21 22 21 20 20 20 19 21 21 22 21 21 19 19 20 21 20 19 19 18 18 17 18 17 16 16 17 17 16 17 18 18 18 18 18 17 15 11 10 9 9 8 9
21 21 19 19 18 16 16 19 19 19 19 20 20 19 19 19 19 20 18 19 19 19 20 19 18 19 20 20 20 18 19 18 17 17 17 16 16 17 17 16 17 18 17 17 18 17 14 11 10 9 9 8 9 8
18 18 17 16 16 16 17 19 18 18 18 18 18 17 18 19 20 21 18 20 21 21 20 20 20 20 18 18 18 18 19 16 17 19 19 18 18 18 17 17 17 17 17 17 17 14 12 10 10 9 8 8 9 8

GFSWCAN_sfc_30mbdewp_102.txt.gz
Dewpoint
52 52 51 50 50 48 48 48 44 42 43 45 45 45 47 45 45 38 35 36 35 31 30 32 33 32 33 33 30 31 31 30 31 26 25 24 22 22 21 21 18 16 14 17 21 21 12 26 27 20 18 25 28 30
52 52 51 51 50 49 48 48 46 43 42 44 45 45 45 45 43 38 34 35 37 34 31 33 33 33 33 33 33 33 31 30 32 30 29 27 25 23 21 18 20 16 17 14 19 16 20 25 26 25 25 26 27 28
52 52 52 51 50 50 49 47 48 44 42 43 44 45 45 46 43 38 35 34 36 33 32 32 30 32 32 32 34 31 32 34 34 33 30 29 26 27 24 22 22 21 23 21 21 20 21 22 24 27 28 27 27 29
51 52 51 51 51 50 49 48 48 46 43 42 43 45 45 45 45 38 34 34 34 32 27 27 31 31 32 32 33 34 34 34 34 33 31 29 28 28 26 25 23 22 23 22 23 23 23 23 24 25 26 29 29 29
51 51 51 51 51 50 49 49 48 47 44 42 42 45 45 45 46 39 36 34 33 29 24 24 28 30 31 32 32 33 32 32 32 31 30 29 30 29 28 27 26 26 24 23 21 22 23 23 23 26 26 27 29 30
50 50 50 51 51 51 50 49 48 48 45 42 42 44 45 45 44 37 34 36 36 34 27 21 26 30 30 31 31 32 32 32 32 31 30 30 30 30 26 25 26 27 28 27 26 27 26 26 26 28 28 28 30 29
48 49 50 50 51 51 50 49 49 48 46 43 42 44 45 45 40 35 32 35 37 34 25 21 20 28 29 29 30 30 31 31 31 30 30 29 29 31 29 27 27 27 27 28 29 28 27 27 27 28 29 30 31 27
48 48 49 50 50 50 50 49 49 48 46 43 42 44 45 42 38 35 36 39 35 30 28 20 18 20 29 26 26 29 29 29 29 29 28 29 28 29 27 27 28 29 29 28 27 28 28 28 29 29 29 27 26 24
48 47 47 47 48 49 50 50 49 48 46 43 43 44 39 37 32 32 40 38 34 29 22 21 16 12 28 27 28 28 28 26 28 27 27 28 27 25 28 28 28 28 27 26 26 26 27 28 28 28 27 25 24 19
46 47 46 46 47 48 50 50 49 48 45 43 41 38 35 33 37 39 33 31 30 28 27 23 22 18 26 26 26 26 27 25 23 25 27 26 25 27 27 28 28 28 27 25 24 25 26 27 27 27 26 23 21 17
45 45 46 46 47 48 49 50 49 46 44 39 36 32 34 37 32 29 26 26 27 25 26 25 22 21 27 22 23 27 24 24 22 22 24 22 22 23 25 24 26 25 25 25 27 27 27 27 27 26 24 21 17 16
44 43 44 46 47 47 48 49 47 43 40 37 35 35 33 29 26 25 23 22 24 21 25 23 23 25 26 28 25 27 23 23 19 22 22 20 20 22 22 23 23 24 23 25 26 26 26 27 27 25 22 18 17 18
44 42 42 44 45 48 49 49 46 42 39 37 33 31 29 27 22 21 16 18 20 24 25 25 24 25 26 27 24 24 22 21 22 21 18 18 19 19 21 22 22 23 22 22 22 22 23 24 23 21 19 18 18 16
44 45 45 44 44 46 48 49 45 41 38 33 30 25 25 21 21 20 18 18 22 24 24 25 25 23 25 24 23 20 22 20 19 17 14 18 19 19 20 23 23 22 21 21 20 20 20 21 20 18 18 17 15 14
44 44 45 45 46 46 48 49 44 41 36 31 30 26 26 24 22 22 23 21 24 26 25 23 24 24 22 20 22 20 19 16 17 12 15 17 17 17 20 21 23 23 20 19 18 18 18 17 16 16 16 16 15 14
43 44 44 45 46 47 48 48 43 39 35 31 30 28 25 23 21 22 22 24 27 26 25 25 21 20 17 19 19 16 14 11 11 17 19 17 15 19 20 20 22 24 21 19 18 16 16 15 14 14 15 15 14 13
43 41 42 45 46 46 47 43 33 31 30 29 29 31 26 24 22 23 24 26 27 24 18 20 15 11 19 16 16 19 15 16 16 16 18 19 16 17 19 19 22 24 22 20 18 17 16 15 15 14 13 14 14 14
40 41 43 45 46 46 37 34 32 30 27 30 28 29 29 26 26 26 27 27 26 26 23 17 19 15 13 13 14 18 20 23 19 18 18 18 20 20 20 20 22 24 23 21 19 18 16 15 15 14 13 13 14 15
41 42 43 45 46 35 32 30 31 28 29 31 31 29 29 28 28 29 27 28 29 27 24 20 14 13 14 18 17 19 23 20 15 17 19 20 20 20 20 22 23 23 23 22 20 18 17 16 15 15 14 14 13 15
42 43 43 44 43 34 30 30 31 30 28 30 31 29 28 28 29 29 28 29 28 27 21 18 15 15 16 18 23 24 23 20 18 16 16 18 22 22 20 20 22 23 22 21 20 20 17 16 16 15 15 14 13 13
40 41 42 43 37 34 32 28 28 30 29 28 30 30 29 28 28 28 28 30 28 27 25 23 19 19 20 20 22 23 23 20 20 18 15 15 16 19 21 22 22 21 21 20 20 20 22 18 17 16 15 17 16 15
40 41 39 37 32 31 31 32 30 30 28 27 29 29 25 25 26 28 30 27 27 28 28 28 28 28 25 22 22 22 23 22 20 19 21 20 16 16 17 19 19 19 20 20 20 19 19 20 17 16 15 15 17 15
39 36 33 32 29 28 28 32 28 26 24 25 27 26 24 24 25 30 26 27 27 28 29 29 28 28 27 26 26 25 24 23 22 21 21 21 20 20 20 19 20 19 19 20 20 20 19 19 19 16 15 16 16 15
37 33 30 29 28 25 28 26 26 24 25 24 24 23 22 22 25 25 23 24 25 27 28 29 30 29 28 27 26 27 27 25 24 25 23 22 21 21 22 22 20 20 21 20 20 19 18 18 19 19 14 14 14 14
29 28 28 25 27 23 22 20 20 20 20 22 22 20 19 23 20 20 19 19 22 24 26 28 28 29 28 28 28 28 29 28 26 25 25 24 23 22 22 22 21 20 20 19 18 18 17 17 19 17 14 14 13 12
25 28 25 24 23 22 21 19 18 18 16 19 20 19 21 21 19 19 18 19 22 24 25 26 26 27 28 28 27 27 27 28 27 26 26 26 25 24 24 23 21 20 19 20 19 17 17 16 17 16 14 15 15 12
24 24 26 28 22 21 19 17 17 18 17 19 18 17 19 19 19 18 19 20 22 24 26 26 27 27 27 27 27 27 26 27 26 25 25 25 25 25 25 23 21 21 19 19 19 18 17 16 16 15 14 13 15 14
25 25 23 23 21 18 17 17 17 18 18 17 17 18 20 20 18 20 19 21 22 24 26 27 28 28 28 27 26 25 22 21 19 18 19 19 18 20 21 21 20 21 19 19 18 17 17 16 15 14 14 13 13 14
25 25 23 21 18 19 18 18 17 18 20 19 18 17 18 19 20 19 21 22 22 23 21 22 23 22 21 21 22 21 20 21 22 22 21 20 19 19 17 18 19 20 18 20 20 17 16 16 15 14 13 13 13 13
24 25 23 21 21 20 20 19 18 18 20 21 21 21 20 20 21 23 21 21 21 21 21 23 23 22 22 22 21 20 18 21 23 22 19 18 18 17 16 17 18 18 18 19 19 19 19 18 17 14 12 11 11 11
24 23 20 20 20 18 17 15 19 21 20 20 21 21 20 20 20 20 21 23 24 23 22 21 21 22 22 22 21 20 20 20 19 20 18 17 16 16 16 17 17 18 18 18 18 19 18 15 12 11 10 10 10 10
21 22 20 19 19 14 15 18 19 19 19 19 19 19 20 19 19 20 19 21 21 21 23 24 22 21 22 23 23 23 23 22 21 19 18 17 16 16 16 16 17 18 18 18 19 18 14 13 11 11 10 9 10 9
19 19 17 18 18 18 17 18 18 18 17 18 19 19 20 20 19 21 21 22 23 23 24 25 24 23 22 22 23 22 19 17 18 20 20 19 18 17 17 17 17 17 17 18 17 14 12 11 10 10 10 9 9 8

GFSWCAN_sfc_30mbdewp_105.txt.gz
Dewpoint
52 52 52 52 51 50 50 49 49 46 44 43 44 45 45 46 44 38 36 36 34 29 29 31 32 31 32 32 29 30 30 30 30 27 25 23 22 22 21 20 18 17 16 19 23 22 13 24 27 19 19 21 25 29
52 52 52 52 52 51 50 50 49 47 45 43 43 45 45 46 44 38 35 35 37 32 29 33 33 33 33 33 32 32 30 30 31 29 28 27 26 24 21 19 20 17 17 14 18 16 20 25 25 25 24 25 26 28
52 52 52 52 52 52 51 50 50 48 46 44 43 43 45 45 45 39 35 35 35 32 30 32 31 32 33 33 35 31 32 33 33 33 30 29 27 26 24 22 21 21 22 19 20 20 20 21 23 24 25 25 27 28
51 52 52 52 51 52 52 51 50 49 47 45 43 42 45 45 46 40 35 33 33 31 28 28 31 31 32 33 33 34 33 34 33 33 31 29 28 29 26 25 24 24 23 22 22 23 23 23 24 24 24 26 27 28
51 51 51 51 50 51 51 51 50 49 48 47 44 42 45 45 45 41 37 35 33 30 27 26 28 30 31 32 32 33 33 32 32 31 30 30 29 29 28 27 26 26 25 23 21 23 23 23 25 25 26 27 27 28
50 51 51 50 49 49 51 51 51 49 49 47 44 43 44 45 44 38 33 36 35 34 27 26 27 30 30 31 31 32 32 31 31 31 30 29 30 29 27 25 26 27 28 27 25 27 27 27 28 27 27 28 28 29
49 49 49 47 47 48 49 51 51 50 49 47 44 43 44 45 41 37 32 35 36 33 26 21 20 28 30 29 29 30 31 31 31 30 29 29 29 31 28 25 24 26 27 27 28 28 27 27 27 28 28 29 30 30
47 47 48 48 49 48 49 50 51 50 49 47 45 44 45 45 41 37 37 40 35 30 28 21 19 19 29 27 27 29 29 29 29 29 29 29 29 29 26 27 27 28 29 29 29 28 28 28 26 26 28 29 28 27
46 46 47 48 48 46 47 47 49 50 50 47 44 44 41 39 36 33 39 38 34 29 23 22 18 12 28 27 28 28 28 27 28 28 28 28 27 24 26 26 27 28 28 28 27 27 25 24 25 27 28 27 27 25
46 46 45 45 46 46 43 46 48 50 49 45 42 39 36 35 39 39 34 31 31 30 28 25 24 18 26 26 27 26 27 25 23 25 27 26 25 27 27 28 29 28 28 28 25 20 23 25 26 27 27 27 26 23
45 45 45 45 45 46 45 46 47 49 44 40 37 35 35 38 32 30 28 27 27 26 27 26 24 22 27 23 24 26 24 24 22 22 24 22 22 24 26 26 27 28 27 25 25 25 26 26 26 26 27 25 24 21
44 44 45 45 45 45 44 45 47 44 41 40 37 36 34 32 29 25 24 24 25 22 25 24 23 25 26 28 26 26 23 23 19 23 22 20 21 22 22 23 25 25 23 23 25 26 27 27 27 27 26 24 21 19
43 43 44 44 43 43 43 44 46 44 40 39 35 32 30 29 24 22 19 19 19 24 25 24 23 25 27 27 25 24 22 21 22 20 18 19 19 21 22 22 22 23 23 23 24 23 23 24 26 26 24 21 18 17
42 42 43 44 44 45 44 43 44 43 39 33 29 25 26 25 24 22 20 18 21 25 25 25 25 24 25 25 24 20 22 21 18 17 15 17 18 19 20 21 21 19 22 22 23 22 21 22 23 22 21 19 17 16
42 42 42 43 44 44 45 44 44 43 37 31 30 25 25 25 22 22 22 22 24 26 25 24 23 24 22 22 22 20 18 16 17 14 17 16 19 21 19 20 20 20 22 21 21 20 19 20 21 19 18 18 16 15
41 41 41 42 42 43 44 44 44 41 36 32 30 29 28 25 23 22 21 22 27 26 26 25 21 20 16 18 18 16 14 11 12 19 20 20 18 19 17 19 19 20 22 21 20 19 18 18 18 17 16 16 15 14
39 37 38 39 41 42 44 41 38 34 32 28 27 31 28 24 26 24 23 24 27 26 22 21 17 12 19 16 16 18 14 15 17 18 19 20 17 15 17 20 19 20 22 22 20 19 18 17 16 15 13 14 14 14
37 37 39 41 42 41 41 39 34 30 27 29 28 29 30 28 25 24 25 27 27 26 26 20 22 16 13 12 13 16 19 22 23 20 19 18 19 18 18 18 19 21 22 22 22 20 18 16 15 15 15 14 14 14
36 38 40 41 41 39 33 32 33 28 27 29 29 29 30 28 27 27 26 28 29 29 27 25 21 18 16 17 15 17 21 21 19 22 20 19 19 18 19 20 21 22 22 23 22 21 20 18 17 16 16 15 13 14
39 39 40 41 40 35 31 30 31 30 27 28 31 28 28 28 28 28 27 27 28 28 26 24 23 20 15 16 20 21 22 23 22 19 18 18 19 19 18 18 19 21 23 23 22 23 20 19 18 17 16 15 14 13
38 38 39 39 37 37 32 30 27 29 29 29 30 29 28 27 27 27 27 28 28 27 26 27 26 26 22 19 20 22 22 23 22 21 21 19 17 19 21 22 22 22 21 21 21 21 24 21 20 18 16 17 16 14
35 37 36 36 34 32 30 32 30 30 28 27 29 29 27 25 26 28 29 27 27 28 28 27 28 28 27 24 22 22 22 22 22 22 23 22 20 19 19 20 22 22 22 22 21 21 21 22 21 18 17 17 18 16
37 36 35 34 30 28 27 31 28 27 24 25 28 27 25 24 25 30 26 28 27 28 29 29 29 30 30 30 28 27 24 23 22 22 22 22 22 22 22 22 22 24 25 23 22 22 22 22 22 19 17 17 17 16
38 33 30 28 27 25 28 26 28 25 25 24 24 23 22 22 26 26 24 24 26 27 27 28 29 29 29 29 29 29 29 29 27 27 26 25 24 23 23 23 24 24 24 22 22 21 21 20 21 21 16 16 16 16
29 27 28 25 29 24 22 21 20 20 20 22 22 22 20 22 21 21 20 20 23 25 26 27 28 28 28 28 29 29 29 29 28 27 27 27 26 26 24 23 22 22 22 21 20 20 20 19 20 20 17 16 16 15
24 27 24 23 23 22 20 18 18 18 17 20 21 18 21 20 20 19 19 21 23 23 25 26 27 27 27 29 28 28 29 30 29 29 29 28 27 27 27 26 24 23 21 22 22 20 19 18 19 18 17 17 18 14
23 24 26 28 24 21 19 17 17 17 17 19 17 18 20 19 19 20 20 20 22 24 25 26 27 27 27 27 28 29 29 29 29 28 27 28 28 27 27 26 26 25 22 21 21 20 19 18 18 18 17 16 17 14
25 25 22 24 21 17 18 17 17 18 18 17 18 18 19 20 18 21 20 21 22 23 24 27 28 28 28 28 28 27 25 24 21 21 21 21 20 22 23 23 22 23 21 21 21 20 19 18 18 17 16 15 16 14
24 25 24 21 19 20 19 17 17 18 19 18 18 17 18 20 20 20 20 21 22 22 21 21 23 23 22 23 24 24 23 23 24 24 24 24 22 21 19 20 21 23 20 21 22 19 18 17 17 16 15 15 15 13
22 24 23 21 21 21 21 19 18 17 19 20 20 20 20 20 20 21 20 20 21 21 22 22 22 21 22 23 23 22 19 22 25 24 23 22 22 21 18 19 20 20 19 20 20 20 21 19 19 15 13 13 13 13
23 23 22 20 20 20 19 15 16 20 19 19 19 20 20 19 20 21 21 22 23 23 22 21 21 22 22 22 22 22 22 21 21 24 21 19 17 17 17 18 18 18 18 19 19 20 19 15 12 11 11 11 13 12
23 22 20 18 18 14 13 17 18 18 17 19 19 18 19 19 19 21 20 21 22 22 23 24 23 22 23 24 25 25 24 24 22 22 21 19 19 18 17 17 18 18 18 18 19 18 15 13 11 11 10 11 12 10
20 19 17 18 18 18 16 17 18 17 16 17 18 18 19 20 20 21 21 22 23 23 23 24 25 26 25 25 25 26 24 21 24 23 23 21 20 18 17 17 18 18 18 18 17 14 13 12 11 10 10 11 9 9

GFSWCAN_sfc_30mbdewp_108.txt.gz
Dewpoint
52 52 52 52 52 52 51 50 50 49 48 44 44 44 45 46 45 39 38 37 34 31 30 31 32 32 33 32 25 30 30 32 31 28 25 23 22 21 21 19 19 20 22 23 24 23 18 25 27 18 18 21 23 27
52 52 52 51 52 52 52 51 50 49 48 46 44 43 45 45 46 39 36 35 37 33 31 33 33 34 33 33 32 33 30 30 32 29 28 27 26 25 22 17 21 18 17 15 19 18 22 25 25 26 25 25 26 27
52 52 52 51 51 52 52 52 51 50 49 48 45 44 44 45 45 41 36 36 36 33 32 32 32 33 33 34 35 30 33 34 34 34 32 30 27 28 22 22 22 22 21 19 19 18 20 21 22 23 23 24 25 26
51 51 51 52 52 51 51 51 52 51 50 49 47 45 43 45 45 42 39 35 34 32 30 30 32 31 32 33 33 34 34 34 34 34 33 31 29 29 26 25 24 22 23 21 21 22 23 24 24 24 25 26 26 28
50 50 51 51 51 51 50 50 51 52 50 50 48 46 43 45 45 43 40 37 35 32 29 29 29 30 31 32 32 33 34 34 33 32 32 31 31 30 29 28 27 26 24 23 21 23 22 21 24 27 27 28 28 28
49 50 50 50 50 50 49 49 50 51 51 50 49 46 44 45 44 39 34 36 35 34 30 29 29 29 31 32 32 32 33 32 33 32 31 32 31 31 29 26 26 28 28 26 23 24 25 25 28 29 28 28 27 29
48 49 49 48 49 48 47 46 48 50 51 50 49 46 44 45 42 35 32 36 36 34 27 24 23 28 30 30 30 31 32 32 32 32 30 30 30 32 30 24 21 26 27 28 28 28 27 28 27 28 28 27 28 30
47 47 47 47 47 48 48 47 47 48 50 51 49 46 45 45 43 39 39 40 36 30 29 24 22 20 29 28 28 30 30 31 31 31 30 29 29 31 27 27 27 26 26 27 28 28 28 29 28 27 27 27 28 29
45 46 46 46 47 47 47 47 45 47 48 50 48 45 43 41 38 35 40 39 35 31 27 25 22 18 28 27 28 29 29 27 29 29 29 29 28 26 25 25 26 28 28 28 28 28 28 27 26 24 26 27 28 28
45 46 46 45 46 45 46 45 44 45 47 47 42 38 35 37 40 38 35 33 32 32 30 27 27 21 28 27 27 28 28 27 25 26 28 26 26 27 27 28 28 28 29 29 27 26 25 23 26 26 27 28 28 28
44 44 44 45 45 45 45 46 45 47 44 40 38 36 36 40 34 32 29 29 29 27 29 28 26 23 27 24 25 27 26 26 22 24 25 24 24 24 25 27 27 28 29 29 29 28 25 25 27 27 27 27 27 26
43 43 44 44 45 45 45 45 44 43 41 40 38 37 35 33 31 28 26 26 26 24 26 26 25 26 26 28 26 26 24 24 20 25 23 20 22 25 24 25 26 27 28 27 25 24 27 27 27 28 27 27 26 25
42 43 43 43 44 44 44 43 43 44 41 39 35 32 30 30 24 23 21 22 22 25 26 25 24 26 27 28 26 25 22 21 23 21 19 20 23 22 23 24 24 25 24 23 23 25 26 25 25 26 27 26 24 21
41 42 42 43 43 43 43 44 43 43 40 34 30 26 27 26 25 24 23 22 23 26 26 25 26 25 26 25 25 22 22 22 19 17 13 20 19 22 21 23 22 20 22 22 23 25 24 24 23 24 25 23 21 19
40 41 41 42 42 42 43 44 41 43 38 32 30 25 26 27 25 24 24 24 25 27 26 25 25 24 24 24 23 21 19 17 18 14 18 20 20 21 21 20 20 19 20 22 23 22 23 22 22 22 22 22 20 18
40 39 39 40 41 42 43 42 40 41 36 33 31 28 30 27 26 23 23 24 27 27 27 26 23 22 21 22 20 18 16 12 12 20 22 23 19 19 22 21 19 20 19 20 22 22 22 21 21 22 20 19 18 17
38 36 37 37 39 41 39 39 37 34 32 30 28 30 29 27 28 27 25 23 28 27 26 27 24 23 22 20 17 18 15 16 17 21 23 22 19 18 19 19 19 19 19 20 21 21 22 21 20 19 18 18 18 17
36 36 37 38 38 39 38 35 33 31 29 30 28 27 28 29 28 26 25 27 27 28 27 27 26 21 20 18 16 17 18 22 24 23 22 20 19 19 19 17 18 20 20 22 22 23 22 20 18 18 19 19 17 17
37 37 38 38 38 35 30 33 33 28 27 27 29 29 28 29 29 29 27 27 28 30 29 28 26 23 23 23 21 22 21 21 18 17 19 21 23 22 19 19 19 19 21 22 22 21 21 21 20 19 18 17 15 15
38 38 38 38 37 32 30 31 32 29 27 28 29 28 29 28 29 28 27 27 28 28 26 25 25 26 26 26 26 24 24 25 24 22 20 20 21 20 20 20 20 21 23 24 24 24 22 21 21 20 19 18 16 16
36 36 37 37 36 34 32 31 28 28 29 29 29 28 27 27 28 26 27 28 27 27 26 27 26 26 27 27 27 23 22 23 22 21 18 20 23 22 22 23 23 23 22 21 21 22 25 23 23 21 20 20 19 18
35 35 35 36 32 31 30 33 30 30 28 28 29 30 28 27 27 28 28 27 27 28 27 27 27 28 28 28 28 28 26 24 23 22 23 23 22 22 22 22 24 22 22 22 22 23 23 24 24 22 20 20 21 19
35 35 33 32 28 27 23 32 28 27 24 24 28 26 27 25 27 30 26 28 28 28 28 29 29 29 29 29 29 30 30 28 26 25 24 24 23 24 24 25 25 25 26 26 26 26 27 28 26 25 21 21 19 19
35 32 28 27 27 23 28 26 29 26 25 24 24 23 24 24 26 26 25 25 26 27 28 28 29 28 28 29 29 29 29 30 30 29 28 27 26 26 24 24 24 25 25 26 28 30 29 29 29 28 22 20 19 18
27 26 26 22 28 25 22 21 21 21 21 22 23 23 21 23 22 22 21 22 24 25 27 28 28 28 28 28 28 28 29 30 29 29 30 30 29 29 29 28 27 25 25 27 26 26 27 24 24 23 20 20 19 18
21 23 23 23 22 23 20 18 19 19 18 20 22 21 21 21 20 20 20 22 23 24 25 25 26 27 27 28 28 28 28 30 30 30 30 30 30 29 29 29 28 27 24 25 25 24 23 22 22 22 21 20 21 18
20 19 26 26 24 21 20 18 18 18 17 19 19 18 19 18 19 21 21 22 22 24 26 27 27 27 27 27 28 29 29 30 30 30 29 30 31 30 30 29 28 29 26 25 24 24 23 21 21 21 20 19 20 19
24 23 18 21 22 20 20 18 18 17 18 17 19 18 19 20 19 22 21 22 23 23 23 26 28 29 29 29 30 29 28 28 26 25 25 24 24 26 27 28 26 27 25 24 24 24 23 21 21 20 19 18 19 17
21 23 25 21 19 19 19 18 18 19 19 18 18 17 19 20 21 21 21 21 21 21 21 21 22 23 24 24 24 26 26 25 26 26 25 26 26 26 23 23 24 25 23 23 24 22 21 20 20 19 18 17 17 15
21 24 23 20 20 20 21 20 18 17 18 20 19 20 19 20 20 20 20 20 20 21 22 23 24 23 22 23 23 23 22 24 26 27 25 25 26 25 21 21 22 22 22 23 22 22 23 22 21 17 15 15 14 14
21 23 22 20 19 19 19 16 16 19 19 19 18 19 20 20 20 20 21 21 22 24 22 23 23 24 23 23 23 23 22 23 23 25 27 26 23 20 19 21 22 21 21 21 21 22 21 17 15 14 14 14 14 13
21 20 18 16 17 13 12 18 18 19 18 18 19 18 18 18 19 21 21 21 21 22 23 24 23 23 26 25 25 26 25 25 24 23 25 24 22 20 19 20 21 21 20 20 21 20 15 14 13 13 12 13 13 11
20 19 16 17 17 16 15 16 17 17 15 16 17 18 19 20 20 21 21 23 23 23 23 23 25 26 26 26 26 26 27 26 25 25 25 24 22 20 20 20 20 20 20 19 18 15 14 13 12 11 12 12 11 11

GFSWCAN_sfc_30mbdewp_111.txt.gz
Dewpoint
53 52 52 52 52 52 52 52 51 50 49 48 45 44 45 46 46 40 39 38 37 32 30 31 32 30 32 31 23 31 30 32 32 27 22 20 19 18 19 14 18 20 22 23 23 21 19 23 26 18 18 21 22 25
52 53 53 52 52 51 51 52 52 51 50 49 47 45 44 45 46 41 37 36 36 34 32 33 32 32 33 32 30 31 28 29 29 29 27 24 23 23 19 14 19 16 15 14 20 21 22 25 20 24 26 25 24 24
52 52 52 52 52 52 51 51 51 52 51 50 49 46 44 45 45 43 40 38 37 35 34 34 32 34 34 34 35 28 29 30 33 35 31 28 27 24 21 20 20 20 21 19 16 17 19 20 23 23 23 23 24 25
50 51 51 51 51 51 51 50 50 51 52 51 50 48 45 44 45 44 41 38 36 33 31 29 32 31 33 33 34 34 34 35 35 36 32 29 25 26 24 22 22 23 22 21 20 20 21 22 23 23 23 24 26 27
47 47 49 50 50 51 51 50 49 50 51 52 50 49 46 44 45 45 43 40 37 33 31 29 32 31 32 32 33 34 34 33 33 32 34 31 30 30 28 28 27 26 23 22 20 21 21 21 23 25 25 27 28 28
47 48 49 49 49 49 50 49 48 48 49 50 51 50 47 45 45 40 34 38 38 35 32 30 31 29 31 32 32 33 33 33 33 32 31 32 33 31 27 24 24 23 26 25 23 23 23 24 27 26 27 28 28 27
46 47 48 48 49 48 48 47 46 46 48 50 51 50 47 45 43 35 32 37 37 35 31 27 29 29 31 31 32 32 33 33 33 32 32 31 31 32 30 24 21 20 24 26 27 26 25 27 27 28 29 29 28 27
45 47 46 47 47 46 47 47 48 47 48 48 49 50 46 46 45 40 41 39 37 32 30 26 28 25 30 29 28 31 31 31 32 31 31 30 30 31 28 26 25 25 25 25 26 28 27 27 29 29 29 28 26 25
45 46 45 46 46 46 46 46 46 46 46 47 49 46 44 42 39 38 41 41 36 32 29 29 27 27 29 29 29 29 30 27 30 28 28 29 26 26 26 26 26 25 27 27 28 28 28 29 29 28 26 24 26 27
45 44 44 46 45 45 45 45 46 45 45 47 42 39 36 39 41 38 36 34 33 34 32 28 29 27 28 27 27 28 28 26 25 26 29 27 25 26 26 27 28 27 28 29 28 27 28 28 27 25 27 27 28 28
44 44 44 45 45 45 45 45 46 46 44 41 39 36 37 41 37 34 31 30 30 28 30 29 30 27 28 26 26 28 28 27 23 26 25 24 24 25 26 25 26 26 27 30 30 30 28 27 25 26 28 28 28 28
43 44 44 44 44 44 44 44 44 44 42 41 38 38 37 33 31 29 28 28 27 26 29 28 28 28 27 28 26 27 26 25 22 26 23 22 23 26 27 27 26 27 27 29 29 29 28 25 27 28 28 29 29 29
42 43 43 43 43 43 43 44 43 43 41 40 36 32 31 31 25 24 24 25 25 27 28 27 26 27 27 29 28 27 25 22 24 22 21 21 25 25 23 25 26 27 28 28 27 25 25 27 28 28 28 28 28 27
42 42 42 42 42 42 43 43 43 42 40 34 31 26 28 27 26 27 27 27 28 29 28 28 27 26 26 26 26 24 24 23 21 19 16 24 25 26 24 24 25 24 24 23 23 25 26 26 26 26 27 27 25 24
41 41 41 41 41 41 42 42 41 41 38 31 30 25 27 30 31 30 32 27 27 29 28 29 29 28 27 27 26 26 21 19 20 18 23 26 26 23 22 23 23 23 23 22 24 24 24 26 25 24 25 25 24 22
40 40 39 40 40 40 42 40 38 37 36 33 31 28 31 29 30 28 28 29 29 29 30 29 28 25 25 26 23 21 21 17 18 22 23 25 22 22 21 23 22 22 21 22 24 24 24 25 24 24 24 23 23 21
40 35 36 37 39 40 41 37 33 33 31 30 29 29 28 28 28 31 29 28 28 29 28 29 24 23 26 22 21 22 20 21 24 23 26 26 22 22 22 20 22 21 20 20 21 23 24 25 25 23 21 22 22 20
36 36 37 37 38 38 36 35 33 31 27 28 27 28 30 26 25 25 26 28 28 27 31 29 30 25 23 22 25 25 25 26 27 26 25 24 24 21 21 20 19 20 20 21 22 23 24 23 22 22 22 23 22 22
38 38 38 38 38 34 31 32 31 26 28 25 22 23 25 27 29 29 28 29 29 30 30 29 28 25 24 23 23 25 27 28 28 25 22 23 22 21 21 22 22 21 21 21 23 23 23 24 22 22 21 22 20 20
39 38 38 38 36 33 29 29 34 28 20 21 27 27 24 24 25 26 28 29 28 29 28 27 26 25 24 25 27 27 26 26 27 26 25 24 25 24 24 25 25 24 24 25 26 25 24 23 22 22 21 22 23 22
37 38 38 38 36 34 30 28 28 28 27 24 26 27 25 28 29 29 29 30 29 27 26 26 26 26 26 25 25 26 26 26 25 24 23 24 25 24 25 26 26 25 24 23 22 23 26 23 22 22 22 25 25 24
35 35 35 35 32 31 29 32 29 29 28 28 29 30 27 25 27 29 31 28 27 27 28 27 27 27 27 27 27 27 27 27 27 28 28 28 26 26 26 26 26 26 26 25 23 22 22 23 24 25 25 26 27 24
34 34 33 32 28 28 26 31 25 23 19 20 26 24 23 23 26 32 26 28 27 27 27 28 28 29 29 29 29 29 29 29 28 29 29 28 28 28 28 28 27 28 28 28 28 26 25 29 30 27 27 28 27 26
36 32 28 27 26 23 28 24 26 21 20 19 18 17 17 19 26 27 23 24 25 25 25 27 28 28 28 29 29 29 29 30 30 30 30 30 30 30 29 29 28 28 27 27 27 28 28 26 27 29 29 28 26 25
27 26 27 23 27 23 22 21 21 20 18 18 19 19 21 25 23 22 21 19 22 24 25 27 28 28 28 27 28 28 29 29 29 29 30 30 30 30 30 31 30 29 29 28 28 27 28 30 30 31 29 27 25 23
21 24 22 22 22 21 20 15 17 18 18 20 22 23 23 22 20 20 19 22 24 25 25 26 28 27 27 28 28 28 28 30 30 29 30 31 31 30 31 31 31 31 30 28 29 29 28 28 28 28 28 26 27 25
20 21 25 25 22 22 18 18 17 19 18 19 21 20 20 18 18 17 17 23 23 26 28 28 29 28 27 27 28 29 30 31 30 30 30 31 31 32 32 31 30 31 30 29 28 27 27 27 25 26 26 24 23 24
23 22 17 19 22 21 17 16 17 17 18 20 20 18 18 18 18 22 24 27 27 28 26 26 29 30 30 30 30 30 30 31 31 30 29 29 29 29 29 31 32 30 29 28 28 27 26 26 25 24 23 23 22 22
23 23 23 20 19 19 20 20 18 19 20 20 18 19 19 20 21 24 24 25 25 23 23 23 25 27 27 27 28 28 29 29 27 26 26 26 27 29 29 28 28 28 28 26 27 25 25 24 24 23 23 22 21 20
21 24 21 20 19 18 20 22 21 22 21 21 22 21 20 21 22 24 24 24 23 23 24 25 26 27 26 26 26 26 27 27 28 27 27 26 27 29 26 24 25 26 26 26 24 24 24 24 23 20 19 18 18 17
22 23 21 19 17 18 19 21 20 19 19 21 22 21 21 23 25 26 25 25 25 26 26 25 26 27 26 25 25 25 25 26 26 27 29 30 29 26 23 23 25 24 25 24 23 24 24 20 18 17 16 16 16 16
21 20 18 17 17 18 14 17 19 19 20 19 20 19 20 20 20 21 22 23 23 23 24 25 25 25 26 27 28 28 27 27 27 26 26 28 29 26 23 23 24 24 23 23 23 23 20 18 16 16 15 15 15 14
21 20 19 18 17 16 16 16 17 17 17 17 18 20 21 21 19 19 22 24 23 23 23 24 25 26 27 27 27 27 28 28 28 28 27 27 27 25 22 23 23 23 22 22 21 19 17 16 15 14 14 13 12 12

GFSWCAN_sfc_30mbdewp_114.txt.gz
Dewpoint
53 53 52 52 52 52 51 51 52 52 51 50 47 45 45 46 46 42 40 39 38 35 33 31 30 29 31 31 24 31 30 33 33 29 25 22 20 18 18 16 23 23 24 23 24 22 18 26 26 19 18 21 21 24
53 52 52 53 53 52 51 51 51 51 52 51 49 47 45 45 45 44 39 37 36 34 32 35 33 33 32 34 32 30 29 30 31 30 29 26 23 22 20 17 17 15 22 20 23 23 24 26 23 26 25 24 25 25
51 51 52 52 52 51 52 51 51 50 51 52 51 49 46 44 45 43 41 39 38 35 35 35 33 35 34 34 35 29 30 32 33 36 33 31 27 28 23 21 22 20 19 18 18 18 18 20 25 25 26 25 25 25
48 49 49 50 50 50 51 51 51 50 50 51 52 51 48 45 45 45 42 40 37 35 30 30 32 31 33 33 34 35 34 35 35 36 33 31 27 27 25 25 25 24 23 21 20 21 21 21 22 22 23 24 24 26
46 46 47 48 49 50 50 50 51 49 49 49 50 51 49 46 45 45 44 42 40 34 31 30 33 31 32 32 33 34 34 34 33 33 33 32 31 29 28 28 26 27 23 21 20 21 20 21 23 24 24 25 26 27
46 46 47 48 48 49 49 49 49 48 47 48 49 50 50 46 45 41 34 40 40 37 33 30 32 30 31 32 32 33 33 33 34 33 31 32 33 31 28 27 25 25 27 26 23 25 24 24 26 26 25 27 28 29
45 45 45 47 47 48 48 47 47 48 48 48 48 49 50 46 44 38 36 38 38 36 31 28 29 30 31 32 32 32 33 33 33 33 32 32 32 31 30 24 22 23 24 27 27 27 26 26 26 28 28 29 29 29
45 45 46 46 46 46 46 46 46 47 47 47 47 48 50 47 45 41 42 40 37 33 30 26 27 27 31 29 29 32 31 31 33 32 32 30 31 31 27 27 27 27 26 26 25 26 27 28 28 28 29 29 28 28
45 44 46 44 45 45 45 45 45 45 45 46 48 46 44 42 39 39 41 41 37 33 30 29 27 28 30 29 30 30 29 25 30 30 29 29 28 25 27 27 27 26 27 27 28 28 27 27 28 29 29 29 27 25
45 44 44 44 44 45 45 45 45 45 45 45 42 40 36 39 41 39 36 34 33 34 32 27 31 29 29 28 28 28 28 25 24 26 28 28 24 26 26 26 26 27 28 28 27 26 27 27 28 28 28 26 27 27
44 44 44 44 44 45 44 44 45 46 44 42 39 37 37 41 37 35 32 29 30 27 30 30 29 28 29 26 27 29 28 27 22 25 25 24 24 24 26 26 26 26 27 27 29 29 29 27 27 26 25 27 28 28
44 44 44 44 43 44 44 44 44 44 42 40 39 38 38 34 32 29 28 29 28 26 29 28 28 29 29 29 27 28 26 26 22 27 23 20 23 26 25 24 25 27 26 27 29 30 30 28 27 25 27 28 28 28
43 43 43 43 42 42 43 43 44 43 41 40 36 33 31 31 25 24 24 25 25 27 28 27 25 28 27 28 28 29 25 23 25 22 20 21 23 24 26 23 24 26 27 29 29 30 29 27 27 27 27 28 29 29
42 42 42 42 42 42 42 43 42 42 39 34 31 27 26 25 27 27 27 27 29 30 29 29 27 26 27 26 27 24 26 24 21 19 17 21 21 24 24 23 25 24 24 25 27 27 25 24 25 27 28 27 27 27
42 42 42 42 41 41 41 42 41 40 35 30 31 24 26 28 32 31 32 27 26 30 29 28 29 28 27 27 28 27 23 19 21 16 21 22 28 23 22 21 21 22 24 23 24 23 22 24 26 26 26 26 26 26
41 41 40 41 41 41 41 42 39 37 34 33 29 27 30 29 30 29 28 29 30 29 30 30 27 25 25 26 25 21 22 19 18 22 25 26 24 24 22 21 21 22 22 22 24 23 23 23 24 25 25 25 25 24
39 37 36 39 40 40 41 38 34 33 31 29 28 31 29 27 28 28 30 29 30 29 26 29 25 22 27 23 22 25 22 23 26 26 29 29 27 25 24 23 19 20 21 21 21 21 22 24 25 25 23 24 24 24
36 38 37 37 39 37 36 34 31 29 27 28 25 23 27 28 26 26 25 29 29 29 31 27 29 25 23 20 18 21 24 25 27 28 27 22 24 25 25 23 22 22 22 23 24 24 24 23 23 23 24 24 23 23
36 38 37 38 37 33 32 32 31 24 24 25 24 24 23 23 27 28 29 29 29 30 30 30 26 23 20 20 21 22 24 25 25 24 24 25 28 26 25 24 24 24 24 24 24 24 23 24 23 23 23 24 22 22
39 38 38 38 38 32 29 29 32 26 18 18 22 24 25 24 24 23 23 22 25 29 27 25 24 24 23 23 24 23 22 23 23 23 25 25 23 24 25 25 26 26 26 25 25 26 25 24 24 24 23 23 22 21
37 37 38 39 37 33 31 30 27 27 26 23 21 21 20 21 22 24 24 26 26 24 23 25 25 24 24 23 23 24 24 24 24 24 24 24 25 26 26 27 27 27 27 26 25 24 26 25 24 23 23 24 23 22
35 38 38 38 32 31 29 31 28 29 27 26 27 26 22 22 22 23 25 26 25 26 27 26 25 25 25 25 25 26 27 27 27 27 28 28 27 27 27 28 29 29 29 28 27 27 26 25 25 25 23 23 24 25
38 38 32 31 28 28 27 31 26 27 23 23 23 21 20 20 21 25 23 26 26 28 28 27 28 28 27 28 28 28 28 28 28 28 28 28 28 29 29 30 30 30 29 30 30 30 29 28 27 26 25 25 27 30
36 31 28 27 26 23 28 25 27 23 21 19 16 15 16 15 18 22 19 18 21 24 25 25 26 26 27 27 27 28 28 28 29 29 29 30 29 30 30 30 30 30 30 30 30 30 29 29 28 27 29 30 31 30
26 25 27 23 27 24 22 21 22 21 17 17 16 16 17 21 18 16 16 16 18 19 20 21 22 22 22 23 23 24 26 28 28 28 29 30 30 30 30 31 31 31 31 30 29 28 28 28 28 28 28 31 30 28
21 24 23 21 22 19 18 17 18 17 16 15 16 17 18 17 17 16 15 17 17 18 19 21 22 23 26 28 28 29 29 29 29 29 29 30 30 30 30 30 30 30 32 32 32 31 29 29 29 30 31 31 31 28
19 21 24 26 24 23 20 18 15 14 14 15 16 16 18 17 16 14 20 21 21 22 24 26 28 30 32 32 30 30 30 30 30 29 29 30 31 31 31 30 30 31 32 31 31 30 30 29 30 30 29 29 28 28
23 20 17 20 22 21 17 15 14 14 14 17 18 16 16 15 12 14 16 17 21 26 28 29 30 30 31 31 31 30 29 29 29 29 30 30 30 31 31 31 31 32 32 32 31 30 29 28 28 29 28 27 25 26
22 24 22 18 18 18 18 17 16 16 17 17 15 14 14 16 18 19 21 23 25 25 23 23 24 26 27 27 28 29 29 29 27 25 23 23 24 26 30 30 30 30 30 30 30 28 27 26 26 25 24 24 23 22
19 20 18 19 18 18 19 21 20 19 19 18 18 18 18 19 20 22 24 25 25 24 24 24 25 26 26 26 26 26 26 27 27 26 24 23 24 27 28 28 27 27 27 27 26 25 26 25 24 22 21 20 19 19
17 20 19 19 18 19 20 20 21 21 21 20 21 21 21 22 22 22 24 25 26 26 26 26 26 27 26 26 25 24 23 24 26 27 27 27 28 28 27 24 24 26 26 25 24 24 24 21 20 18 18 17 17 17
19 17 16 15 16 18 17 17 18 19 19 18 19 19 18 19 19 20 21 22 23 24 25 26 25 24 24 24 25 26 27 27 26 26 25 26 27 28 27 24 24 25 25 24 24 24 21 19 18 17 16 16 16 15
20 19 19 19 18 16 16 16 16 15 16 17 17 18 19 19 17 18 20 22 22 22 22 23 23 24 24 25 25 26 27 28 28 29 29 28 28 28 26 24 24 24 24 24 23 21 19 18 16 16 15 15 14 13

GFSWCAN_sfc_30mbdewp_117.txt.gz
Dewpoint
54 53 53 52 52 52 52 51 51 51 51 52 50 47 45 46 45 41 39 38 34 32 32 33 30 28 30 31 23 29 28 33 32 27 26 24 21 19 18 18 23 20 21 23 24 21 15 25 25 18 18 20 21 21
53 53 53 52 52 53 52 51 51 51 50 51 52 49 46 45 45 43 38 38 37 32 29 37 35 34 32 32 30 30 28 31 32 29 29 28 24 23 21 18 21 19 20 22 23 22 24 26 23 24 23 20 22 22
50 51 51 51 52 51 51 51 51 51 49 49 51 52 49 46 45 42 39 39 38 34 33 34 33 34 35 34 35 29 30 31 34 35 33 31 28 28 24 23 22 22 22 21 20 21 24 25 26 26 26 25 25 25
49 48 49 49 49 50 50 50 51 50 49 49 49 50 51 48 45 45 41 39 36 34 29 29 32 31 33 34 34 35 34 35 36 35 32 30 28 28 25 23 24 24 25 22 21 21 21 21 22 22 23 24 24 26
45 45 46 47 48 48 49 49 50 50 49 48 48 49 50 49 46 45 44 42 40 32 28 28 33 32 32 32 32 33 33 33 33 30 30 30 32 30 29 28 25 26 24 24 22 22 21 21 22 24 23 23 24 25
45 45 45 46 47 48 48 49 49 49 47 46 47 49 50 50 46 41 35 40 41 37 32 31 33 30 31 32 32 33 33 33 33 32 31 32 33 30 27 26 28 24 25 25 24 24 23 24 25 24 24 24 26 27
45 44 44 44 47 46 47 46 46 46 47 47 48 48 49 49 44 40 38 38 40 37 32 29 29 30 32 32 32 32 33 33 33 32 31 31 31 32 29 25 23 25 25 26 27 27 27 27 26 26 26 26 28 29
46 45 44 45 45 46 45 45 45 45 45 47 47 48 48 49 45 42 43 41 37 33 31 29 28 29 31 29 29 31 30 31 31 32 32 30 31 30 27 27 28 28 28 27 27 27 27 27 27 28 29 29 28 28
45 45 43 45 44 45 45 45 44 44 45 47 47 45 43 42 40 39 43 40 36 33 31 29 27 27 30 29 29 30 30 27 29 30 29 30 28 26 27 27 27 27 27 26 27 28 28 27 27 28 28 28 28 28
44 45 44 44 43 44 45 44 44 44 45 46 42 39 35 38 42 41 37 34 33 34 32 27 30 27 28 27 27 28 28 25 23 27 28 28 25 26 26 26 26 26 26 26 26 26 27 27 27 28 28 28 28 27
44 45 44 44 44 43 45 44 44 46 45 41 39 36 38 41 37 35 32 30 30 27 30 30 29 28 30 27 28 29 28 26 21 23 24 24 23 24 26 26 27 26 27 26 27 27 28 28 27 26 27 26 26 27
43 44 44 44 44 43 44 43 44 43 41 40 39 38 38 35 32 29 29 29 27 25 28 28 29 29 29 29 30 30 26 26 21 28 24 20 22 24 25 25 23 24 26 25 29 29 29 29 27 27 27 25 25 27
43 43 43 43 43 42 42 43 44 43 40 40 35 32 32 31 26 25 22 25 25 27 28 27 27 28 27 28 28 29 25 22 24 22 20 21 22 23 24 24 21 23 24 24 24 28 30 30 30 28 27 26 28 28
43 43 42 42 42 42 42 43 42 42 38 32 29 23 26 23 26 25 25 24 27 29 28 28 26 26 27 25 26 24 25 26 21 18 17 19 21 23 25 24 22 21 22 22 22 23 23 23 23 25 26 27 28 28
41 41 42 42 42 42 42 42 41 41 35 29 29 22 24 26 27 28 28 28 27 29 29 29 29 28 26 26 26 25 23 19 19 16 18 21 27 25 25 25 23 21 23 21 22 23 22 23 22 21 24 26 27 27
40 40 39 41 42 42 41 41 39 38 34 32 29 24 26 28 27 28 27 28 28 28 29 29 27 25 24 24 23 21 19 17 16 21 23 26 26 27 26 26 25 24 24 22 22 23 24 24 24 23 23 24 25 26
39 36 37 39 41 41 41 37 35 32 31 30 27 29 26 26 25 26 29 28 29 28 26 27 25 21 24 23 22 22 20 19 21 23 26 26 24 21 22 25 24 25 25 24 23 23 23 24 24 24 23 23 25 25
36 36 37 38 39 38 36 35 30 29 24 27 25 23 28 28 26 25 26 30 29 27 27 25 24 21 19 17 17 19 21 24 25 25 23 21 22 23 24 24 26 26 27 26 25 25 24 24 24 24 24 24 24 23
36 37 38 38 37 36 31 31 31 23 23 24 26 26 25 23 25 25 27 28 29 29 29 29 25 23 22 20 20 22 23 23 23 23 23 24 24 22 22 24 26 27 26 26 26 25 25 25 25 25 24 24 23 23
36 37 38 38 37 32 28 29 31 27 22 22 22 17 18 19 20 20 22 23 24 25 23 21 19 18 18 19 21 24 25 24 20 18 18 19 22 23 24 25 26 26 27 27 27 27 27 26 26 25 25 24 23 23
35 35 37 38 35 35 30 29 27 27 22 19 18 19 18 20 21 23 23 25 23 21 20 20 20 19 20 20 21 22 21 22 21 21 21 23 24 24 26 27 28 28 28 28 28 28 29 28 27 27 26 25 26 25
33 34 34 34 32 31 29 31 28 27 25 23 24 19 18 17 17 18 20 20 20 20 22 22 23 23 23 23 24 24 24 24 25 25 26 27 27 27 26 27 28 28 29 29 30 29 29 29 28 27 26 26 26 25
34 33 32 32 28 28 26 31 26 26 22 22 21 20 20 19 19 21 19 20 20 21 23 23 24 25 25 26 27 27 28 27 27 27 27 27 27 28 28 29 29 30 30 30 30 30 30 31 31 30 29 27 26 25
34 32 28 26 26 23 27 25 27 25 23 21 18 17 17 17 18 17 15 15 17 19 20 22 23 24 25 27 27 27 27 27 27 27 28 28 28 28 29 29 30 30 31 31 31 31 30 30 30 30 29 28 26 26
25 24 27 23 26 23 21 20 21 19 18 17 15 14 15 15 13 13 12 13 15 17 18 19 20 20 20 20 21 21 23 24 25 28 31 31 30 29 29 30 30 30 31 31 32 31 31 30 30 29 30 30 30 31
20 24 22 22 22 21 19 17 17 16 15 14 14 14 15 15 14 13 12 13 14 16 17 17 18 19 20 22 22 25 31 33 34 33 34 32 30 29 29 29 29 29 30 31 31 31 31 31 32 31 31 31 32 32
19 21 25 28 25 23 19 18 16 14 14 15 14 15 16 15 14 14 14 15 16 19 20 21 22 23 23 25 28 32 33 34 35 33 31 30 30 30 30 29 29 29 30 30 31 31 31 31 31 32 31 31 30 30
21 21 18 20 23 21 16 16 14 13 13 14 15 12 12 12 10 13 14 16 17 19 22 23 22 25 28 29 30 31 31 30 30 28 27 28 29 30 30 31 31 31 32 32 32 31 31 31 30 29 30 30 29 28
23 23 19 17 18 19 18 15 14 14 15 14 12 12 12 13 14 15 16 17 19 20 21 22 23 25 25 27 27 28 28 28 27 25 24 23 23 23 24 27 29 30 30 30 31 32 31 29 28 27 27 26 25 25
20 22 19 17 16 15 15 18 15 15 16 16 16 16 15 16 17 18 19 20 20 21 22 22 24 25 24 23 24 25 27 27 28 27 25 24 23 24 23 25 27 27 28 28 28 27 28 26 26 22 22 22 21 21
19 19 16 15 14 15 17 17 18 19 19 18 19 18 18 18 19 21 21 22 23 24 25 24 24 23 23 25 25 25 25 26 26 26 27 27 27 27 27 27 26 26 26 26 26 25 25 23 22 20 20 20 19 19
17 15 15 15 15 17 17 17 18 19 19 19 18 19 20 19 19 20 21 22 21 21 22 22 22 22 24 24 25 26 27 27 26 25 23 25 26 27 27 26 26 25 25 25 24 24 23 21 20 19 18 17 17 16
18 16 16 16 15 14 14 15 15 15 14 16 17 18 18 18 17 18 19 20 20 20 21 21 22 23 23 24 25 25 26 26 26 27 28 29 28 28 26 25 25 24 24 23 24 23 22 20 19 18 17 16 15 15